[[{"header":{"parameterUnit":"m.s-1","parameterCategory":1,"la1":30.6,"la2":28.766,"lo1":-90.7593,"lo2":-88.6598,"dy":0.0162,"dx":0.0183,"nx":116,"ny":114,"refTime":"2024-04-11T06:00:00:Z","depth":0,"parameterNumber":2,"parameterNumberName":"U-component_of_WINDS"},"data":[0.0,0.0,0.0,0.0,0.0,0.0,0.0,0.0,0.0,0.0,0.0,0.0,0.0,0.0,0.0,0.0,0.0,0.0,0.0,0.0,0.0,0.0,0.0,0.0,0.0,0.0,0.0,0.0,0.0,0.0,0.0,0.0,0.0,0.0,0.0,0.0,0.0,0.0,0.0,0.0,0.0,0.0,0.0,0.0,0.0,0.0,0.0,0.0,0.0,0.0,0.0,0.0,0.0,0.0,0.0,0.0,0.0,0.0,0.0,0.0,0.0,0.0,0.0,0.0,0.0,0.0,0.0,0.0,0.0,0.0,0.0,0.0,0.0,0.0,0.0,0.0,0.0,0.0,0.0,0.0,0.0,0.0,0.0,0.0,0.0,0.0,0.0,0.0,0.0,0.0,0.0,0.0,0.0,0.0,0.0,0.0,0.0,0.0,0.0,0.0,0.0,0.0,0.0,0.0,0.0,0.0,0.0,0.0,0.0,0.0,0.0,0.0,0.0,0.0,0.0,0.0,0.0,0.0,0.0,0.0,0.0,0.0,0.0,0.0,0.0,0.0,0.0,0.0,0.0,0.0,0.0,0.0,0.0,0.0,0.0,0.0,0.0,0.0,0.0,0.0,0.0,0.0,0.0,0.0,0.0,0.0,0.0,0.0,0.0,0.0,0.0,0.0,0.0,0.0,0.0,0.0,0.0,0.0,0.0,0.0,0.0,0.0,0.0,0.0,0.0,0.0,0.0,0.0,0.0,0.0,0.0,0.0,0.0,0.0,0.0,0.0,0.0,0.0,0.0,0.0,0.0,0.0,0.0,0.0,0.0,0.0,0.0,0.0,0.0,0.0,0.0,0.0,0.0,0.0,0.0,0.0,0.0,0.0,0.0,0.0,0.0,0.0,0.0,0.0,0.0,0.0,0.0,0.0,0.0,0.0,0.0,0.0,0.0,0.0,0.0,0.0,0.0,0.0,0.0,0.0,0.0,0.0,0.0,0.0,0.0,0.0,0.0,0.0,0.0,0.0,0.0,0.0,0.0,0.0,0.0,0.0,0.0,0.0,0.0,0.0,0.0,0.0,0.0,0.0,0.0,0.0,0.0,0.0,0.0,0.0,0.0,0.0,0.0,0.0,0.0,0.0,0.0,0.0,0.0,0.0,0.0,0.0,0.0,0.0,0.0,0.0,0.0,0.0,0.0,0.0,0.0,0.0,0.0,0.0,0.0,0.0,0.0,0.0,0.0,0.0,0.0,0.0,0.0,0.0,0.0,0.0,0.0,0.0,0.0,0.0,0.0,0.0,0.0,0.0,0.0,0.0,0.0,0.0,0.0,0.0,0.0,0.0,0.0,0.0,0.0,0.0,0.0,0.0,0.0,0.0,0.0,0.0,0.0,0.0,0.0,0.0,0.0,0.0,0.0,0.0,0.0,0.0,0.0,0.0,0.0,0.0,0.0,0.0,0.0,0.0,0.0,0.0,0.0,0.0,0.0,0.0,0.0,0.0,0.0,0.0,0.0,0.0,0.0,0.0,0.0,0.0,0.0,0.0,0.0,0.0,0.0,0.0,0.0,0.0,0.0,0.0,0.0,0.0,0.0,0.0,0.0,0.0,0.0,0.0,0.0,0.0,0.0,0.0,0.0,0.0,0.0,0.0,0.0,0.0,0.0,0.0,0.0,0.0,0.0,0.0,0.0,0.0,0.0,0.0,0.0,0.0,0.0,0.0,0.0,0.0,0.0,0.0,0.0,0.0,0.0,0.0,0.0,0.0,0.0,0.0,0.0,0.0,0.0,0.0,0.0,0.0,0.0,0.0,0.0,0.0,0.0,0.0,0.0,0.0,0.0,0.0,0.0,0.0,0.0,0.0,0.0,0.0,0.0,0.0,0.0,0.0,0.0,0.0,0.0,0.0,0.0,0.0,0.0,0.0,0.0,0.0,0.0,0.0,0.0,0.0,0.0,0.0,0.0,0.0,0.0,0.0,0.0,0.0,0.0,0.0,0.0,0.0,0.0,0.0,0.0,0.0,0.0,0.0,0.0,0.0,0.0,0.0,0.0,0.0,0.0,0.0,0.0,0.0,0.0,0.0,0.0,0.0,0.0,0.0,0.0,0.0,0.0,0.0,0.0,0.0,0.0,0.0,0.0,0.0,0.0,0.0,0.0,0.0,0.0,0.0,0.0,0.0,0.0,0.0,0.0,0.0,0.0,0.0,0.0,0.0,0.0,0.0,0.0,0.0,0.0,0.0,0.0,0.0,0.0,0.0,0.0,0.0,0.0,0.0,0.0,0.0,0.0,0.0,0.0,0.0,0.0,0.0,0.0,0.0,0.0,0.0,0.0,0.0,0.0,0.0,0.0,0.0,0.0,0.0,0.0,0.0,0.0,0.0,0.0,0.0,0.0,0.0,0.0,0.0,0.0,0.0,0.0,0.0,0.0,0.0,0.0,0.0,0.0,0.0,0.0,0.0,0.0,0.0,0.0,0.0,0.0,0.0,0.0,0.0,0.0,0.0,0.0,0.0,0.0,0.0,0.0,0.0,0.0,0.0,0.0,0.0,0.0,0.0,0.0,0.0,0.0,0.0,0.0,0.0,0.0,0.0,0.0,0.0,0.0,0.0,0.0,0.0,0.0,0.0,0.0,0.0,0.0,0.0,0.0,0.0,0.0,0.0,0.0,0.0,0.0,0.0,0.0,0.0,0.0,0.0,0.0,0.0,0.0,0.0,0.0,0.0,0.0,0.0,0.0,0.0,0.0,0.0,0.0,0.0,0.0,0.0,0.0,0.0,0.0,0.0,0.0,0.0,0.0,0.0,0.0,0.0,0.0,0.0,0.0,0.0,0.0,0.0,0.0,0.0,0.0,0.0,0.0,0.0,0.0,0.0,0.0,0.0,0.0,0.0,0.0,0.0,0.0,0.0,0.0,0.0,0.0,0.0,0.0,0.0,0.0,0.0,0.0,0.0,0.0,0.0,0.0,0.0,0.0,0.0,0.0,0.0,0.0,0.0,0.0,0.0,0.0,0.0,0.0,0.0,0.0,0.0,0.0,0.0,0.0,0.0,0.0,0.0,0.0,0.0,0.0,0.0,0.0,0.0,0.0,0.0,0.0,0.0,0.0,0.0,0.0,0.0,0.0,0.0,0.0,0.0,0.0,0.0,0.0,0.0,0.0,0.0,0.0,0.0,0.0,0.0,0.0,0.0,0.0,0.0,0.0,0.0,0.0,0.0,0.0,0.0,0.0,0.0,0.0,0.0,0.0,0.0,0.0,0.0,0.0,0.0,0.0,0.0,0.0,0.0,0.0,0.0,0.0,0.0,0.0,0.0,0.0,0.0,0.0,0.0,0.0,0.0,0.0,0.0,0.0,0.0,0.0,0.0,0.0,0.0,0.0,0.0,0.0,0.0,0.0,0.0,0.0,0.0,0.0,0.0,0.0,0.0,0.0,0.0,0.0,0.0,0.0,0.0,0.0,0.0,0.0,0.0,0.0,0.0,0.0,0.0,0.0,0.0,0.0,0.0,0.0,0.0,0.0,0.0,0.0,0.0,0.0,0.0,0.0,0.0,0.0,0.0,0.0,0.0,0.0,0.0,0.0,0.0,0.0,0.0,0.0,0.0,0.0,0.0,0.0,0.0,0.0,0.0,0.0,0.0,0.0,0.0,0.0,0.0,0.0,0.0,0.0,0.0,0.0,0.0,0.0,0.0,0.0,0.0,0.0,0.0,0.0,0.0,0.0,0.0,0.0,0.0,0.0,0.0,0.0,0.0,0.0,0.0,0.0,0.0,0.0,0.0,0.0,0.0,0.0,0.0,0.0,0.0,0.0,0.0,0.0,0.0,0.0,0.0,0.0,0.0,0.0,0.0,0.0,0.0,0.0,0.0,0.0,0.0,0.0,0.0,0.0,0.0,0.0,0.0,0.0,0.0,0.0,0.0,0.0,0.0,0.0,0.0,0.0,0.0,0.0,0.0,0.0,0.0,0.0,0.0,0.0,0.0,0.0,0.0,0.0,0.0,0.0,0.0,0.0,0.0,0.0,0.0,0.0,0.0,0.0,0.0,0.0,0.0,0.0,0.0,0.0,0.0,0.0,0.0,0.0,0.0,0.0,0.0,0.0,0.0,0.0,0.0,0.0,0.0,0.0,0.0,0.0,0.0,0.0,0.0,0.0,0.0,0.0,0.0,0.0,0.0,0.0,0.0,0.0,0.0,0.0,0.0,0.0,0.0,0.0,0.0,0.0,0.0,0.0,0.0,0.0,0.0,0.0,0.0,0.0,0.0,0.0,0.0,0.0,0.0,0.0,0.0,0.0,0.0,0.0,0.0,0.0,0.0,0.0,0.0,0.0,0.0,0.0,0.0,0.0,0.0,0.0,0.0,0.0,0.0,0.0,0.0,0.0,0.0,0.0,0.0,0.0,0.0,0.0,0.0,0.0,0.0,0.0,0.0,0.0,0.0,0.0,0.0,0.0,0.0,0.0,0.0,0.0,0.0,0.0,0.0,0.0,0.0,0.0,0.0,0.0,0.0,0.0,0.0,0.0,0.0,0.0,0.0,0.0,0.0,0.0,0.0,0.0,0.0,0.0,0.0,0.0,0.0,0.0,0.0,0.0,0.0,0.0,0.0,0.0,0.0,0.0,0.0,0.0,0.0,0.0,0.0,0.0,0.0,0.0,0.0,0.0,0.0,0.0,0.0,0.0,0.0,0.0,0.0,0.0,0.0,0.0,0.0,0.0,0.0,0.0,0.0,0.0,0.0,0.0,0.0,0.0,0.0,0.0,0.0,0.0,0.0,0.0,0.0,0.0,0.0,0.0,0.0,0.0,0.0,0.0,0.0,0.0,0.0,0.0,0.0,0.0,0.0,0.0,0.0,0.0,0.0,0.0,0.0,0.0,0.0,0.0,0.0,0.0,0.0,0.0,0.0,0.0,0.0,0.0,0.0,0.0,0.0,0.0,0.0,0.0,0.0,0.0,0.0,0.0,0.0,0.0,0.0,0.0,0.0,0.0,0.0,0.0,0.0,0.0,0.0,0.0,0.0,0.0,0.0,0.0,0.0,0.0,0.0,0.0,0.0,0.0,0.0,0.0,0.0,0.0,0.0,0.0,0.0,0.0,0.0,0.0,0.0,0.0,0.0,0.0,0.0,0.0,0.0,0.0,0.0,0.0,0.0,0.0,0.0,0.0,0.0,0.0,0.0,0.0,0.0,0.0,0.0,0.0,0.0,0.0,0.0,0.0,0.0,0.0,0.0,0.0,0.0,0.0,0.0,0.0,0.0,0.0,0.0,0.0,0.0,0.0,0.0,0.0,0.0,0.0,0.0,0.0,0.0,0.0,0.0,0.0,0.0,0.0,0.0,0.0,0.0,0.0,0.0,0.0,0.0,0.0,0.0,0.0,0.0,0.0,0.0,0.0,0.0,0.0,0.0,0.0,0.0,0.0,0.0,0.0,0.0,0.0,0.0,0.0,0.0,0.0,0.0,0.0,0.0,0.0,0.0,0.0,0.0,0.0,0.0,0.0,0.0,0.0,0.0,0.0,0.0,0.0,0.0,0.0,0.0,0.0,0.0,0.0,0.0,0.0,0.0,0.0,0.0,0.0,0.0,0.0,0.0,0.0,0.0,0.0,0.0,0.0,0.0,0.0,0.0,0.0,0.0,0.0,0.0,0.0,0.0,0.0,0.0,0.0,0.0,0.0,0.0,0.0,0.0,0.0,0.0,0.0,0.0,0.0,0.0,0.0,0.0,0.0,0.0,0.0,0.0,0.0,0.0,0.0,0.0,0.0,0.0,0.0,0.0,0.0,0.0,0.0,0.0,0.0,0.0,0.0,0.0,0.0,0.0,0.0,0.0,0.0,0.0,0.0,0.0,0.0,0.0,0.0,0.0,0.0,0.0,0.0,0.0,0.0,0.0,0.0,0.0,0.0,0.0,0.0,0.0,0.0,0.0,0.0,0.0,0.0,0.0,0.0,0.0,0.0,0.0,0.0,0.0,0.0,0.0,0.0,0.0,0.0,0.0,0.0,0.0,0.0,0.0,0.0,0.0,0.0,0.0,0.0,0.0,0.0,0.0,0.0,0.0,0.0,0.0,0.0,0.0,0.0,0.0,3.4912,0.0,0.0,0.0,0.0,0.0,0.0,0.0,0.0,0.0,0.0,0.0,0.0,0.0,0.0,0.0,0.0,0.0,0.0,0.0,0.0,0.0,0.0,0.0,0.0,2.231,2.231,2.231,2.231,2.231,2.231,0.0,0.0,0.0,0.0,0.0,2.2818,2.2835,2.3545,2.5033,2.4661,2.5067,2.6184,2.6522,2.7012,2.7552,0.0,0.0,0.0,0.0,0.0,0.0,0.0,0.0,0.0,0.0,0.0,0.0,0.0,0.0,0.0,0.0,0.0,0.0,0.0,0.0,0.0,0.0,0.0,0.0,0.0,0.0,0.0,0.0,0.0,0.0,0.0,0.0,0.0,0.0,0.0,0.0,0.0,0.0,0.0,0.0,0.0,0.0,0.0,0.0,0.0,0.0,0.0,0.0,0.0,0.0,0.0,0.0,0.0,0.0,0.0,0.0,0.0,0.0,0.0,0.0,0.0,0.0,0.0,0.0,0.0,0.0,0.0,0.0,0.0,0.0,0.0,3.5994,0.0,0.0,0.0,0.0,0.0,0.0,0.0,0.0,0.0,0.0,0.0,0.0,0.0,0.0,0.0,0.0,0.0,0.0,0.0,0.0,0.0,2.231,2.231,2.231,2.231,2.231,2.2349,2.2349,2.231,2.2349,0.0,0.0,0.0,0.0,2.3579,2.3579,2.4188,2.5423,2.5169,2.5456,2.6218,2.7199,2.7994,2.8602,2.9162,0.0,0.0,0.0,0.0,0.0,0.0,0.0,0.0,0.0,0.0,0.0,0.0,0.0,0.0,0.0,0.0,0.0,0.0,0.0,0.0,0.0,0.0,0.0,0.0,0.0,0.0,0.0,0.0,0.0,0.0,0.0,0.0,0.0,0.0,0.0,0.0,0.0,0.0,0.0,0.0,0.0,0.0,0.0,0.0,0.0,0.0,0.0,0.0,0.0,0.0,0.0,0.0,0.0,0.0,0.0,0.0,0.0,0.0,0.0,0.0,0.0,0.0,0.0,3.9228,3.9495,3.9394,4.002,3.9901,3.9123,3.8159,3.6874,3.5588,3.7094,0.0,0.0,0.0,0.0,0.0,0.0,0.0,0.0,0.0,0.0,0.0,0.0,0.0,0.0,0.0,0.0,0.0,0.0,0.0,2.231,2.231,2.231,2.231,2.231,2.2527,2.2537,2.231,2.2527,2.2829,0.0,0.0,2.3596,2.4354,2.4371,2.4472,2.4659,2.6471,2.7774,2.8621,3.0598,3.1596,3.1619,2.9575,2.9765,3.1619,0.0,0.0,0.0,0.0,0.0,0.0,0.0,0.0,0.0,0.0,0.0,0.0,0.0,0.0,0.0,0.0,0.0,0.0,0.0,0.0,0.0,0.0,0.0,0.0,0.0,0.0,0.0,0.0,0.0,0.0,0.0,0.0,0.0,0.0,0.0,0.0,0.0,0.0,0.0,0.0,0.0,2.8356,2.8372,0.0,0.0,0.0,0.0,0.0,0.0,0.0,0.0,0.0,0.0,0.0,0.0,0.0,3.7733,3.8319,3.9851,4.0695,4.0813,4.1507,4.1525,4.0916,4.1018,4.0646,4.0003,4.1085,0.0,3.9225,3.7601,0.0,0.0,0.0,0.0,0.0,0.0,0.0,0.0,0.0,0.0,0.0,0.0,0.0,0.0,0.0,0.0,0.0,0.0,0.0,0.0,0.0,2.2919,2.3088,2.3494,2.4683,2.47,2.3033,2.4091,2.4171,2.2846,2.2784,2.3325,2.4489,2.4069,2.4475,2.5727,2.7994,2.9499,3.026,3.163,3.2876,3.3877,3.2769,3.2144,3.1923,3.1982,0.0,0.0,0.0,0.0,0.0,0.0,0.0,0.0,0.0,0.0,0.0,0.0,0.0,0.0,0.0,0.0,0.0,0.0,0.0,0.0,0.0,0.0,0.0,0.0,0.0,0.0,0.0,0.0,0.0,0.0,0.0,0.0,0.0,0.0,0.0,0.0,0.0,0.0,0.0,2.8774,3.0014,2.9169,3.0767,3.1628,0.0,0.0,0.0,0.0,0.0,0.0,0.0,0.0,0.0,3.8328,4.0124,4.1194,4.1474,4.2557,4.3318,4.3741,4.4062,4.4045,4.3741,4.4164,4.3944,4.3284,4.3927,4.3842,4.3064,4.0815,3.9766,3.9529,0.0,0.0,0.0,0.0,3.9732,4.0121,0.0,0.0,0.0,0.0,0.0,0.0,0.0,0.0,0.0,0.0,0.0,0.0,2.3579,2.3849,2.4255,2.4983,2.6615,2.6566,2.413,2.519,2.4986,2.2948,2.2868,2.346,2.4729,2.4611,2.5524,2.7571,2.9837,3.1427,3.2357,3.3288,3.45,3.5882,3.6032,3.5057,3.3352,3.3577,3.28,3.1363,0.0,0.0,0.0,0.0,0.0,0.0,0.0,0.0,0.0,0.0,0.0,0.0,0.0,0.0,0.0,0.0,0.0,0.0,0.0,0.0,0.0,0.0,0.0,0.0,0.0,0.0,0.0,0.0,0.0,0.0,0.0,0.0,0.0,0.0,0.0,0.0,0.0,2.996,3.1507,3.0172,3.2692,3.4088,0.0,0.0,0.0,0.0,0.0,0.0,3.9143,4.0057,4.0909,4.1732,4.358,4.457,4.457,4.5331,4.6092,4.6836,4.6836,4.6836,4.6836,4.7378,4.7242,4.6549,4.6549,4.6447,4.6075,4.3606,4.2049,4.1204,4.1001,4.0933,4.0933,4.0933,4.0815,4.0646,0.0,0.0,0.0,0.0,0.0,0.0,0.0,0.0,0.0,0.0,0.0,2.2852,2.4303,2.5067,2.5795,2.6522,2.7313,2.7121,2.5573,2.4851,2.4471,2.4401,2.4404,2.4746,2.5541,2.686,2.833,2.9939,3.2154,3.3981,3.5436,3.6924,3.7669,3.7767,3.8201,3.8076,3.7379,3.5456,3.4624,3.448,0.0,0.0,0.0,0.0,0.0,0.0,0.0,0.0,0.0,0.0,0.0,0.0,0.0,0.0,0.0,0.0,0.0,0.0,0.0,0.0,0.0,0.0,0.0,0.0,0.0,0.0,0.0,0.0,0.0,0.0,0.0,0.0,0.0,0.0,0.0,0.0,0.0,0.0,0.0,3.1502,3.4628,0.0,0.0,0.0,0.0,3.677,3.8093,3.9218,4.0078,4.2802,4.4034,4.3405,4.6186,4.7699,4.7699,4.8426,4.9154,4.9864,4.9864,4.9864,4.9864,4.9915,4.9526,4.8832,4.8832,4.8443,4.7581,4.4587,4.3758,4.4282,4.3538,4.325,4.325,4.325,4.2794,4.2185,0.0,0.0,0.0,0.0,0.0,0.0,0.0,2.231,2.231,2.231,2.2716,2.3748,2.5693,2.6573,2.7723,2.9431,3.0127,2.9569,2.7547,2.7204,2.6458,2.4942,2.4641,2.505,2.6285,2.8738,3.0734,3.2222,3.4472,3.6332,3.7804,3.8345,3.8853,3.9292,3.9504,3.937,3.8912,3.7545,3.5806,3.3952,3.3422,3.2544,0.0,0.0,0.0,0.0,0.0,0.0,0.0,0.0,0.0,0.0,0.0,0.0,0.0,0.0,0.0,0.0,0.0,0.0,0.0,0.0,0.0,0.0,0.0,0.0,0.0,0.0,0.0,0.0,0.0,0.0,0.0,0.0,0.0,0.0,0.0,0.0,0.0,3.5743,3.8952,0.0,3.9345,3.9005,3.954,4.099,4.1577,4.2618,4.433,4.633,4.7511,4.7749,4.9232,5.0033,5.0033,5.0287,5.0557,5.0811,5.0811,5.0811,5.0811,5.0811,5.0676,5.0439,5.0439,5.0287,4.9949,4.8883,4.7208,4.5229,4.4468,4.4164,4.4164,4.4164,4.3995,4.369,0.0,0.0,0.0,0.0,0.0,0.0,2.231,2.231,2.231,2.231,2.3156,2.4611,2.6826,2.8197,2.977,3.1765,3.1912,3.1026,2.9094,2.8224,2.7039,2.5338,2.5479,2.6302,2.7807,3.0768,3.3051,3.4539,3.6552,3.8159,3.936,3.936,3.9614,4.007,4.007,4.0014,3.9787,3.9396,3.7509,3.4789,3.4359,3.3864,3.3147,0.0,0.0,0.0,0.0,0.0,0.0,0.0,0.0,0.0,0.0,0.0,0.0,0.0,0.0,0.0,0.0,0.0,0.0,0.0,0.0,0.0,0.0,0.0,0.0,0.0,0.0,0.0,0.0,0.0,0.0,0.0,0.0,0.0,0.0,0.0,3.8278,3.8775,4.2232,4.4164,4.3166,4.3081,4.3606,4.484,4.5162,4.6075,4.7817,4.9306,5.0338,5.0828,5.1589,5.1995,5.1995,5.1995,5.1995,5.1995,5.1995,5.1995,5.1995,5.1995,5.1995,5.1978,5.1708,5.1589,5.1555,5.1319,4.9779,4.7479,4.6735,4.6143,4.5703,4.5703,4.5551,4.5246,0.0,0.0,0.0,0.0,0.0,2.231,2.231,2.231,2.231,2.231,2.3596,2.5372,2.7621,2.9871,3.1833,3.3339,3.2432,3.1308,3.0213,2.7686,2.6065,2.571,2.7114,2.86,3.0209,3.3085,3.5318,3.6857,3.8311,3.9394,4.007,4.007,4.007,4.007,4.0104,4.0104,4.0155,4.0916,3.9873,3.7465,3.514,3.5134,3.6134,0.0,0.0,0.0,0.0,0.0,0.0,0.0,0.0,0.0,0.0,0.0,0.0,0.0,0.0,0.0,0.0,0.0,0.0,0.0,0.0,0.0,0.0,0.0,0.0,0.0,0.0,0.0,0.0,0.0,0.0,0.0,0.0,0.0,3.3853,3.7646,4.0437,4.0426,4.4279,4.6329,4.4925,4.6092,4.7225,4.797,4.8697,4.9407,5.0118,5.1555,5.2334,5.2334,5.3095,5.3501,5.3501,5.3501,5.3501,5.3501,5.3501,5.3501,5.3501,5.3501,5.3501,5.3467,5.2689,5.2334,5.2283,5.1589,5.1268,5.1166,5.0422,4.9255,4.7986,4.7986,4.7496,4.6836,0.0,0.0,0.0,0.0,0.0,2.231,2.231,2.231,2.231,2.231,2.4052,2.6167,2.8416,3.0649,3.2797,3.4844,3.2785,3.1359,3.1325,2.8323,2.7012,2.801,2.8975,3.0683,3.322,3.5165,3.6891,3.8379,3.9326,3.9884,4.007,4.007,4.007,4.0104,4.0646,4.0899,4.095,4.1677,4.1612,4.0729,3.8225,3.668,3.5676,0.0,0.0,0.0,0.0,0.0,0.0,0.0,0.0,0.0,0.0,0.0,0.0,0.0,0.0,0.0,0.0,0.0,0.0,0.0,0.0,0.0,0.0,0.0,0.0,0.0,0.0,0.0,0.0,0.0,0.0,0.0,3.6256,3.768,3.7705,4.0488,4.3367,4.5497,4.7781,4.9238,4.9373,4.9763,5.0084,5.0304,5.098,5.1488,5.1674,5.2638,5.3179,5.3179,5.3382,5.3501,5.3501,5.3501,5.3501,5.3501,5.3501,5.3501,5.3501,5.3501,5.3501,5.3501,5.3264,5.3179,5.3162,5.2959,5.252,5.1928,5.12,5.0321,4.9492,4.9492,4.8697,4.7682,0.0,0.0,0.0,0.0,0.0,2.231,2.231,2.231,2.231,2.231,2.4509,2.681,2.8808,3.0954,3.2933,3.4556,3.2273,3.0713,3.0634,2.9051,2.8653,2.9854,3.1529,3.3372,3.5402,3.6941,3.8278,3.9445,3.9868,4.024,4.0544,4.0544,4.0713,4.1018,4.1457,4.166,4.1711,4.2455,4.276,4.2642,4.1478,4.0092,3.8567,3.6464,3.5831,3.589,3.4652,3.4678,3.5253,3.4661,0.0,0.0,0.0,0.0,0.0,0.0,0.0,0.0,0.0,0.0,0.0,0.0,0.0,0.0,0.0,0.0,0.0,0.0,0.0,0.0,0.0,0.0,0.0,0.0,3.9177,4.1067,4.2641,4.4226,4.6177,4.8545,5.0118,5.1183,5.1623,5.1978,5.2164,5.2164,5.257,5.2942,5.3247,5.3416,5.3788,5.4414,5.3822,5.3653,5.3957,5.3653,5.3501,5.3501,5.3501,5.3501,5.3501,5.3501,5.3501,5.3501,5.3501,5.3501,5.3501,5.3501,5.323,5.2739,0.0,0.0,0.0,0.0,4.9357,4.8426,0.0,0.0,0.0,2.231,2.231,2.231,2.231,2.231,2.231,2.231,2.4797,2.7097,2.845,3.0649,3.2341,3.3085,3.1207,2.9736,2.9144,2.9736,3.0581,3.1647,3.4387,3.6231,3.7009,3.8481,3.9512,4.007,4.007,4.046,4.1204,4.1204,4.1593,4.2303,4.2472,4.2557,4.2608,4.3453,4.3792,4.3859,4.4553,4.4258,4.3009,3.9691,3.9037,3.9681,3.7767,3.7123,3.724,3.699,0.0,0.0,0.0,0.0,0.0,0.0,0.0,0.0,0.0,0.0,0.0,0.0,0.0,0.0,0.0,0.0,0.0,0.0,0.0,0.0,0.0,0.0,0.0,0.0,4.1897,4.4181,4.7784,4.8359,4.89,5.0185,5.1505,5.2367,5.2536,5.3145,5.3602,5.3737,5.3721,5.3991,5.4685,0.0,0.0,0.0,0.0,5.4059,5.4718,5.4076,5.3721,5.3619,5.3619,5.3585,5.3501,5.3501,5.3501,5.3501,5.3501,5.3501,5.3501,5.3501,5.3501,5.3416,5.252,5.1792,5.1116,5.027,4.956,4.9001,0.0,0.0,0.0,2.231,2.231,2.231,2.231,2.231,2.231,2.231,2.4357,2.593,2.6234,2.8805,3.0818,3.1562,3.0142,2.9397,2.9871,3.0023,3.1495,3.4624,3.6502,3.7821,3.8548,4.002,4.0544,4.007,4.007,4.046,4.1204,4.1204,4.1593,4.2337,4.3589,4.4147,4.4215,4.5568,4.6143,4.616,4.6295,4.558,4.4147,4.217,4.1256,4.0696,3.9139,3.9225,4.0066,3.9919,4.0144,4.0599,4.0963,0.0,0.0,0.0,0.0,0.0,0.0,0.0,0.0,0.0,0.0,0.0,0.0,0.0,0.0,0.0,0.0,0.0,0.0,0.0,0.0,4.3318,4.5466,4.7699,5.0236,5.1082,5.1555,5.1843,5.2131,5.279,5.4025,5.3753,5.4006,5.5209,5.485,5.4867,5.548,5.5361,5.5429,5.57,5.5446,5.5361,5.5497,5.5361,5.4989,5.438,5.438,0.0,5.3501,5.3501,5.3501,5.3501,5.3501,5.3501,5.3501,5.3501,5.3501,5.3365,5.1978,5.1352,5.1048,4.9712,4.912,4.9001,0.0,0.0,0.0,2.231,2.231,2.231,2.231,2.231,2.231,2.231,2.39,2.5186,2.5558,2.7283,2.8552,2.8907,2.8264,2.8636,3.0531,3.1698,3.3643,3.6637,3.8193,3.9343,4.0087,4.046,4.0815,4.1187,4.0815,4.1221,4.232,4.232,4.2912,4.4045,4.4807,4.5348,4.5754,4.6887,4.7361,4.7394,4.775,4.7462,4.6633,4.5111,4.4079,4.3318,4.2185,4.1937,4.2004,4.1212,4.14,4.1965,4.2024,4.0888,3.938,0.0,0.0,0.0,0.0,0.0,0.0,0.0,0.0,0.0,0.0,0.0,0.0,0.0,0.0,3.8227,3.9326,0.0,4.4079,4.5957,4.78,4.9644,5.1505,5.208,5.2452,5.2858,5.2909,5.3163,5.3956,5.4362,5.4905,5.5649,5.57,5.5731,5.6035,5.5869,5.6055,5.6782,5.6089,5.5902,5.6258,5.5902,5.553,5.5158,5.5158,5.4769,5.4042,5.4042,5.3856,5.3501,5.3501,5.3501,5.3501,5.3501,5.3501,5.3382,5.2215,5.1758,5.1623,5.0524,4.9881,4.9492,0.0,0.0,0.0,2.2388,2.2321,2.231,2.231,2.231,2.231,2.231,2.346,2.4458,2.4915,2.5744,2.6268,2.6268,2.6674,2.818,3.1207,3.3339,3.5707,3.843,3.9817,4.0798,4.1407,4.0967,4.1238,4.2286,4.1847,4.232,4.3656,4.3792,4.4604,4.5923,4.621,4.6784,4.7478,4.8233,4.871,4.9026,4.9311,4.9508,4.9522,4.815,4.6903,4.5805,4.4908,4.3893,4.2828,4.1919,4.1696,4.1856,4.2316,4.1806,4.0902,4.0112,3.9405,0.0,0.0,0.0,0.0,0.0,0.0,0.0,0.0,0.0,3.6366,3.8345,3.958,4.0849,4.2625,4.4807,4.6836,4.8325,4.9661,5.0997,5.2334,5.2536,5.2773,5.3433,5.3467,5.3618,5.4039,5.4785,5.5532,5.6089,5.6481,5.6684,5.6693,5.6305,5.6681,5.7848,5.6748,5.6427,5.7002,5.6427,5.6072,5.5919,5.5919,5.5463,5.4583,5.4583,5.4194,5.3501,5.3501,5.3501,5.3501,5.3501,5.3501,5.345,5.279,5.2536,5.2418,5.1386,5.0608,4.9982,0.0,0.0,0.0,0.0,0.0,2.231,2.231,2.231,2.231,2.231,2.3004,2.3308,2.275,2.39,2.476,2.476,2.6539,2.8975,3.1968,3.3626,3.6383,4.0663,4.161,4.2083,4.2168,4.2743,4.2794,4.2286,4.2878,4.3606,4.4468,4.5145,4.5889,4.6718,4.8054,4.9035,4.9763,5.0515,5.1597,5.276,5.1473,5.1339,5.1844,5.0997,4.9049,4.6481,4.5077,4.3234,4.1612,4.2718,4.1864,4.0842,4.3822,4.3394,4.1917,4.2297,0.0,3.9018,3.7589,3.6431,3.574,3.6265,3.6468,3.7212,0.0,0.0,4.0713,4.161,4.347,4.5043,4.528,4.7141,4.912,5.0608,5.1522,5.2367,5.3247,5.3365,5.3399,5.3501,5.35,5.4174,5.5896,5.4649,5.485,5.7476,5.7679,5.7712,5.7729,5.7679,5.7729,5.7881,5.7729,5.7679,5.7763,5.7695,5.7323,5.6681,5.6681,5.5953,5.4583,5.4583,5.4194,5.3501,5.3501,5.3501,5.3501,5.3501,5.3501,5.3501,5.3399,5.3365,5.3112,5.0997,5.0168,4.9982,0.0,0.0,0.0,0.0,0.0,2.231,2.231,2.231,2.231,2.231,2.2581,2.2649,2.2344,2.2852,2.3464,2.4104,2.6009,2.8619,3.2053,3.4506,3.7432,4.1052,4.1914,4.2489,4.2929,4.2828,4.3267,4.4282,4.4164,4.4705,4.5889,4.7067,4.8014,4.8787,5.028,5.1389,5.2122,5.2887,5.3309,5.3494,5.3282,5.3116,5.2892,5.1614,4.9536,4.7143,4.6031,4.4249,0.0,4.2317,4.1782,4.1541,4.3691,4.3453,4.2442,4.2468,4.1065,0.0,3.7902,3.7244,0.0,0.0,3.876,4.0319,4.1545,4.2501,4.346,4.4682,4.6024,4.7259,4.8105,4.9712,5.1133,0.0,5.2503,5.3129,5.345,5.3501,5.3501,5.3501,5.3534,5.3835,5.4656,5.553,5.7335,6.0291,5.8886,5.818,5.8767,5.8186,5.7881,5.7881,5.7881,5.7881,5.7881,5.7881,5.7746,5.7442,5.7442,5.6884,5.5886,5.5886,5.5243,5.411,5.3687,5.3501,5.3501,5.3501,5.3501,5.3501,5.3501,5.3501,5.3331,5.1894,5.1386,5.1268,0.0,0.0,0.0,0.0,0.0,2.2388,2.231,2.231,2.231,2.231,2.231,2.231,2.231,2.231,2.2626,2.3388,2.5071,2.7672,3.1444,3.4303,3.7449,4.1052,4.1914,4.2844,4.4028,4.3521,4.4147,4.6007,4.5669,4.6242,4.7715,4.9033,5.0136,5.1127,5.243,5.3425,5.4171,5.4703,5.483,5.4755,5.4864,5.4545,5.3877,5.205,4.9857,4.7579,4.5999,4.3775,4.1457,4.0612,4.0435,4.0836,4.2336,4.2631,4.2436,4.2573,4.1252,3.9487,3.8356,0.0,0.0,3.9508,4.1432,4.3311,4.3732,4.4797,4.6124,4.7429,4.846,4.9458,5.0507,5.1758,5.2638,5.2638,5.3129,5.3501,5.3501,5.3501,5.3416,5.3145,5.2825,5.289,5.3461,5.6132,5.9157,6.2141,5.9644,5.8309,5.9343,5.8479,5.7881,5.7881,5.7881,5.7881,5.7881,5.7881,5.7881,5.7881,5.7881,5.7509,5.6799,5.6376,5.5615,5.4549,5.3822,5.3501,5.3501,5.3501,5.3501,5.3501,5.3501,5.3501,5.3433,5.2858,5.2486,5.2198,0.0,0.0,0.0,0.0,0.0,2.2599,2.2349,2.231,2.231,2.231,2.231,2.231,2.231,2.231,2.231,2.2344,2.3697,2.615,2.9922,3.2273,3.5808,4.0984,4.1914,4.3352,4.5585,4.5618,4.5974,4.6752,4.7462,4.8558,5.0038,5.0835,5.2022,5.3424,5.4185,5.5009,5.5739,5.5703,5.6526,5.7747,5.6241,5.5592,5.5302,5.2868,5.0449,4.7801,4.4214,4.0482,3.727,3.7179,3.72,3.7618,3.9641,4.0913,0.0,4.3105,4.1939,4.0184,0.0,0.0,4.128,4.3553,4.4817,4.5892,4.7296,4.8288,4.9052,4.983,5.115,5.2181,5.2232,5.2909,5.3467,5.3467,5.3484,5.3501,5.3501,5.3501,5.3162,5.2166,5.1195,5.138,0.0,5.6161,5.9166,6.2141,5.9582,5.8304,5.9343,5.8479,5.7881,5.7881,5.7881,5.7881,5.7881,5.7881,5.7881,5.7881,5.7881,5.7509,5.6748,5.531,5.4634,5.4549,5.3822,5.3501,5.3501,5.3501,5.3501,5.3501,5.3501,5.3501,5.3501,5.3467,5.2976,5.2198,0.0,0.0,0.0,0.0,0.0,0.0,2.2563,2.2398,2.231,2.231,2.231,0.0,0.0,0.0,0.0,0.0,2.3955,2.5706,2.7689,3.1343,3.4624,3.7381,4.0121,4.2151,4.342,4.3927,4.5043,4.6786,4.7056,4.8148,5.005,5.1868,5.3282,5.4335,5.6613,5.7813,5.8032,5.8055,5.833,5.8611,5.6485,5.5942,5.5933,5.195,4.8882,4.6214,0.0,3.9499,3.7576,3.6787,3.6327,3.6389,3.7921,3.8377,3.8564,3.9496,4.0419,4.1197,0.0,0.0,4.3799,4.6063,4.7599,4.899,5.0488,5.1415,5.1842,5.1666,5.0844,5.0118,5.0118,5.0338,5.0676,5.115,5.252,5.3501,5.3501,5.4346,5.411,5.1727,5.2539,0.0,0.0,0.0,0.0,6.0194,5.8254,5.8022,6.052,5.937,5.8863,5.9336,5.9353,5.9353,5.9353,5.9353,5.9116,5.8626,5.8118,5.7763,5.7492,5.6511,5.6055,5.5987,5.4752,5.4228,5.4194,5.3704,5.3501,5.3501,5.3501,5.3501,5.3501,5.3501,5.3331,5.3061,0.0,0.0,0.0,0.0,0.0,0.0,0.0,0.0,0.0,0.0,0.0,0.0,0.0,0.0,0.0,0.0,0.0,2.4821,2.6394,2.9411,3.2281,3.4675,3.7079,3.9097,4.072,4.0796,4.2142,4.4864,4.5063,4.6475,4.9099,5.117,5.2844,5.4208,5.6456,5.7648,5.7905,5.7611,5.7336,5.6877,5.473,5.3665,5.2913,4.8912,4.5883,0.0,3.9845,3.7893,3.6757,3.574,3.5407,3.5521,3.6355,3.7186,3.8002,3.88,4.076,4.2959,0.0,4.5684,4.7308,4.9585,5.1113,5.2347,5.3348,5.3691,5.3505,5.2529,5.07,4.9206,4.8618,4.8354,4.8545,4.9543,5.0947,5.2283,5.3348,5.4076,5.389,5.2232,5.3596,5.3966,0.0,0.0,0.0,5.8682,5.7651,5.8106,6.074,5.9945,5.9624,6.008,6.0097,6.0097,6.0097,5.9844,5.9336,5.8609,5.8118,5.7881,5.7865,5.7137,5.6664,5.6342,5.5124,5.4448,5.416,5.3704,5.3501,5.3501,5.3501,5.3501,5.3501,5.3501,5.3501,5.3501,0.0,0.0,0.0,0.0,0.0,0.0,0.0,0.0,0.0,0.0,0.0,0.0,0.0,0.0,0.0,0.0,0.0,0.0,2.5777,2.6692,2.886,3.2792,3.3054,3.4521,3.7603,3.6558,3.7724,4.1227,4.1685,4.3698,4.7029,4.8658,5.062,5.2803,5.3683,5.4509,5.517,5.4418,5.3647,5.2803,5.1114,4.9058,4.6728,4.425,4.1864,3.9533,3.7147,0.0,0.0,0.0,0.0,0.0,0.0,0.0,4.0139,4.1075,4.3075,4.548,4.7902,4.9735,5.155,5.394,5.5138,5.5703,5.5772,5.5079,5.3952,5.2342,5.0777,4.9232,0.0,0.0,4.7217,4.8707,4.9192,5.0362,5.3313,5.3143,5.2957,0.0,0.0,0.0,0.0,0.0,0.0,5.7984,0.0,5.8598,6.0131,6.0182,6.0182,6.0216,6.0216,6.0216,6.0216,5.9505,5.8727,5.7949,5.7949,5.7932,5.7865,5.7171,5.6478,5.5784,5.4989,5.4279,5.367,5.3551,5.3518,5.3551,5.3518,5.3501,5.3501,5.3501,5.3501,5.3501,0.0,0.0,0.0,0.0,0.0,0.0,0.0,0.0,0.0,0.0,0.0,0.0,0.0,0.0,0.0,0.0,0.0,0.0,2.3544,2.534,2.6966,2.8258,3.0425,3.2459,3.4438,3.4742,3.6173,3.8818,3.9503,4.0895,4.2843,4.4484,4.5802,4.6966,4.8967,4.9976,5.016,4.9939,4.9738,4.9315,4.6489,4.5333,4.4984,4.1956,4.0065,3.8762,0.0,0.0,0.0,0.0,0.0,0.0,0.0,0.0,4.1313,4.392,4.6416,4.8875,5.1298,5.2795,5.4044,5.5778,5.5957,5.5939,5.6426,5.4979,5.3117,5.1538,4.832,4.5269,0.0,0.0,0.0,4.8017,5.1464,0.0,5.6711,5.778,0.0,0.0,0.0,5.8817,5.8355,5.8403,0.0,0.0,5.9004,5.9022,6.1714,6.1281,6.1247,6.1789,6.1806,6.1806,6.1806,6.1078,6.0047,5.8727,5.8727,5.844,5.7881,5.7695,5.7509,5.7256,5.5987,5.5632,5.5835,5.4177,5.3822,5.4262,5.3721,5.3501,5.3501,5.3501,5.3501,5.3501,0.0,0.0,0.0,0.0,0.0,0.0,0.0,0.0,0.0,0.0,0.0,0.0,0.0,0.0,0.0,0.0,0.0,0.0,0.0,2.4112,2.52,2.605,2.7316,2.8744,3.0344,3.0965,3.2349,3.4526,3.5883,3.722,3.857,4.0218,4.1375,4.2139,4.3846,4.5021,4.5645,4.5296,4.5149,0.0,0.0,4.124,4.0781,3.8579,3.7257,0.0,0.0,0.0,0.0,0.0,0.0,3.9331,4.0873,4.2451,4.4323,4.7205,0.0,5.1628,5.3683,5.4911,5.5858,5.7024,5.6794,5.6041,5.5375,5.3916,5.1827,4.881,4.6319,0.0,0.0,0.0,0.0,0.0,0.0,0.0,5.7805,5.8899,5.9484,0.0,6.0802,0.0,6.1042,6.131,6.1957,0.0,6.0917,6.0558,6.2934,6.2616,6.2563,6.2973,6.2581,6.2229,6.1924,6.1163,6.0182,5.9015,5.8676,5.8287,5.7881,5.7881,5.7712,5.7357,5.6545,5.6241,5.6207,5.4634,5.4228,5.4515,5.3788,5.3501,5.3501,5.3501,5.3501,5.3501,0.0,0.0,0.0,0.0,0.0,0.0,0.0,0.0,0.0,0.0,2.2996,2.2746,0.0,0.0,0.0,0.0,0.0,0.0,0.0,0.0,0.0,2.5181,2.4557,2.4905,2.641,2.6895,2.8021,0.0,0.0,3.3385,3.4385,3.5954,3.7055,3.7771,3.856,3.9772,4.113,4.0432,4.0212,4.0175,3.8652,3.7221,3.5881,0.0,0.0,0.0,0.0,0.0,0.0,0.0,4.1644,4.2323,4.4635,4.6452,4.8251,5.071,5.2509,5.4032,5.5629,5.6675,5.7428,5.8015,5.7483,5.6143,5.3628,5.216,5.005,4.548,0.0,4.3563,4.0599,0.0,4.4716,4.6447,0.0,5.335,5.8146,5.8788,5.9701,6.2092,6.2929,6.3418,6.3526,6.4071,6.4691,6.537,6.3484,6.2755,6.4002,6.3938,6.3846,6.3846,6.3107,6.2378,6.1512,6.09,6.0112,5.915,5.8609,5.8344,5.8371,5.8269,5.795,5.7392,5.7063,5.669,5.606,5.5143,5.4786,5.4803,5.3974,5.3703,5.3754,5.3602,5.3551,5.3601,0.0,0.0,0.0,0.0,0.0,0.0,0.0,0.0,0.0,0.0,2.3482,2.3038,0.0,0.0,0.0,0.0,0.0,0.0,0.0,0.0,0.0,0.0,2.4263,2.463,2.5605,0.0,0.0,0.0,0.0,0.0,3.1054,3.2008,3.2522,3.2687,3.3513,3.4394,3.5275,3.5128,3.5459,3.5962,3.5037,3.4486,3.4211,0.0,0.0,0.0,0.0,0.0,0.0,0.0,4.4415,4.6379,4.8177,4.9848,5.1628,5.4051,5.5445,5.6547,5.8143,5.9171,5.9648,5.9134,5.7905,5.5996,5.2913,4.9994,0.0,0.0,0.0,4.0671,3.9499,4.1843,0.0,4.7908,0.0,0.0,0.0,0.0,6.2939,0.0,0.0,0.0,0.0,0.0,0.0,0.0,6.6281,6.5428,6.4817,6.4796,6.4799,6.4799,6.4614,6.3851,6.2378,6.2862,6.201,5.9928,6.0452,6.0768,6.0842,6.0203,6.0215,6.0645,5.8689,5.8047,5.8374,5.637,5.5869,5.6275,5.4938,5.4802,5.5189,5.3955,5.3881,5.431,0.0,0.0,0.0,0.0,0.0,0.0,0.0,2.419,2.419,2.419,2.3917,2.3606,2.3312,2.323,2.3087,0.0,0.0,0.0,0.0,0.0,0.0,0.0,0.0,0.0,0.0,0.0,0.0,0.0,0.0,0.0,0.0,0.0,0.0,0.0,0.0,0.0,0.0,3.2999,3.3642,3.4357,3.3954,0.0,0.0,0.0,0.0,0.0,0.0,0.0,0.0,0.0,4.469,4.8251,5.1169,5.3188,5.4895,5.6895,5.7758,5.8327,5.952,6.0126,6.0217,5.941,5.7373,5.4601,5.0912,0.0,0.0,0.0,0.0,3.981,3.901,0.0,0.0,0.0,0.0,0.0,0.0,0.0,0.0,0.0,0.0,0.0,0.0,0.0,0.0,0.0,0.0,6.7341,6.6469,6.5948,6.5864,6.6252,6.5424,6.4817,6.4479,6.4058,6.3188,6.2057,6.2057,6.2108,6.2178,6.134,6.1166,6.1494,5.9907,5.9435,5.968,5.8194,5.7756,5.7964,5.6918,5.6394,5.6247,5.5549,5.5209,5.5154,0.0,0.0,0.0,0.0,0.0,0.0,2.419,2.419,2.419,2.419,2.419,2.4094,2.3837,2.3522,2.3277,0.0,0.0,0.0,0.0,0.0,0.0,0.0,0.0,0.0,0.0,0.0,0.0,0.0,0.0,0.0,0.0,0.0,0.0,0.0,0.0,0.0,0.0,0.0,0.0,0.0,0.0,0.0,0.0,0.0,0.0,0.0,0.0,0.0,0.0,0.0,4.3589,4.77,5.161,5.4546,5.6767,5.7868,5.8914,5.9869,6.0493,6.0915,6.0951,5.9979,5.7042,5.3335,4.9242,4.6177,0.0,0.0,0.0,3.9441,3.8817,0.0,0.0,0.0,0.0,0.0,0.0,0.0,0.0,0.0,0.0,0.0,0.0,0.0,0.0,0.0,6.9064,6.888,6.8238,6.7552,6.7378,6.7719,6.6493,6.5953,6.6269,6.5059,6.4308,6.4096,6.3541,6.3385,6.3556,6.2533,6.2167,6.2331,6.1188,6.0658,6.0605,5.9863,5.9554,5.9484,5.8704,5.8023,5.7374,5.7025,5.6599,5.6286,0.0,0.0,0.0,0.0,0.0,0.0,2.419,2.419,2.419,2.419,2.419,2.419,2.4151,2.3837,2.3522,0.0,0.0,0.0,0.0,0.0,0.0,0.0,0.0,0.0,0.0,0.0,0.0,0.0,0.0,0.0,0.0,0.0,0.0,0.0,0.0,0.0,0.0,0.0,0.0,0.0,0.0,0.0,0.0,0.0,0.0,0.0,0.0,0.0,0.0,0.0,0.0,4.3442,4.6746,5.1426,5.5592,5.5005,0.0,0.0,6.1465,6.2585,6.3374,6.1777,5.785,5.3335,4.9242,0.0,0.0,0.0,3.8762,3.8799,3.8707,3.9478,0.0,0.0,0.0,4.8655,0.0,0.0,0.0,0.0,0.0,0.0,0.0,0.0,0.0,0.0,6.9577,6.9963,6.9871,6.9797,6.9466,6.8768,6.8604,6.7883,6.6373,6.6229,6.5734,6.4893,6.4822,6.5258,6.5995,6.4428,6.4124,6.4853,6.2512,6.1474,6.1418,6.0629,6.0308,6.0237,5.9501,5.9131,5.879,5.7409,5.7293,5.7801,0.0,0.0,0.0,0.0,0.0,0.0,2.419,2.419,2.419,2.419,2.419,2.419,2.419,2.4074,2.3955,2.3816,2.35,0.0,0.0,0.0,0.0,0.0,0.0,0.0,0.0,0.0,2.764,2.7328,0.0,0.0,0.0,0.0,0.0,0.0,0.0,0.0,0.0,0.0,0.0,0.0,0.0,0.0,0.0,0.0,0.0,0.0,0.0,0.0,0.0,0.0,0.0,0.0,4.1644,4.5259,0.0,0.0,5.6785,5.985,6.1796,6.3558,6.431,6.2126,5.796,5.3335,4.9242,0.0,4.1038,3.9111,3.8303,3.812,3.8615,3.856,3.935,4.2103,4.2396,4.4488,0.0,0.0,0.0,0.0,0.0,0.0,0.0,0.0,0.0,0.0,7.1101,7.1339,7.0862,6.9908,6.9449,6.9614,6.8678,6.811,6.7903,6.7411,6.7024,6.6605,6.6605,6.6562,6.6445,6.577,6.5148,6.453,6.3557,6.2798,6.2324,6.1969,6.1842,6.1824,6.1498,6.1113,6.0541,5.9971,5.9623,5.9534,0.0,0.0,0.0,0.0,0.0,2.419,2.419,2.419,2.419,2.419,2.419,2.419,2.419,2.419,2.419,2.419,2.3896,0.0,0.0,0.0,0.0,0.0,0.0,0.0,0.0,0.0,2.8154,2.8154,2.9531,3.0026,0.0,0.0,0.0,0.0,0.0,0.0,0.0,0.0,0.0,0.0,0.0,0.0,0.0,0.0,0.0,0.0,0.0,0.0,0.0,0.0,0.0,0.0,0.0,0.0,0.0,0.0,5.4454,5.7886,6.0639,6.2952,6.409,6.2089,5.7795,5.3041,0.0,0.0,4.0653,3.9038,3.8248,3.8028,3.8597,3.823,3.8487,4.0432,4.0469,4.2066,4.7223,0.0,0.0,0.0,0.0,0.0,0.0,0.0,0.0,7.1248,7.2055,7.2055,7.1009,6.9871,6.9412,6.9724,6.8641,6.8201,6.855,6.7981,6.7687,6.7687,6.7687,6.7393,6.6843,6.6604,6.5742,6.4439,6.42,6.3613,6.2805,6.2805,6.2805,6.2805,6.2805,6.231,6.1594,6.1594,6.1245,6.0841,0.0,0.0,0.0,0.0,0.0,2.419,2.419,2.419,2.419,2.419,2.419,2.419,2.419,2.419,2.419,2.419,2.3896,0.0,0.0,0.0,0.0,0.0,0.0,0.0,0.0,0.0,2.8975,2.8975,2.9806,3.0595,3.1347,3.0577,3.021,0.0,0.0,0.0,0.0,0.0,0.0,0.0,0.0,0.0,0.0,0.0,0.0,0.0,0.0,0.0,0.0,0.0,0.0,0.0,0.0,0.0,0.0,0.0,5.0545,5.5978,5.7611,6.0401,6.264,6.1814,5.7373,5.2362,0.0,4.458,4.0653,3.9038,3.8689,3.8689,3.8707,3.8689,3.8964,3.9772,4.0579,4.2506,4.6525,0.0,0.0,0.0,0.0,0.0,0.0,0.0,0.0,7.1248,7.2055,0.0,7.0201,7.0091,6.9724,6.8953,6.8898,6.8513,6.7705,6.7687,6.7687,6.7687,6.7687,6.7687,6.765,6.6861,6.6054,6.5246,6.4439,6.3613,6.2805,6.2805,6.2805,6.2805,6.2805,6.231,6.1594,6.1594,6.1575,6.1575,0.0,0.0,0.0,0.0,0.0,0.0,2.419,2.419,2.419,2.419,2.419,2.419,2.419,2.419,2.419,2.419,2.4094,0.0,0.0,0.0,0.0,0.0,0.0,0.0,0.0,2.8338,2.925,2.9824,3.1182,3.1696,3.1403,3.1696,3.1256,3.0173,0.0,0.0,0.0,0.0,0.0,0.0,0.0,0.0,0.0,0.0,0.0,0.0,0.0,0.0,0.0,0.0,0.0,0.0,0.0,0.0,0.0,3.9368,4.5112,0.0,5.2637,5.5427,5.7409,5.55,5.2858,4.9866,4.6599,4.3387,4.0653,3.9038,3.8707,3.8707,3.8707,3.8707,3.9331,4.1222,4.1754,4.2947,4.5883,0.0,0.0,0.0,0.0,0.0,0.0,0.0,7.1266,7.2074,7.2367,7.1798,7.0183,7.0091,6.9724,6.8935,6.8366,6.8219,6.8513,6.7962,6.7687,6.7687,6.7687,6.7393,6.688,6.7173,6.6274,6.4494,6.4787,6.4127,6.2805,6.2805,6.2805,6.2805,6.2805,6.2658,6.242,6.242,6.242,6.242,0.0,0.0,0.0,0.0,0.0,0.0,2.419,2.419,2.419,2.419,2.419,2.419,2.419,2.419,2.419,2.419,2.419,0.0,0.0,0.0,0.0,0.0,0.0,0.0,2.7328,2.8136,2.9402,3.1109,3.2118,3.2816,3.3238,3.3421,3.2669,3.1072,3.0265,2.9586,0.0,0.0,0.0,0.0,0.0,0.0,3.3385,0.0,0.0,0.0,0.0,0.0,0.0,0.0,0.0,0.0,0.0,0.0,0.0,0.0,4.0414,4.5241,0.0,5.1096,5.3427,5.1922,5.0086,0.0,4.5314,4.2616,4.0286,3.8982,3.8707,3.8707,3.8707,3.8707,3.9203,4.0708,4.146,4.269,4.5112,0.0,0.0,0.0,0.0,0.0,0.0,0.0,7.1523,7.2018,7.2055,7.1486,7.0165,6.9816,6.9559,6.9357,6.8274,6.7926,6.844,6.7944,6.7687,6.7687,6.7687,6.743,6.6971,6.7467,6.6531,6.4585,6.5081,6.4365,0.0,6.2805,6.2805,6.2805,6.2805,6.2805,6.2805,6.2805,6.2805,6.2805,0.0,0.0,0.0,0.0,0.0,0.0,0.0,2.419,2.419,2.419,2.419,2.419,2.419,2.419,2.419,2.419,2.419,0.0,0.0,0.0,0.0,0.0,0.0,0.0,2.6594,2.7438,2.9402,3.2522,3.2706,3.3954,3.6193,3.5459,3.4183,3.2577,3.1751,3.0503,0.0,0.0,0.0,0.0,3.2284,3.2614,0.0,0.0,0.0,0.0,0.0,0.0,0.0,0.0,0.0,0.0,0.0,0.0,0.0,0.0,0.0,0.0,0.0,4.704,5.0105,5.005,4.8343,4.6305,4.4727,4.2062,0.0,0.0,0.0,3.8726,3.8781,3.8744,3.8781,3.9001,4.0267,4.2084,4.4617,0.0,0.0,0.0,0.0,0.0,0.0,6.9889,7.1303,7.1229,7.1229,7.0899,7.0128,6.9339,6.9247,6.9981,6.8495,6.7724,6.7779,6.7724,6.7687,6.7687,6.7687,6.7687,6.7687,6.7632,6.6769,6.5319,6.5246,6.431,6.2805,6.2805,6.2805,6.2805,6.2805,6.2805,6.2805,6.2805,6.2805,6.2805,0.0,0.0,0.0,0.0,0.0,0.0,0.0,0.0,0.0,0.0,2.419,2.419,2.419,2.419,2.419,0.0,0.0,0.0,0.0,0.0,0.0,0.0,0.0,0.0,2.6594,2.7989,2.9696,3.1678,3.355,3.4715,3.5302,3.5789,3.478,3.2577,3.1751,3.0503,0.0,0.0,0.0,0.0,3.2284,3.2614,0.0,0.0,0.0,0.0,3.2889,3.3293,0.0,0.0,0.0,0.0,0.0,0.0,0.0,0.0,3.4945,3.6201,3.7845,0.0,4.324,4.2616,4.2682,4.2582,0.0,0.0,0.0,0.0,0.0,0.0,3.9496,3.9111,3.9515,4.1956,4.2176,4.3296,4.6948,0.0,0.0,0.0,0.0,0.0,0.0,6.9889,7.1046,7.044,7.0385,7.0293,7.011,6.9339,6.899,6.9192,6.8219,6.7999,6.8605,6.7999,6.7687,6.7687,6.7687,6.7687,6.7669,6.7063,6.6237,6.5283,6.4659,6.3778,6.2805,6.2805,6.2805,6.2805,6.2805,6.2805,6.2805,6.2805,6.2805,6.2805,0.0,0.0,0.0,0.0,0.0,0.0,0.0,0.0,0.0,0.0,2.419,2.419,2.419,2.419,2.419,0.0,0.0,0.0,0.0,0.0,0.0,0.0,0.0,2.5217,2.6025,2.764,2.9604,3.1953,3.3982,3.5559,3.6707,3.6798,3.5532,3.3073,3.1146,2.9824,2.9012,2.9475,3.0118,3.0907,3.1733,0.0,0.0,0.0,0.0,0.0,3.3146,3.344,0.0,3.3733,3.4009,3.4357,0.0,0.0,0.0,0.0,3.4651,3.5716,3.6174,3.8377,4.0524,4.0469,4.0904,4.12,4.0607,0.0,0.0,0.0,0.0,0.0,0.0,0.0,0.0,4.1552,4.2727,4.5333,0.0,0.0,0.0,0.0,0.0,0.0,0.0,7.033,7.0825,6.9633,6.9559,6.9559,6.9559,6.8788,6.8513,6.8898,6.8109,6.7907,6.8348,6.7907,6.7687,6.7687,6.7687,6.7504,6.7118,6.6696,6.5852,6.4732,6.4292,6.3613,6.2805,6.2805,6.2805,6.2805,6.2805,6.2805,6.2805,6.2805,6.2805,6.2805,0.0,0.0,0.0,0.0,0.0,0.0,0.0,0.0,0.0,0.0,0.0,0.0,0.0,0.0,0.0,0.0,0.0,0.0,0.0,0.0,0.0,0.0,2.419,2.4685,2.5752,2.709,2.9384,3.2614,3.433,3.6285,3.834,3.801,3.6395,3.366,3.0705,2.931,2.9177,2.9049,2.9622,3.0613,3.1182,0.0,0.0,0.0,0.0,0.0,0.0,0.0,0.0,3.4468,3.4715,3.4807,3.4807,0.0,0.0,0.0,0.0,0.0,3.645,3.8248,4.0194,4.0634,4.085,4.0937,0.0,0.0,0.0,0.0,0.0,0.0,0.0,0.0,0.0,0.0,0.0,0.0,0.0,0.0,0.0,0.0,0.0,0.0,6.9357,7.033,7.033,6.8843,6.8715,6.877,6.8898,6.8128,6.8054,6.888,6.8109,6.7687,6.7687,6.7687,6.7632,6.7504,6.7504,6.71,6.6311,6.6182,6.5375,6.409,6.3961,6.3484,6.2805,6.2805,6.2805,6.2805,6.2805,6.2805,6.2805,6.2805,6.2805,6.2805,0.0,0.0,0.0,0.0,0.0,0.0,0.0,0.0,0.0,0.0,0.0,0.0,0.0,0.0,0.0,0.0,0.0,0.0,0.0,0.0,0.0,2.419,2.419,2.5199,2.7365,2.7658,2.9384,3.2614,3.4945,3.6303,3.6707,3.8615,3.7477,3.3715,3.1861,3.065,2.9971,2.9287,3.0241,3.2192,3.1623,0.0,0.0,0.0,0.0,0.0,0.0,0.0,0.0,3.3164,3.3421,3.399,3.399,0.0,0.0,0.0,0.0,0.0,3.711,3.9074,4.0634,3.9386,3.9741,4.0166,0.0,0.0,0.0,0.0,0.0,0.0,0.0,0.0,0.0,0.0,0.0,0.0,0.0,0.0,0.0,0.0,0.0,6.8898,6.6292,6.7999,6.888,6.7944,6.7871,6.8183,6.8862,6.8128,6.8054,6.888,6.8109,6.7687,6.7687,6.7687,6.7357,6.6678,6.6678,6.6256,6.5466,6.4769,6.4328,6.4053,6.3319,6.2934,6.2805,6.2805,6.2805,6.2805,6.2805,6.2805,6.2805,6.2805,6.2805,6.2805,0.0,0.0,0.0,0.0,0.0,0.0,0.0,0.0,0.0,0.0,0.0,0.0,0.0,0.0,0.0,0.0,0.0,0.0,0.0,0.0,2.4392,2.4814,2.4832,2.5566,2.7126,2.8851,3.1109,3.389,3.6395,3.7826,3.8212,3.711,3.5128,3.243,3.0815,3.0136,3.0155,2.9347,3.0155,3.1916,0.0,0.0,0.0,0.0,0.0,0.0,0.0,0.0,0.0,0.0,3.3788,3.4376,3.3935,0.0,0.0,0.0,0.0,0.0,3.7276,3.8927,4.0267,3.9533,4.0688,0.0,0.0,0.0,0.0,0.0,0.0,0.0,0.0,0.0,0.0,0.0,0.0,0.0,0.0,0.0,0.0,0.0,0.0,6.7742,6.6696,6.7999,6.8568,6.7742,6.7687,6.7852,6.8219,6.7889,6.7669,6.7614,6.7228,6.6843,6.6402,6.6402,6.6439,6.6494,6.6054,6.543,6.464,6.4255,6.3833,6.3392,6.2989,6.2805,6.2805,6.2805,6.2805,6.2805,6.2805,6.2805,6.2805,6.2805,6.2805,6.2805,0.0,0.0,0.0,0.0,0.0,0.0,0.0,0.0,0.0,0.0,0.0,0.0,0.0,0.0,0.0,0.0,0.0,0.0,0.0,2.419,2.4557,2.5366,2.5586,2.6319,2.7695,3.0136,3.2761,3.5605,3.7679,3.9111,3.9808,3.6303,3.3697,3.1898,3.0485,2.9989,3.0155,2.9347,2.9934,3.1384,0.0,0.0,0.0,0.0,0.0,0.0,0.0,0.0,0.0,0.0,0.0,0.0,0.0,0.0,0.0,3.5312,3.6046,3.7,3.7606,3.8946,4.0139,3.9937,0.0,0.0,0.0,0.0,0.0,0.0,0.0,0.0,0.0,0.0,0.0,0.0,0.0,0.0,0.0,0.0,0.0,6.5007,6.6182,6.7008,6.7632,6.8256,6.8366,6.7742,6.7687,6.7614,6.7412,6.7595,6.732,6.6531,6.6494,6.62,6.5595,6.5209,6.5338,6.5925,6.5319,6.4585,6.3796,6.3796,6.3429,6.2805,6.2805,6.2805,6.2805,6.2603,6.264,6.2787,6.2603,6.264,6.2805,6.2805,6.2805,6.2805,0.0,0.0,0.0,0.0,0.0,0.0,0.0,0.0,0.0,0.0,0.0,0.0,0.0,0.0,0.0,0.0,0.0,0.0,0.0,2.419,2.4557,2.5366,2.6117,2.7934,3.098,3.1274,3.333,3.7312,3.8248,3.9111,3.9845,3.8065,3.5936,3.3587,3.2742,3.1549,3.0155,2.9347,2.9934,3.1384,3.1384,0.0,0.0,0.0,0.0,0.0,0.0,0.0,0.0,0.0,0.0,0.0,0.0,0.0,3.6211,3.6211,3.7312,3.8542,3.8597,3.979,4.0836,4.0084,0.0,0.0,0.0,0.0,0.0,0.0,0.0,0.0,0.0,0.0,0.0,0.0,0.0,0.0,0.0,0.0,6.5044,6.5283,6.6659,6.7632,6.7687,6.7742,6.7742,6.7687,6.7687,6.7357,6.6623,6.7283,6.732,6.6531,6.6494,6.6476,6.6402,6.4934,6.4218,6.4255,6.42,6.3723,6.2897,6.2897,6.2879,6.2805,6.2805,6.2805,6.275,6.1998,6.2126,6.275,6.1979,6.2144,6.2805,6.2805,6.2805,6.2805,0.0,0.0,0.0,0.0,0.0,0.0,0.0,0.0,0.0,0.0,0.0,2.419,2.419,0.0,0.0,0.0,0.0,0.0,0.0,2.419,2.4557,2.5366,2.6172,2.7879,3.0595,3.2118,3.4651,3.8248,3.9038,3.935,3.9093,3.6431,3.4431,3.2981,3.1182,3.0595,3.0852,2.9549,2.9934,3.1384,3.1384,3.1568,0.0,0.0,0.0,0.0,0.0,0.0,0.0,0.0,3.3807,3.3935,3.4761,3.521,3.5716,3.6725,3.7477,3.8046,3.856,3.9515,4.0396,4.0598,0.0,0.0,0.0,0.0,0.0,0.0,0.0,0.0,0.0,0.0,0.0,0.0,0.0,0.0,0.0,6.3961,6.4751,6.5246,6.5852,6.6219,6.6219,6.6219,6.6219,6.6219,6.6219,6.6072,6.5778,6.6035,6.5833,6.5026,6.5007,6.4751,6.42,6.3613,6.3301,6.3301,6.3301,6.3135,6.2805,6.2805,6.2548,6.2089,6.2585,6.253,6.2071,6.2273,6.2548,6.2787,6.2475,6.2548,6.2805,6.2805,6.2805,6.2805,0.0,0.0,0.0,0.0,0.0,0.0,0.0,0.0,2.419,0.0,0.0,0.0,0.0,2.419,0.0,0.0,0.0,0.0,2.419,2.419,2.4557,2.5366,2.5933,2.7346,2.9769,3.1935,3.478,3.8322,3.9129,3.8982,3.79,3.5642,3.4156,3.3275,3.1384,3.0999,3.1696,3.0338,3.0393,3.1403,3.1678,3.177,0.0,0.0,0.0,0.0,0.0,0.0,0.0,0.0,3.3807,3.399,3.5073,3.5422,3.5697,3.7074,3.7507,3.7551,3.7863,3.8524,3.9331,4.0139,0.0,0.0,0.0,0.0,0.0,0.0,0.0,0.0,0.0,0.0,0.0,0.0,0.0,0.0,6.3099,6.3759,6.4292,6.4861,6.5154,6.5319,6.5319,6.5319,6.5319,6.5319,6.5319,6.5191,6.4934,6.5173,6.4934,6.4127,6.3833,6.3411,6.2823,6.231,6.2053,6.2053,6.2053,6.2328,6.2787,6.2273,6.1887,6.1612,6.1924,6.1741,6.1263,6.1832,6.2199,6.2456,6.2713,6.2805,6.2805,6.2805,6.2805,6.2805,0.0,0.0,0.0,0.0,0.0,0.0,0.0,0.0,2.419,2.419,2.419,0.0,0.0,0.0,0.0,0.0,0.0,0.0,2.419,2.419,2.4557,2.5348,2.5403,2.6521,2.8902,3.0558,3.3385,3.7489,3.8285,3.7863,3.6285,3.6266,3.5826,3.4935,3.4156,3.3348,3.2559,3.1733,3.1384,3.1476,3.2284,3.2614,3.2706,0.0,0.0,0.0,0.0,0.0,0.0,0.0,3.3807,3.4082,3.5771,3.6303,3.645,3.7257,3.7526,3.7331,3.6541,3.689,3.7716,0.0,0.0,0.0,0.0,0.0,0.0,0.0,0.0,0.0,0.0,0.0,0.0,0.0,0.0,6.0676,6.1484,6.3007,6.4053,6.4071,6.4769,6.5264,6.5264,6.5264,6.5264,6.5264,6.5283,6.4934,6.4127,6.4842,6.4897,6.4108,6.3246,6.2787,6.2805,6.1208,6.0401,6.0401,6.0401,6.1245,6.2732,6.1135,6.0823,6.152,6.075,6.0401,6.0401,6.0419,6.0896,6.1686,6.2493,6.2805,6.2805,6.2805,6.2805,6.2805,0.0,0.0,0.0,0.0,0.0,0.0,0.0,0.0,2.419,2.419,2.419,0.0,0.0,0.0,0.0,0.0,0.0,0.0,2.419,2.419,2.43,2.4538,2.5109,2.5752,2.6447,2.9145,3.2265,3.5752,3.6597,3.645,3.5385,3.4816,3.4394,3.4119,3.3311,3.2834,3.2559,3.1733,3.1733,3.2265,3.2504,3.2614,3.2706,0.0,0.0,0.0,0.0,0.0,0.0,0.0,0.0,0.0,3.5771,3.6303,3.656,3.7936,3.834,3.8285,3.8046,0.0,0.0,0.0,0.0,0.0,0.0,0.0,0.0,0.0,0.0,0.0,0.0,0.0,0.0,0.0,5.8198,6.0034,6.141,6.1539,6.1704,6.2254,6.2053,6.1851,6.1851,6.2365,6.2695,6.2695,6.3227,6.3447,6.3209,6.2879,6.286,6.3191,6.1851,6.1392,6.1942,6.0915,6.0401,6.0401,5.9832,6.0107,6.1098,6.0621,6.0236,5.9942,6.0272,6.0089,5.9648,6.0786,6.1722,6.242,6.2089,6.231,6.275,6.2163,6.231,6.2805,0.0,0.0,0.0,0.0,0.0,0.0,2.4478,2.4339,2.419,2.419,2.419,2.419,0.0,0.0,0.0,2.419,2.419,0.0,2.419,2.419,2.419,2.419,2.4649,2.5364,2.634,2.8888,3.1164,3.3109,3.4266,3.4559,3.4037,3.4211,3.4468,3.4761,3.4284,3.4082,3.399,3.2834,3.2632,3.3091,3.3091,3.3091,3.3128,0.0,0.0,0.0,0.0,0.0,0.0,0.0,0.0,0.0,3.5367,3.6028,3.6413,3.7055,3.7477,3.7679,3.7331,0.0,0.0,0.0,0.0,0.0,0.0,0.0,0.0,0.0,0.0,0.0,0.0,0.0,0.0,5.6675,5.8162,5.9557,6.0511,6.0511,6.0584,6.1062,6.0694,6.0401,6.0401,6.0841,6.1117,6.1117,6.1575,6.1851,6.1851,6.1392,6.1355,6.1832,6.0603,6.0162,6.0639,5.985,5.9446,5.9446,5.8969,5.8988,5.9446,5.9446,5.9373,5.9226,5.9373,5.9355,5.93,6.0254,6.1117,6.1814,6.1318,6.1612,6.2273,6.1777,6.2108,6.2805,0.0,0.0,2.501,2.5022,0.0,0.0,2.4543,2.4357,2.4228,2.4228,2.4209,2.419,0.0,0.0,0.0,2.419,2.419,2.419,2.419,2.419,2.419,2.419,2.4263,2.5401,2.775,2.9237,3.0026,3.0099,3.1715,3.2504,3.254,3.4128,3.5312,3.6083,3.6229,3.6211,3.5973,3.4449,3.3807,3.3807,3.3807,3.3807,3.3807,3.3807,0.0,0.0,0.0,0.0,0.0,0.0,0.0,0.0,3.4853,3.5661,3.6174,3.555,3.5899,3.6358,0.0,0.0,0.0,0.0,0.0,0.0,0.0,0.0,0.0,0.0,0.0,0.0,0.0,0.0,0.0,5.6804,5.8143,5.9134,5.9208,5.9777,6.0217,6.0291,6.0236,6.0181,6.0181,6.0254,6.0291,6.0291,6.0364,6.0401,6.0401,6.0346,6.0327,6.0401,5.9557,5.9153,5.9208,5.84,5.7997,5.7997,5.7997,5.7997,5.7997,5.7997,5.84,5.9061,5.8327,5.8455,5.9208,5.9208,5.9685,6.0401,6.0327,6.0786,6.1465,6.141,6.1942,6.2695,0.0,0.0,2.5046,2.5214,0.0,0.0,2.4872,2.4632,2.4445,2.4445,2.4303,2.419,2.419,2.419,0.0,2.419,2.419,2.419,2.419,2.419,2.419,2.419,2.4795,2.5991,2.775,2.8136,2.8631,2.925,3.087,3.1659,3.1678,3.3311,3.4156,3.4394,3.5716,3.5569,3.4302,3.3954,3.3807,3.3807,3.3807,3.3807,3.3807,3.3807,3.3807,0.0,0.0,0.0,0.0,0.0,0.0,0.0,3.555,3.6156,3.6505,3.7588,3.8046,0.0,0.0,0.0,0.0,0.0,0.0,0.0,0.0,0.0,0.0,0.0,0.0,0.0,0.0,0.0,5.7538,5.7703,5.8033,5.8492,5.9116,5.8822,5.8749,5.9391,5.8896,5.851,5.851,5.9098,5.9483,5.9483,6.0052,6.0401,6.0401,5.9813,5.9758,6.0382,5.9006,5.8565,5.9208,5.84,5.7997,5.7997,5.7997,5.7997,5.7997,5.7997,5.8088,5.8253,5.807,5.8455,5.9208,5.9208,5.9685,6.0346,5.9722,5.996,6.0584,5.996,6.0639,6.1851,0.0,0.0,0.0,0.0,0.0,0.0,0.0,0.0,2.4357,2.4357,2.4284,2.419,2.419,2.419,0.0,0.0,2.419,2.419,2.419,2.419,2.4373,2.4759,2.5548,2.6539,2.7769,2.8172,2.8594,2.8994,2.9843,3.065,3.1421,3.2651,3.3642,3.4412,3.5293,3.5202,3.4357,3.3972,3.3807,3.3807,3.3807,3.3807,3.3807,3.3807,3.3807,3.3807,3.3807,0.0,0.0,0.0,0.0,0.0,0.0,0.0,3.5844,3.6688,3.7221,0.0,0.0,0.0,0.0,0.0,0.0,0.0,0.0,0.0,0.0,0.0,0.0,0.0,0.0,5.7997,5.7997,5.7997,5.7997,5.8143,5.8584,5.8253,5.8162,5.8584,5.8253,5.7997,5.7997,5.8382,5.8639,5.8639,5.9006,5.9245,5.9245,5.8859,5.8822,5.9245,5.8437,5.8198,5.8621,5.8217,5.7997,5.7997,5.7997,5.7997,5.7997,5.7997,5.7997,5.7997,5.7997,5.8235,5.8639,5.8639,5.8877,5.9208,5.8804,5.9134,5.9777,5.9373,5.9979,6.1025,0.0,0.0,0.0,0.0,0.0,0.0,0.0,0.0,0.0,2.4284,2.4338,2.4355,2.4208,2.419,2.419,0.0,0.0,0.0,2.419,2.4318,2.4814,2.577,2.6447,2.7181,2.7989,2.8668,2.8994,2.8994,2.8994,2.9824,3.1403,3.2228,3.3411,3.488,3.5027,3.5036,3.4905,3.4249,3.3954,3.3954,3.3876,3.385,3.385,3.3815,3.3807,3.3807,3.3807,3.3807,3.3807,3.3807,0.0,0.0,0.0,0.0,3.5027,3.5174,3.5752,3.6652,0.0,0.0,0.0,0.0,0.0,0.0,0.0,0.0,0.0,0.0,0.0,0.0,5.7611,5.7703,5.7795,5.7795,5.7795,5.7831,5.7978,5.7997,5.7997,5.7997,5.7997,5.7997,5.7997,5.7868,5.785,5.7997,5.7868,5.7795,5.7795,5.7923,5.7941,5.7795,5.7923,5.7997,5.7997,5.785,5.785,5.7997,5.7997,5.7997,5.7997,5.7997,5.7997,5.7997,5.7997,5.7997,5.7997,5.7997,5.7997,5.7997,5.7997,5.8419,5.9006,5.9006,5.952,6.0199,0.0,0.0,0.0,0.0,0.0,0.0,0.0,0.0,0.0,0.0,2.4931,2.4961,2.4281,2.419,2.419,2.419,2.419,2.419,2.419,0.0,0.0,2.7402,2.7567,2.8026,2.881,2.8938,2.8994,2.8994,2.8994,2.9824,0.0,3.2228,3.3209,3.4333,3.5095,3.5165,3.472,3.4647,3.4591,3.4551,3.4265,3.4147,3.4123,3.3876,3.3807,3.3807,3.3807,3.3807,3.3807,3.3807,3.3807,0.0,0.0,0.0,3.5137,3.5899,3.6211,0.0,0.0,0.0,0.0,0.0,0.0,0.0,0.0,0.0,0.0,0.0,0.0,0.0,5.6033,5.6492,5.6969,5.6969,5.6969,5.7207,5.7905,5.7997,5.7997,5.7997,5.7997,5.7997,5.7997,5.7373,5.7262,5.7941,5.7354,5.6969,5.6969,5.7611,5.7685,5.6987,5.7648,5.7997,5.7997,5.7317,5.7317,5.7997,5.7997,5.7997,5.7997,5.7997,5.7997,5.7997,5.7997,5.7997,5.7997,5.7997,5.7997,5.7997,5.7997,5.807,5.8162,5.8162,5.8676,5.9373,0.0,0.0,0.0,0.0,0.0,0.0,0.0,0.0,0.0,0.0,0.0,2.5585,2.4337,2.4593,2.4685,2.4245,2.419,2.4392,2.4832,2.5201,2.6137,2.7714,2.7787,2.8172,2.8975,2.8994,2.8994,2.8994,2.9457,0.0,0.0,3.2687,3.3519,3.4023,3.5058,3.5091,3.4423,3.4632,3.4694,3.4674,3.4529,3.4205,3.3786,3.4162,3.4004,3.3645,3.4134,3.4189,3.4018,3.4018,3.391,3.3862,3.4229,0.0,0.0,0.0,3.5587,0.0,0.0,0.0,0.0,0.0,0.0,0.0,0.0,0.0,0.0,0.0,0.0,5.5482,5.5574,5.5886,5.6271,5.673,5.6804,5.7079,5.7886,5.7611,5.7336,5.7336,5.6932,5.6657,5.6657,5.6326,5.6271,5.662,5.6326,5.6124,5.6124,5.6455,5.6492,5.6143,5.6455,5.6657,5.6657,5.629,5.6528,5.7336,5.7776,5.7997,5.7997,5.7997,5.7997,5.7997,5.7997,5.7997,5.7997,5.7997,5.7997,5.7997,5.7997,5.7997,5.7997,5.7997,5.8217,5.8529,0.0,0.0,0.0,0.0,0.0,0.0,0.0,0.0,0.0,0.0,0.0,2.6282,2.4667,0.0,0.0,0.0,2.4685,2.5144,2.5972,2.6051,2.6718,2.8135,2.8209,2.8485,2.9093,2.9021,2.8994,2.8994,0.0,0.0,3.1421,3.2834,3.3715,0.0,3.538,3.5352,3.4467,0.0,0.0,3.4908,3.4832,3.4415,3.3885,3.4488,3.4297,3.3825,3.4468,3.4529,3.4292,3.4223,3.4068,3.3876,3.3815,3.3807,0.0,0.0,0.0,0.0,0.0,0.0,0.0,0.0,0.0,0.0,0.0,0.0,0.0,0.0,5.3225,5.3959,5.4564,5.5005,5.5482,5.6088,5.6198,5.6473,5.7281,5.6877,5.651,5.651,5.5959,5.5592,5.5592,5.5409,5.5372,5.5574,5.5409,5.5299,5.5299,5.5482,5.55,5.5299,5.5482,5.5592,5.5592,5.5592,5.5794,5.6198,5.7005,5.7501,5.7703,5.7703,5.7813,5.7997,5.7997,5.7997,5.7997,5.7997,5.7997,5.7997,5.7997,5.7997,5.7997,5.7997,5.7997,5.7997,0.0,0.0,0.0,0.0,0.0,0.0,0.0,0.0,0.0,0.0,0.0,2.7108,2.5513,2.6062,2.6209,2.5421,2.6025,2.6814,2.7622,2.7859,2.8388,2.928,2.9336,0.0,2.9392,2.9134,2.8994,2.8994,0.0,0.0,3.1403,3.2284,3.3468,3.5009,3.6405,3.6289,3.5126,0.0,0.0,0.0,3.519,3.5049,3.4977,3.4793,3.4675,3.4637,3.4675,3.4694,3.4632,3.4311,3.4176,3.4147,3.3876,3.3807,3.3807,0.0,0.0,0.0,0.0,0.0,0.0,0.0,0.0,0.0,0.0,0.0,0.0,0.0,5.1555,5.2123,5.2179,5.3427,5.4473,5.4528,5.4528,5.4803,5.5592,5.5684,5.5647,5.5647,5.5611,5.5592,5.5592,5.4913,5.4785,5.5537,5.4876,5.4454,5.4454,5.5188,5.5244,5.4491,5.5188,5.5592,5.5592,5.5592,5.5225,5.4528,5.5335,5.6106,5.6877,5.6877,5.7281,5.7997,5.7997,5.7997,5.7997,5.7997,5.7997,5.7997,5.7997,5.7997,5.7997,5.7997,5.7997,5.7997,0.0,0.0,0.0,0.0,0.0,0.0,0.0,0.0,0.0,0.0,0.0,0.0,0.0,2.6888,2.7101,2.6413,2.6767,2.7397,2.8203,2.8331,2.8742,2.9551,2.9474,2.9412,2.9412,2.9134,2.8994,0.0,0.0,3.0834,3.1439,3.3293,3.4165,3.4293,3.5693,3.6056,3.5628,3.5841,0.0,0.0,3.5595,3.5354,3.5354,3.5239,3.4863,3.4458,0.0,0.0,0.0,3.4783,3.4849,3.5143,3.4314,3.4068,3.4018,3.3868,3.419,3.4909,0.0,0.0,0.0,0.0,0.0,0.0,0.0,0.0,0.0,4.9958,5.0674,5.1224,5.1224,5.2546,5.3812,5.4326,5.4399,5.4675,5.5482,5.5152,5.4821,5.4821,5.4363,5.4069,5.4069,5.3812,5.3757,5.4051,5.3794,5.3628,5.3628,5.3904,5.394,5.3647,5.3922,5.4069,5.4069,5.4564,5.4693,5.4418,5.5207,5.5739,5.6051,5.6565,5.6969,5.7262,5.7776,5.7997,5.7997,5.7997,5.7997,5.7997,5.7997,5.7997,5.7997,5.7997,5.7997,5.7997,0.0,0.0,0.0,2.6807,0.0,2.8906,2.8913,2.9298,2.9437,2.8959,0.0,0.0,0.0,0.0,2.8273,2.7866,2.7987,2.8331,2.8862,2.8966,2.9225,2.9777,2.9678,2.9702,2.9905,2.9397,2.9347,2.9824,3.0613,3.1274,0.0,3.3458,3.4211,3.4238,3.5113,3.5484,0.0,0.0,0.0,3.6661,3.6122,3.6084,3.6353,3.6353,0.0,0.0,0.0,0.0,0.0,3.5609,3.559,3.5834,3.4711,3.4379,3.4334,3.416,3.4288,3.4689,3.5516,0.0,0.0,0.0,0.0,0.0,0.0,0.0,0.0,4.7829,4.9022,4.9958,4.9958,5.1298,5.2674,5.3463,5.3592,5.3885,5.4675,5.3867,5.3298,5.3555,5.3115,5.2803,5.2803,5.3041,5.3206,5.3206,5.3206,5.3206,5.3206,5.3206,5.3206,5.3206,5.3206,5.3206,5.3206,5.3739,5.4014,5.4014,5.4546,5.4932,5.5207,5.5757,5.6143,5.6436,5.695,5.7501,5.7997,5.7997,5.7997,5.7997,5.7997,5.7997,5.7997,5.7997,5.7997,5.7997,2.6467,2.6659,2.6948,2.7794,2.8602,2.914,2.914,2.9627,2.9939,2.9729,0.0,0.0,0.0,0.0,0.0,2.977,2.9789,2.9787,2.9787,2.9984,3.009,3.009,3.009,3.0364,3.094,2.9961,3.0101,3.1384,3.0632,3.1072,3.2614,3.2632,3.3476,3.4972,3.4795,3.4694,3.4848,0.0,3.7469,3.6738,0.0,3.7238,3.8046,0.0,0.0,0.0,3.895,3.8719,0.0,3.6716,3.6362,3.6193,3.5115,3.479,3.479,3.4769,3.4946,3.5129,0.0,0.0,0.0,0.0,0.0,0.0,0.0,0.0,4.2727,4.4342,4.6562,4.8214,4.8233,4.9609,5.0986,5.1756,5.1922,5.2234,5.3023,5.1775,5.1077,5.1867,5.1981,5.1999,5.1995,5.2692,5.3151,5.317,5.3151,5.3151,5.317,5.3206,5.3206,5.3206,5.3206,5.3206,5.3206,5.3206,5.3206,5.3206,5.3206,5.361,5.4363,5.4399,5.4821,5.5556,5.5574,5.6473,5.7923,5.7941,5.7978,5.7997,5.7997,5.7997,5.7997,5.7997,5.7997,5.7997,2.7371,2.8005,2.8467,2.8717,2.9467,3.0044,3.0044,3.001,2.9984,0.0,0.0,0.0,2.9268,3.021,3.1099,3.1743,3.1923,3.1996,3.1996,3.207,3.2096,3.2096,3.1953,3.1863,3.1845,3.1386,3.1218,3.1384,3.177,3.2173,3.2614,3.3201,3.381,3.4433,3.462,3.4812,3.5037,3.5848,0.0,0.0,3.6949,3.7603,0.0,0.0,0.0,0.0,0.0,3.8604,3.8766,0.0,3.78,3.8265,3.7145,3.6805,3.6749,3.6572,3.6691,3.6842,3.6592,0.0,0.0,0.0,0.0,0.0,3.9816,4.0763,4.1901,4.3497,4.4837,4.5883,4.6452,4.7884,4.9058,4.9297,5.0343,5.1206,5.1444,5.1302,5.1138,5.1136,5.1339,5.1619,5.1963,5.1665,5.172,5.2289,5.1793,5.172,5.2307,5.2894,5.3206,5.3206,5.3206,5.3206,5.3206,5.3206,5.3206,5.3206,5.3206,5.3335,5.3555,5.4124,5.4528,5.4748,5.5335,5.5831,5.6308,5.6895,5.7464,5.7997,5.7997,5.7997,5.7997,5.7997,5.7997,5.7997,2.8159,2.8775,2.9198,2.9583,3.0063,3.0398,3.0398,3.0267,3.0136,0.0,0.0,0.0,3.0487,3.1389,3.2168,3.2685,3.2839,3.2891,3.2891,3.2891,3.2891,3.2891,3.2779,3.2768,3.2879,3.2392,3.2266,3.2582,3.2687,3.287,3.3109,3.3587,3.3935,3.42,3.4551,3.4851,0.0,0.0,0.0,0.0,3.745,0.0,0.0,3.9642,3.9354,0.0,0.0,0.0,4.0127,3.8767,3.8511,0.0,0.0,0.0,3.7742,3.7583,3.7655,3.7742,3.7564,0.0,0.0,0.0,0.0,0.0,3.8746,3.951,4.0359,4.1295,4.2671,4.3846,4.4305,4.5718,4.6801,4.6801,4.7902,4.9224,5.0618,5.0509,5.0339,5.0508,5.0657,5.0915,5.1192,5.0959,5.0986,5.1463,5.1059,5.1004,5.1463,5.2179,5.2546,5.255,5.2968,5.3314,5.3542,5.3295,5.3295,5.3444,5.3272,5.3206,5.3225,5.3702,5.3994,5.4183,5.4644,5.5136,5.5689,5.6298,5.6908,5.7538,5.7868,5.7997,5.7997,5.7997,5.7997,5.7997,0.0,2.9236,2.9486,3.0275,3.0398,3.0398,3.0398,3.0398,3.0349,0.0,3.0465,3.0994,3.1847,3.259,3.3083,3.3179,3.3199,3.3199,3.3199,3.3199,3.3199,3.3199,3.3199,3.3445,3.3922,3.3233,3.3335,3.4265,3.3538,3.3436,3.3895,3.3868,3.4012,3.4315,3.4572,3.487,3.5155,0.0,0.0,3.7853,3.7969,3.8988,0.0,0.0,4.1162,4.07,4.2258,4.2316,4.1431,3.9931,3.8911,0.0,0.0,0.0,3.8277,3.8277,3.8277,3.8277,3.8277,3.8095,0.0,0.0,3.8452,0.0,3.873,3.8877,3.8768,3.886,4.0601,4.2161,4.2206,4.3563,4.4665,4.4573,4.5329,4.6967,4.9848,4.9434,4.9094,4.9738,4.994,5.0067,5.0091,5.034,5.0563,5.0655,5.0674,5.0674,5.071,5.1298,5.1628,5.1787,5.2518,5.3185,5.3738,5.3376,5.3354,5.3665,5.3407,5.3295,5.3336,5.323,5.3462,5.3869,5.3814,5.446,5.5621,5.5977,5.6366,5.6838,5.7693,5.7941,5.7886,5.796,5.7997,5.7997,2.991,3.016,3.0198,3.0359,3.0398,3.0398,3.0398,3.0398,3.0629,3.1284,3.1981,3.2666,3.3325,3.3714,3.4237,3.493,3.4988,3.4988,3.4988,3.4988,3.4988,3.4988,3.4988,3.4947,3.4857,3.4685,3.4603,3.4593,3.4442,3.4421,3.4526,3.4242,3.4405,3.4925,3.4774,3.4963,3.5432,0.0,0.0,3.7007,3.7719,0.0,4.0508,4.0681,4.0642,4.0527,4.0893,4.0893,4.07,4.0373,4.0142,4.0008,0.0,0.0,0.0,4.0008,4.0008,4.0008,0.0,0.0,0.0,0.0,0.0,0.0,3.8625,3.8789,3.9212,3.9834,4.056,4.121,4.1657,4.3276,4.4327,4.3606,4.5072,4.6419,4.6783,4.7737,4.8356,4.8184,4.9021,4.974,5.007,4.9288,4.9077,4.9774,4.9811,4.9942,5.0126,5.1044,5.2007,5.2865,5.1786,5.1453,5.2075,5.2823,5.3056,5.2827,5.3404,5.3888,5.4206,5.3542,5.3623,5.4322,5.3941,5.4142,5.4805,5.5517,5.5995,5.6425,5.7571,5.7593,5.7116,5.7758,5.7997,5.7997,3.0167,3.0398,3.0398,3.0398,3.0398,3.0552,3.0987,3.1064,3.1352,3.2199,3.3026,3.3653,3.3973,3.4524,3.5026,3.5468,3.5493,3.5493,3.5493,3.5493,3.5493,3.5493,3.5493,3.5432,3.5304,3.5304,3.5174,3.4908,3.4908,3.4813,3.4694,3.4529,3.4695,3.5107,3.5381,3.5713,3.6142,0.0,3.7238,3.8007,3.8007,0.0,3.9988,4.0835,4.0873,4.0546,4.0989,4.0873,4.0623,4.1489,4.1508,0.0,0.0,4.1143,4.1066,0.0,4.0425,4.0339,0.0,0.0,0.0,4.012,0.0,0.0,0.0,3.9058,3.9152,3.9308,3.9652,4.0083,4.0514,4.16,4.246,4.2617,4.3904,4.4942,4.519,4.6636,4.758,4.7376,4.788,4.8323,4.8527,4.7659,4.7462,4.8288,4.8735,4.8993,4.914,4.9677,5.0194,5.0757,5.0335,5.0424,5.1153,5.251,5.3189,5.322,5.3842,5.4255,5.4503,5.405,5.4206,5.4809,5.456,5.4712,5.5138,5.574,5.5851,5.58,5.7178,5.732,5.6914,5.7703,5.7997,5.7997,3.0206,3.0398,3.0398,3.0398,3.0398,3.0698,3.1564,3.1698,3.2045,3.3026,3.391,3.4449,3.4449,3.5084,3.5565,3.5718,3.5603,3.5641,3.5968,3.568,3.557,3.5718,3.557,3.5493,3.5493,3.5493,3.5383,3.519,3.519,3.5147,3.5078,3.502,3.523,3.5687,3.6112,3.6537,0.0,0.0,0.0,3.8988,0.0,3.8757,3.9681,4.1027,4.1104,4.0585,4.1296,4.1104,4.0739,4.2316,4.2374,4.1835,4.2008,4.195,0.0,0.0,0.0,0.0,0.0,0.0,0.0,0.0,0.0,4.0337,0.0,0.0,0.0,3.8871,0.0,0.0,0.0,0.0,0.0,4.159,4.2521,4.3334,4.3907,4.5205,4.6301,4.6819,4.6876,4.6951,4.7084,4.6424,4.6231,4.6819,4.7566,4.8155,4.8524,4.8379,4.8464,4.8767,4.923,4.9834,5.0545,5.2219,5.3262,5.3582,5.4286,5.4659,5.475,5.4566,5.476,5.5212,5.5134,5.5331,5.572,5.6058,5.5771,5.5236,5.6629,5.6955,5.6772,5.751,5.7868,5.7997,3.0359,3.0398,3.0398,3.0398,3.0398,3.0698,3.1564,3.1698,3.2275,3.3853,3.4814,3.5353,3.5353,3.5449,0.0,0.0,0.0,0.0,3.7623,3.6334,3.5834,3.6526,3.5892,3.5493,3.5493,3.5493,3.5493,3.5446,3.5446,3.5811,3.6473,3.6241,3.6659,3.7617,3.6714,0.0,0.0,0.0,3.7353,0.0,3.8873,3.9642,0.0,4.0566,4.0585,4.0508,4.0604,4.0566,4.0642,0.0,4.1893,4.1931,0.0,4.2431,4.1931,4.2604,0.0,0.0,0.0,0.0,0.0,0.0,4.3101,0.0,0.0,0.0,4.1696,4.0194,0.0,0.0,0.0,0.0,0.0,4.0422,4.1603,4.2383,4.1753,4.246,4.3849,4.61,4.6382,4.6644,4.7367,4.6768,4.6268,4.6048,4.6567,4.763,4.9272,4.8708,4.8964,5.0392,4.9833,4.9663,5.0005,5.176,5.2705,5.2749,5.4299,5.5212,5.5535,5.4838,5.4905,5.5599,5.5237,5.5331,5.5703,5.5737,5.5499,5.5178,5.6011,5.6325,5.6317,5.6779,5.7391,5.7997,3.0398,3.0398,3.0398,3.0398,3.0833,3.1448,3.2275,3.3256,3.4391,3.5757,3.568,3.5743,0.0,0.0,0.0,0.0,0.0,3.6488,0.0,0.0,3.6584,3.743,3.7142,3.6949,3.6949,3.6949,3.6949,3.6949,3.6949,3.7123,3.745,3.7341,3.7548,3.8007,3.8028,0.0,3.8757,0.0,3.9123,0.0,0.0,0.0,0.0,4.0489,4.0489,4.0489,4.0489,4.0835,4.1393,0.0,4.2854,0.0,0.0,0.0,0.0,0.0,0.0,0.0,0.0,0.0,0.0,0.0,0.0,0.0,4.2967,0.0,4.243,0.0,0.0,0.0,0.0,0.0,0.0,0.0,4.1514,4.2142,4.2315,4.22,4.2585,4.3954,4.4541,4.5103,4.5754,4.5951,4.5993,4.5861,4.6102,4.6976,4.871,4.9356,4.9993,5.0684,5.0355,5.026,5.0378,5.2081,5.2954,5.2973,5.466,5.5554,5.5703,5.5331,5.5375,5.5684,5.5512,5.5535,5.5703,5.5703,5.5599,5.5456,5.553,5.5551,5.5618,5.6755,5.7198,5.7373,3.1006,3.0717,3.0494,3.0802,3.1391,3.2122,3.3006,3.4487,3.5815,3.6642,3.6411,0.0,3.7334,3.743,0.0,0.0,0.0,3.7103,0.0,0.0,3.77,3.8334,3.8354,0.0,3.8007,3.8007,3.8007,3.8007,3.8007,3.8123,3.8354,3.8354,3.8469,3.87,3.9123,3.9411,3.9642,0.0,0.0,4.0489,4.0489,4.0642,4.0835,4.0585,4.0642,4.0854,4.0854,4.1412,4.2297,4.3143,4.3816,4.4335,4.4586,4.4489,0.0,0.0,0.0,0.0,4.3302,0.0,0.0,0.0,0.0,0.0,0.0,0.0,0.0,0.0,0.0,0.0,0.0,0.0,4.0387,4.1041,0.0,4.1829,4.2335,4.1835,4.175,4.2565,4.3425,4.4162,4.4681,4.5048,4.5318,4.5466,4.5569,4.6153,4.73,4.9503,5.0558,5.024,5.0546,5.0696,5.0702,5.2256,5.308,5.3222,5.4895,5.5703,5.5703,5.5703,5.5703,5.5703,5.5703,5.5703,5.5703,5.5703,5.5703,5.5662,5.5375,5.516,5.5203,5.6554,5.6987,5.6932,3.2506,3.1506,3.0744,3.184,3.2071,3.2455,3.359,3.4776,3.5512,3.5551,0.0,0.0,0.0,0.0,0.0,0.0,0.0,3.8084,4.0239,0.0,3.9219,0.0,0.0,3.8854,0.0,3.8007,3.8007,3.8007,3.8007,3.843,3.9258,3.9258,3.9662,4.0392,3.9642,3.9719,4.0412,3.9662,3.9777,4.0489,4.0489,4.1008,4.1681,0.0,4.1027,4.1758,4.1758,4.2316,4.3181,4.3989,4.4278,4.4451,4.5278,4.497,0.0,0.0,0.0,0.0,0.0,4.4259,0.0,4.5336,0.0,0.0,0.0,0.0,4.4028,0.0,0.0,0.0,4.207,4.1769,4.139,4.0885,4.1092,0.0,0.0,4.0546,4.1162,4.2876,4.378,4.4498,4.5042,4.435,4.4064,4.4587,4.482,4.496,4.5014,4.8622,5.0183,4.9106,5.0103,5.0696,5.0702,5.1982,5.2805,5.3222,5.4895,5.5703,5.5703,5.5703,5.5703,5.5703,5.5703,5.5703,5.5703,5.5703,5.5703,5.5703,5.5703,5.5442,5.518,5.5956,5.6506,5.6932,3.4841,3.4321,3.3417,3.2301,0.0,3.3814,3.4795,3.5243,3.5911,0.0,0.0,0.0,0.0,0.0,4.1893,0.0,0.0,4.0315,4.0489,4.0796,0.0,0.0,0.0,4.1412,0.0,4.0508,4.0508,4.0508,3.9931,3.9796,4.0085,4.0085,4.0239,4.0489,4.0219,4.0239,0.0,0.0,0.0,0.0,0.0,4.2393,4.2566,0.0,4.1893,4.2662,4.2662,4.3181,4.3932,4.4201,4.4682,4.5201,4.5509,4.5393,4.5163,4.5163,4.497,4.4797,4.5086,4.5586,4.5951,4.5663,4.6028,4.622,4.5355,0.0,0.0,0.0,0.0,0.0,4.3292,4.2746,4.1996,4.125,4.1418,4.137,0.0,4.0989,4.1797,4.2951,4.3335,0.0,4.4498,4.4307,4.4135,4.4133,4.4883,4.5361,4.5362,4.7665,4.899,4.899,5.0123,5.0699,5.0702,5.2235,5.308,5.3222,5.4895,5.5703,5.5703,5.5703,5.5703,5.5703,5.5703,5.5703,5.5703,5.5703,5.5703,5.5703,5.5703,5.5446,5.5244,5.6267,5.6537,5.6561,3.5765,3.5726,3.5064,0.0,0.0,0.0,3.5968,0.0,0.0,0.0,3.9008,0.0,4.2066,0.0,4.4412,0.0,4.4105,4.2662,4.1489,4.1758,0.0,4.172,4.2874,0.0,0.0,0.0,4.2258,4.2258,4.1393,4.095,4.095,4.0642,4.0489,4.0489,4.0489,4.0489,4.0489,0.0,4.0989,0.0,0.0,4.3278,0.0,0.0,4.3047,4.3528,4.3528,4.4066,4.4759,4.4759,4.5143,4.5586,4.5586,4.5586,4.5528,4.522,4.5355,4.5528,4.522,4.6009,4.6701,4.5817,4.6471,4.7028,4.5855,4.5836,4.597,0.0,0.0,0.0,0.0,4.3773,4.2949,4.1892,4.1915,4.1696,0.0,4.1258,4.2124,4.3008,0.0,0.0,0.0,4.4047,4.3797,4.3643,4.4295,4.4853,4.5126,4.6837,4.8068,4.8663,4.999,5.0702,5.0702,5.2356,5.3203,5.3222,5.4895,5.5703,5.5703,5.5703,5.5703,5.5703,5.5703,5.5703,5.5703,5.5703,5.5703,5.5703,5.5703,5.5535,5.5447,5.6717,5.7108,5.7159,3.5102,3.5641,3.5565,0.0,3.5713,0.0,0.0,0.0,3.6796,0.0,4.347,4.5586,4.5586,4.5586,4.5586,4.5586,4.5586,0.0,4.3335,4.2681,0.0,0.0,4.4201,4.3989,4.3181,0.0,0.0,4.3162,4.2258,4.1797,4.1777,4.0912,4.0489,4.0489,4.0546,0.0,4.0489,4.0546,4.1066,4.195,4.2854,4.3682,4.4355,4.4355,4.4355,4.4355,4.4355,4.4893,4.5586,4.5586,4.5586,4.5586,4.5586,4.5586,4.5432,4.4605,4.4951,4.5413,4.4586,4.5605,4.6701,4.5874,4.6894,4.7682,4.6086,4.6355,4.6721,4.5893,4.5438,4.5194,4.5194,4.4891,4.4202,4.2804,4.256,4.2087,4.0803,4.1373,4.2239,4.3066,0.0,0.0,0.0,0.0,4.3162,4.3162,4.3162,0.0,4.4316,4.626,4.7568,4.8086,4.9779,5.0721,5.076,5.2375,5.3222,5.328,5.4914,5.5703,5.5703,5.5703,5.5703,5.5703,5.5703,5.5703,5.5703,5.5703,5.5703,5.5703,5.5703,5.5742,5.5967,5.716,5.8042,5.8576,3.203,3.4183,3.5888,0.0,3.6404,3.682,0.0,0.0,0.0,0.0,4.347,4.5586,4.5586,4.5586,4.5586,4.5586,4.5586,0.0,0.0,0.0,0.0,4.3912,4.4778,4.4874,4.4008,4.3989,0.0,4.3989,4.2527,4.1797,4.1777,4.0912,4.0489,4.0527,4.1181,4.1104,4.0527,4.1181,4.197,4.2893,4.4374,4.5066,4.5259,4.5259,4.5259,4.5259,4.5259,4.5413,4.5586,4.5586,4.5586,4.5586,4.5586,4.5586,4.5547,4.5316,4.5413,4.5547,4.5316,4.6067,4.6855,4.6624,4.7336,4.799,4.7567,4.7625,4.774,4.7509,4.6915,4.6436,4.6436,4.5841,4.4998,4.3999,4.3345,4.2825,4.2489,4.3143,0.0,4.397,0.0,0.0,0.0,0.0,4.3989,4.3989,4.3989,4.4355,4.522,4.6951,4.7971,4.8105,4.9779,5.0991,5.1587,5.2664,5.353,5.4184,5.5203,5.5703,5.5703,5.5703,5.5703,5.5703,5.5703,5.5703,5.5703,5.5703,5.5703,5.5703,5.5703,5.6492,5.762,5.76,5.7664,5.7835,3.3142,3.468,0.0,3.6001,0.0,0.0,3.7319,0.0,0.0,4.0181,4.347,0.0,4.7663,4.649,4.6201,4.7702,4.6451,0.0,4.5586,0.0,0.0,4.4814,4.5372,4.5488,4.5009,4.4643,0.0,4.4989,0.0,4.2069,4.239,4.1101,4.0489,4.0527,4.1412,4.1527,4.1123,4.2008,4.2854,4.3701,4.4643,4.5259,0.0,4.5586,4.5586,4.5586,4.5586,4.5586,4.5586,4.5586,4.5586,4.5586,4.5586,4.5586,4.5586,4.5586,4.5586,4.5586,4.5586,4.624,4.6913,4.6913,4.7798,4.8567,4.8202,4.8394,4.8567,4.8182,4.7471,4.6913,4.6913,4.6182,4.5297,4.4432,4.3624,4.3104,4.3104,0.0,0.0,0.0,4.5066,4.5413,4.4913,4.4509,4.4143,4.3797,4.4105,4.4509,4.5009,4.6644,4.774,4.8086,5.0125,5.1433,5.1914,5.3491,5.4357,5.4511,5.5318,5.5703,5.5703,5.5703,5.5703,5.5703,5.5703,5.5703,5.5703,5.5703,5.5703,5.5742,5.6107,5.6646,5.722,5.7723,5.8204,5.8573,3.5996,0.0,0.0,0.0,0.0,0.0,0.0,3.7392,0.0,4.0123,0.0,4.6721,4.9702,4.7375,4.6812,4.9845,0.0,4.5688,4.5688,4.5688,4.5765,4.5939,4.5901,4.587,4.5899,4.5208,0.0,0.0,4.3381,4.2579,4.306,4.1331,4.0585,4.0719,4.1585,0.0,0.0,4.2893,4.3605,4.4162,4.4374,4.4913,4.5586,4.5586,4.5586,4.5586,4.5586,4.5586,4.5586,4.5586,4.5586,4.5586,4.5586,4.5586,4.5586,4.5586,4.5586,4.5586,4.5586,4.6144,4.6778,4.7009,4.8144,4.9086,4.8567,4.9029,4.9356,4.8606,4.7798,4.7201,4.7086,4.6259,4.5336,4.4586,4.3874,4.3431,0.0,0.0,0.0,0.0,0.0,0.0,4.5586,4.4913,4.4182,4.347,4.397,4.4355,4.4451,4.5913,4.7163,4.8067,5.0471,5.1914,5.2241,5.4434,5.5299,5.4818,5.5415,5.5703,5.5703,5.5703,5.5703,5.5703,5.5703,5.5703,5.5703,5.5703,5.5703,5.578,5.653,5.6434,5.6049,5.7569,5.8917,5.9902,0.0,0.0,0.0,0.0,0.0,4.1191,4.3867,4.1623,3.9815,4.0412,4.347,4.5817,4.6432,4.5951,4.6002,4.6971,4.6521,0.0,0.0,0.0,0.0,4.6228,4.6228,4.6108,4.5901,4.5754,4.5084,0.0,4.3938,4.3485,4.2511,4.1239,4.1062,4.1777,4.2527,0.0,4.2931,4.3739,0.0,4.3431,4.4816,4.5451,4.5586,4.5586,4.5586,4.5586,4.5586,4.5586,4.5586,4.5586,4.5586,4.5586,4.5586,4.5586,4.5586,4.5586,4.5586,4.5586,4.5586,4.5701,4.6163,4.7548,4.8105,4.8663,4.9952,5.0356,5.0433,5.0279,4.9548,4.874,4.8029,4.6644,4.5547,4.5393,4.524,4.5163,0.0,0.0,0.0,0.0,0.0,4.5586,4.5586,4.5451,4.5297,4.5163,4.4624,4.4605,4.5316,4.5663,4.6528,4.8048,4.9933,5.1914,5.401,5.4491,5.5318,5.6549,5.5972,5.5703,5.5703,5.5703,5.5703,5.5703,5.5703,5.5703,5.5703,5.5703,5.5703,5.5722,5.5857,5.6261,5.6799,5.7107,5.8258,5.9523,0.0,0.0,0.0,0.0,0.0,0.0,0.0,4.4579,4.3518,4.3518,4.4951,4.5955,4.5955,4.5955,4.6047,4.6289,4.6308,4.6308,4.6308,4.6308,4.6308,4.6308,4.6308,0.0,4.6113,4.5527,4.4684,4.3552,4.4196,4.4168,4.351,4.2485,4.2218,4.264,4.2951,4.3335,0.0,4.3682,4.3682,4.3797,4.4605,4.5201,4.5586,4.5586,4.5586,4.5586,4.5586,4.5586,4.5586,4.5586,4.5586,4.5586,4.5586,4.5586,4.5586,4.5586,4.5586,4.5586,4.5586,4.5586,4.599,4.7682,4.8105,4.8567,5.0298,5.0702,5.0702,5.0702,5.001,4.9009,4.7721,4.6817,4.6124,4.5663,4.5586,0.0,0.0,0.0,4.5586,0.0,0.0,0.0,0.0,4.5586,4.5586,4.5586,4.5201,4.5163,4.5566,4.5586,4.6374,4.8048,5.0202,5.2125,5.3818,5.5145,5.5972,5.6319,5.5895,5.5703,5.5703,5.5703,5.5703,5.5703,5.5703,5.5703,5.5703,5.5703,5.5703,5.5742,5.6203,5.6338,5.6376,5.6819,5.78,5.8869,0.0,4.1191,0.0,0.0,4.1797,0.0,4.5886,4.6306,4.6562,4.7285,4.6758,4.6308,4.6308,4.6308,4.6308,4.6308,4.6953,4.7383,4.7383,4.6699,4.6308,4.6308,4.6308,4.6308,4.6308,4.543,4.4726,0.0,4.4726,4.4842,4.4587,4.3699,4.3258,4.3214,4.3506,4.3797,4.4028,4.3739,4.3893,4.4316,4.4489,4.4989,4.5586,4.5586,4.5586,4.5586,4.5586,4.5586,4.5586,4.5586,4.5586,4.5586,4.5586,4.5586,4.5624,4.5817,4.574,4.5682,4.6028,4.6009,4.622,4.774,4.8105,4.8509,5.0067,5.0414,5.0471,5.0644,5.001,4.899,4.7682,4.7278,4.6874,4.6009,4.5874,4.5797,4.5624,0.0,0.0,0.0,0.0,0.0,4.5586,4.5586,4.5586,4.5586,4.5432,4.5393,4.5586,4.5413,4.6105,4.7798,5.0144,5.1972,5.3203,5.5299,5.6222,5.5972,5.578,5.5703,5.5703,5.5703,5.5703,5.5703,5.5703,5.5703,5.5703,5.5703,5.5703,5.5761,5.6453,5.6299,5.578,5.6472,5.7396,5.8331,0.0,0.0,0.0,0.0,0.0,4.5937,4.6245,4.6307,4.7402,5.0527,4.8223,4.6308,4.6308,4.6308,4.6308,4.6308,4.9121,5.0918,5.0918,4.8027,4.6308,4.6308,4.6308,4.6308,4.6308,4.6191,4.6113,0.0,4.6113,4.5605,4.4586,4.3877,4.3431,4.3253,4.4718,4.4547,4.3316,4.4739,4.4951,4.4374,4.5163,4.5528,4.5586,4.5586,4.5586,4.5586,4.5586,4.5586,4.5586,4.5586,4.5586,4.5586,4.5586,4.5586,4.5759,4.6547,4.622,4.5932,4.7451,4.7336,4.699,4.7875,4.8105,4.8355,4.9298,4.951,4.974,5.0529,5.001,4.9356,4.9183,4.8529,4.7721,4.6913,4.6778,4.6509,4.5701,0.0,4.5586,4.5586,0.0,0.0,4.5586,4.5586,4.5586,4.5586,4.4874,4.4759,4.5547,4.4855,4.522,4.6971,4.8721,5.0779,5.3183,5.3933,5.5164,5.6857,5.6069,5.5703,5.5703,5.5703,5.5703,5.5703,5.5703,5.5703,5.5703,5.5703,5.5703,5.5703,5.578,5.5761,5.5703,5.578,5.6876,5.83,0.0,0.0,0.0,0.0,0.0,0.0,0.0,4.8047,4.9121,4.8437,4.7148,4.6308,4.6308,4.6308,4.7129,4.918,4.873,4.834,4.834,4.7051,4.6308,4.6308,4.6308,4.6308,4.6308,4.6308,4.6308,0.0,0.0,4.6074,4.5605,4.5265,4.4974,4.4757,4.4814,4.4451,4.3855,4.4528,4.4624,4.4374,4.524,4.5586,4.5586,4.5586,4.5586,4.5586,4.5586,4.5586,4.5586,4.5586,4.5586,4.5682,4.622,4.6374,4.6547,4.7375,4.7375,4.724,4.7913,4.7875,4.7817,4.8663,4.8875,4.9106,4.9971,5.0183,5.0279,5.0625,5.0414,5.001,4.949,4.9125,4.8452,4.7124,4.6913,4.6605,4.572,4.5586,0.0,4.5586,0.0,4.5586,4.5586,4.5586,4.5586,4.5586,4.5278,4.522,4.5566,4.5259,4.5643,4.6874,4.8529,5.0375,5.2414,5.3451,5.4761,5.6222,5.5857,5.5703,5.5703,5.5703,5.5703,5.5703,5.5703,5.5703,5.5703,5.5703,5.5703,5.5703,5.5703,5.5703,5.5761,5.628,5.703,5.7873,4.6308,0.0,4.6308,0.0,4.6308,4.6308,4.6308,4.8359,4.9023,4.6621,4.6308,4.668,4.7695,4.7793,4.8379,4.9785,4.7695,4.6308,4.6308,4.6308,4.6308,4.6308,4.6308,0.0,4.6308,4.6308,4.6308,4.6308,4.6308,4.6308,4.6308,4.6131,4.5832,4.5451,4.4913,4.4528,4.4316,4.4566,4.4682,4.4739,4.5336,4.5586,4.5586,4.5586,4.5586,4.5586,4.5586,4.5759,4.599,4.6026,4.62,4.645,4.6797,4.7067,4.7413,4.824,4.8298,4.8221,4.8721,4.8682,4.8625,4.924,4.9394,4.9548,5.0183,5.0317,5.0375,5.0644,5.0702,5.051,4.9894,4.9779,4.9221,4.7528,4.7259,4.6874,4.5759,4.5586,4.5586,4.5586,4.5586,4.5586,4.5586,4.5586,4.5586,4.5586,4.5586,4.5586,4.5586,4.5586,4.599,4.6874,4.8279,4.9952,5.1895,5.3145,5.4434,5.5703,5.5703,5.5703,5.5703,5.5703,5.5703,5.5703,5.5703,5.5703,5.5703,5.5703,5.5703,5.5703,5.5703,5.5703,5.5761,5.6376,5.7069,5.7816,4.6308,4.6308,4.6308,4.6308,4.6308,4.6308,4.6308,4.6348,4.6348,4.6308,4.6308,4.7598,5.0976,5.1348,4.998,4.6641,4.6328,4.6308,4.6308,4.6308,4.6308,0.0,0.0,4.6308,4.6308,4.6308,4.6308,4.6308,0.0,4.6308,4.6289,4.6033,4.5483,4.4741,4.5316,4.5105,4.4355,4.522,4.5566,4.5586,4.5586,4.5586,4.5586,4.5586,4.5586,4.5586,4.5586,4.6144,4.6894,4.7045,4.7603,4.8123,4.7182,4.7451,4.8259,4.9125,4.8779,4.849,5.0202,5.0029,4.9394,4.9394,4.9394,4.9394,4.9413,4.9413,4.9663,5.051,5.0702,5.0702,5.0683,5.0683,5.0106,4.8375,4.8086,4.7509,4.5817,4.5586,4.5586,4.5586,4.5586,4.5586,4.5586,4.5586,4.5586,4.5586,4.5586,4.5586,4.5586,4.5586,4.599,4.6874,4.7702,4.9336,5.1895,5.2779,5.4049,5.5703,5.5703,5.5703,5.5703,5.5703,5.5703,5.5703,5.5703,5.5703,5.5703,5.5703,5.5703,5.5703,5.5703,5.5703,5.5703,5.5703,5.6799,5.83,4.6308,4.6308,4.6308,4.6308,4.6308,4.6308,4.6308,4.6308,4.6308,4.6308,4.6308,4.6719,4.7793,5.0,5.0019,4.6601,4.8437,4.8789,4.6445,4.6308,4.6308,4.6308,4.6308,4.6308,4.6308,4.6308,4.6308,4.6308,4.6308,4.6308,4.6308,4.6202,4.5944,4.5509,4.568,4.5545,4.5201,4.547,4.5586,4.5586,4.5586,4.5586,4.5586,4.5586,4.5586,4.5699,4.639,4.6795,4.7141,4.7816,4.8613,4.9276,4.8965,4.8991,4.9298,5.0183,5.0144,4.999,5.0548,5.0491,5.0279,5.0279,5.0279,5.0279,5.0279,5.0279,5.0356,5.0625,5.0702,5.0702,5.0702,5.0702,5.0125,4.8375,4.8105,4.7509,4.5836,4.5586,4.5586,4.5586,4.5586,4.5586,4.5586,4.5586,4.5586,4.5586,4.5586,4.5586,4.5586,4.5586,4.599,4.6874,4.7682,4.9317,5.1895,5.3126,5.4395,5.5703,5.5703,5.5703,5.5703,5.5703,5.5703,5.5703,5.5703,5.5703,5.5703,5.5703,5.5703,5.5703,5.5703,5.5703,5.5703,5.5698,5.6041,5.687,4.6308,4.6308,4.6308,4.6308,4.6308,4.6308,4.6308,4.6308,4.6308,4.6308,4.6308,4.6308,4.6308,4.8203,4.8613,4.6484,4.8242,4.8574,4.6445,4.6308,4.6308,4.6308,4.6308,4.6308,4.6308,4.6308,4.6308,4.6308,4.6308,4.6308,4.6308,4.625,4.6136,4.5975,4.5866,4.5757,4.568,4.5605,4.5586,4.5586,4.5586,4.5586,4.5586,4.5586,4.5624,4.5796,4.6756,4.7317,4.7773,4.8733,4.9637,5.0389,5.0763,5.0802,5.072,5.0913,5.0895,5.0779,5.0779,5.0952,5.1087,5.0779,5.0933,5.1068,5.076,5.0702,5.0702,5.0702,5.0702,5.0702,5.0702,5.0702,5.0125,4.8375,4.8105,4.7509,4.5836,4.5586,4.5586,4.5586,4.5586,4.5586,4.5586,4.5586,4.5586,4.5586,4.5893,4.5951,4.5605,4.5913,4.6624,4.7798,4.8644,5.0298,5.2856,5.3626,5.4568,5.5703,5.5703,5.5703,5.5703,5.5703,5.5703,5.5703,5.5703,5.5703,5.5703,5.5703,5.5703,5.5703,5.5703,5.5703,5.5701,5.5698,5.6525,5.7931,4.6308,4.6308,4.6308,4.6308,4.6308,4.6308,4.6308,4.6308,4.6308,4.6308,4.6308,4.6308,4.6308,4.6504,4.6562,4.6328,4.6308,4.6406,4.6641,4.6641,4.6641,4.6641,4.6426,4.6308,4.6308,4.6387,4.6406,4.6387,4.6328,4.6308,4.6308,4.6172,4.6113,4.6093,4.5894,4.5808,4.5796,4.568,4.5605,4.5605,4.5586,4.5605,4.5605,4.568,4.5776,4.6026,4.6966,4.7893,4.8847,4.9833,5.0717,5.1565,5.2494,5.2706,5.2426,5.1551,5.1182,5.1087,5.1087,5.1529,5.1818,5.1068,5.1395,5.1702,5.0952,5.0779,5.0779,5.0779,5.0779,5.076,5.0702,5.0644,5.0048,4.8375,4.8048,4.7451,4.5817,4.5586,4.5586,4.5586,4.5643,4.5663,4.5605,4.5643,4.5682,4.5682,4.6432,4.6547,4.572,4.6624,4.7855,4.9356,5.024,5.1914,5.4472,5.4203,5.4607,5.5703,5.5703,5.5703,5.5703,5.5703,5.5703,5.5703,5.5703,5.5703,5.5703,5.5703,5.5703,5.5703,5.5703,5.5701,5.5717,5.597,5.8069,6.0808,4.6308,4.6308,4.6308,4.6308,4.6308,4.6308,4.6308,4.6308,4.6308,4.6308,4.6308,4.6308,4.6308,4.8633,4.9141,4.6523,4.6308,4.7402,5.0019,5.0195,5.0195,5.0195,4.7695,4.6308,4.6308,4.7148,4.75,4.7285,4.6621,4.6308,4.6308,4.6269,4.6191,4.6094,4.6056,4.5968,4.5873,4.5796,4.5757,4.5738,4.5624,4.5643,4.5834,4.6487,4.6795,4.7082,4.8715,4.9879,5.0768,5.1746,5.2628,5.3372,5.3629,5.3661,5.3581,5.3268,5.3073,5.2958,5.2971,5.3013,5.2992,5.2818,5.2337,5.1856,5.1664,5.1625,5.1625,5.1625,5.1625,5.1433,5.0798,5.0164,4.9356,4.8279,4.7586,4.6817,4.574,4.5586,4.5586,4.5586,4.6182,4.6336,4.5663,4.6201,4.6586,4.6586,4.6778,4.6817,4.6605,4.8625,4.9683,4.9413,5.024,5.1914,5.4472,5.4414,5.4838,5.5703,5.5703,5.5703,5.5703,5.5703,5.5703,5.5703,5.5703,5.5703,5.5703,5.5703,5.5703,5.5701,5.5701,5.5698,5.6022,5.8627,6.0092,6.0808,4.6267,4.6308,4.6308,4.6308,4.6308,4.6308,4.6308,4.6308,4.6308,4.6308,4.6308,4.6894,4.8457,4.8887,4.8945,4.8652,4.8633,4.9414,5.1289,5.1406,5.1406,5.1406,4.9629,4.7891,4.6328,4.8437,4.8711,4.7012,4.6523,4.6308,4.6308,4.6308,4.6269,4.6191,4.6133,4.6066,4.5998,4.5886,4.5838,4.5796,4.5719,4.5738,4.5911,4.6756,4.7178,4.758,4.9791,5.0918,5.1548,5.2841,5.3611,5.4071,5.4462,5.459,5.4668,5.498,5.4421,5.3683,5.3676,5.3886,5.4075,5.4014,5.328,5.2568,5.251,5.2491,5.2491,5.2491,5.2183,5.1779,5.1337,5.024,4.9106,4.824,4.7432,4.6605,4.572,4.5586,4.574,4.6144,4.6605,4.6855,4.674,4.7163,4.7298,4.6932,4.7605,4.7721,4.6951,4.9663,5.0856,5.001,5.1568,5.328,5.503,5.5049,5.5261,5.5703,5.5703,5.5703,5.5703,5.5703,5.5703,5.5722,5.6107,5.6069,5.5703,5.5703,5.5701,5.5855,5.7418,5.8033,5.8258,6.0111,6.0785,6.0804,4.6123,4.6195,4.6195,4.6195,4.6195,4.6221,4.6289,4.6308,4.6308,4.6308,4.6308,4.7598,5.1035,4.8808,4.8242,5.1152,5.1406,5.1406,5.1406,5.1406,5.1406,5.1406,5.1406,5.0039,4.7129,4.9902,4.998,4.707,4.6543,4.6308,4.6308,4.6308,4.6308,4.6308,4.6172,4.6133,4.6113,4.5991,4.589,4.5838,4.5828,4.5911,4.6142,4.7024,4.7532,4.8159,5.0622,5.1635,5.2031,5.3652,5.4277,5.4512,5.5254,5.5508,5.5644,5.6387,5.5469,5.4215,5.4229,5.4652,5.5054,5.4801,5.4168,5.3569,5.3453,5.3414,5.3395,5.3395,5.2818,5.2222,5.1952,5.0529,4.9106,4.824,4.7317,4.6451,4.5701,4.5701,4.6124,4.699,4.7201,4.7605,4.8413,4.849,4.8221,4.7528,4.8798,4.8913,4.7355,5.0337,5.1722,5.0914,5.3222,5.4895,5.5684,5.5703,5.5703,5.5703,5.5701,5.597,5.6456,5.5931,5.5701,5.5742,5.6607,5.6646,5.6069,5.5816,5.5698,5.6025,5.9463,6.0792,6.0785,6.0785,6.0804,6.08,4.5688,4.5718,4.5718,4.5718,4.5718,4.5836,4.6245,4.6308,4.6308,4.6308,4.6308,4.7598,5.1035,5.0937,5.082,5.1348,5.1406,5.1406,5.1406,5.1406,5.1406,5.1406,5.1406,5.1152,5.0625,5.1133,5.1133,5.0605,4.7715,4.6308,4.6308,4.6308,4.6308,4.6308,4.6289,4.6269,4.6269,4.6131,4.6065,4.6046,4.5938,4.639,4.7255,4.812,4.9007,5.0005,5.1821,5.2964,5.375,5.4765,5.5586,5.6211,5.6367,5.6406,5.6426,5.6562,5.6387,5.6172,5.6168,5.6167,5.5957,5.5082,5.4677,5.4491,5.4474,5.4376,5.4299,5.4299,5.4184,5.3645,5.2183,5.0529,4.9106,4.824,4.6817,4.574,4.5605,4.622,4.7009,4.7817,4.8567,4.9356,5.0202,5.0298,5.024,5.0106,5.0337,5.0048,4.9067,5.1548,5.2606,5.1741,5.353,5.4895,5.5684,5.5703,5.5703,5.5701,5.5701,5.7203,5.9926,5.703,5.5701,5.5758,5.6626,5.7341,5.7786,5.6313,5.5692,5.6038,5.9454,6.0785,6.08,6.08,6.08,6.08,4.5586,4.5586,4.5586,4.5586,4.5586,4.575,4.6223,4.7851,4.9043,4.9043,4.9043,4.9648,5.123,5.1406,5.1406,5.1406,5.1406,5.1406,5.1406,5.1406,5.1406,5.1406,5.1406,5.1406,5.1406,5.1406,5.1406,5.1406,4.9824,4.873,4.8125,4.7832,4.7695,4.7695,4.7695,4.7441,4.7031,4.7441,4.7012,4.6171,4.7053,4.7408,4.7561,4.8887,4.9994,5.1074,5.2793,5.3965,5.4824,5.5703,5.6269,5.6601,5.6601,5.6601,5.6699,5.7168,5.6973,5.6699,5.7168,5.7265,5.7088,5.6532,5.6359,5.6146,5.548,5.5301,5.5222,5.5164,5.4799,5.4241,5.3453,5.1549,4.9971,4.9567,4.7317,4.5605,4.5608,4.6991,4.8221,4.874,4.9952,5.1087,5.1952,5.2049,5.1856,5.1375,5.1779,5.1664,5.0798,5.276,5.3722,5.3318,5.4491,5.5318,5.5703,5.5703,5.5701,5.572,5.7569,5.9265,6.0754,5.9169,5.7934,5.7069,5.6527,5.6527,5.6973,5.8011,5.8431,5.8604,6.0188,6.0804,6.08,6.08,6.08,6.08,4.6624,4.6144,4.5836,4.6644,4.6778,4.6912,4.7267,4.9547,5.1285,5.1386,5.1406,5.1406,5.1406,5.1406,5.1406,5.1406,5.2148,5.2617,5.2617,5.2617,5.2246,5.1445,5.1406,5.1406,5.1406,5.1406,5.1406,5.1406,5.2207,5.1758,5.0098,4.9668,4.9277,4.8906,4.8906,4.8535,4.7949,4.8613,4.8066,4.6875,4.8203,4.8474,4.8225,4.9744,5.0911,5.1933,5.3672,5.4726,5.5469,5.6543,5.6894,5.6933,5.7148,5.7207,5.7344,5.8008,5.7734,5.7344,5.8027,5.8203,5.8183,5.8066,5.8008,5.7675,5.6521,5.6212,5.6109,5.5761,5.5203,5.4722,5.453,5.2626,5.101,5.074,4.8509,4.6528,4.5725,4.7549,4.926,5.001,5.1337,5.2626,5.3683,5.3606,5.3222,5.2549,5.3126,5.3126,5.226,5.3664,5.4587,5.4761,5.5376,5.5703,5.5703,5.5701,5.6104,5.6934,5.9534,6.0789,6.0789,6.0808,6.0115,5.8767,5.664,5.5714,5.5967,5.938,6.0808,6.0785,6.0785,6.0804,6.08,6.08,6.08,6.08,4.9702,4.7759,4.6586,4.976,5.0317,5.0356,5.0373,5.0583,5.0907,5.1343,5.1406,5.1406,5.1406,5.1406,5.1406,5.1406,5.4355,5.6211,5.6211,5.6211,5.4785,5.1543,5.1406,5.1406,5.1406,5.1406,5.1406,5.1406,5.4629,5.4512,5.1269,5.123,5.0391,4.8906,4.8906,4.8867,4.8808,4.8867,4.8828,4.8691,4.8828,4.9335,5.0095,5.0954,5.1835,5.2832,5.457,5.5254,5.5566,5.7246,5.7793,5.7949,5.875,5.9004,5.9023,5.9082,5.9062,5.9023,5.9082,5.9101,5.9101,5.9082,5.8945,5.8548,5.7527,5.7185,5.6843,5.5876,5.5645,5.5376,5.4645,5.3278,5.1932,5.0875,5.0491,4.9221,4.6052,4.7549,4.9779,5.1932,5.2721,5.3741,5.5357,5.4838,5.4376,5.4318,5.4376,5.403,5.3145,5.3991,5.4838,5.5588,5.5665,5.5703,5.5703,5.5703,5.7283,6.0426,6.0676,6.0808,6.08,6.0785,6.0731,6.0419,5.7136,5.5708,5.5957,5.9392,6.08,6.08,6.08,6.08,6.08,6.08,6.08,6.08,5.0029,4.9644,4.9163,5.0471,5.0702,5.0702,5.0702,5.0702,5.0773,5.094,5.0977,5.0977,5.0977,5.3157,5.4629,5.4629,5.584,5.6601,5.6601,5.6601,5.6015,5.4687,5.4629,5.4629,5.4629,5.4629,5.4629,5.4629,5.5957,5.5918,5.459,5.2969,5.1582,5.0449,5.0449,5.0176,4.9746,5.0234,4.9844,4.8984,5.0039,5.0644,5.1035,5.1875,5.3086,5.4394,5.5058,5.5996,5.7012,5.7676,5.8262,5.8769,5.9101,5.9199,5.9297,5.9805,6.0332,6.0742,6.0742,6.0351,5.9941,5.9941,5.9883,5.9569,5.8554,5.8286,5.8096,5.7533,5.7437,5.7321,5.6934,5.553,5.4299,5.3855,5.2049,5.0606,5.0355,5.1952,5.3088,5.2933,5.3991,5.4991,5.5645,5.5415,5.5241,5.5241,5.5241,5.5107,5.4761,5.5049,5.5376,5.5684,5.5703,5.5703,5.5703,5.6761,5.7434,5.7662,5.9804,6.0804,6.08,6.0804,6.0804,6.075,5.9435,5.8854,5.895,6.0265,6.0804,6.08,6.08,6.08,6.08,6.08,6.08,6.08,5.024,5.0702,5.0702,5.0702,5.0702,5.0702,5.0702,5.0702,5.0702,5.0702,5.0702,5.1087,5.2145,5.4684,5.6322,5.6322,5.6322,5.6322,5.6322,5.6322,5.6402,5.6582,5.6601,5.6601,5.6601,5.6601,5.6601,5.6601,5.6601,5.6601,5.6562,5.4765,5.3301,5.2207,5.1933,5.1504,5.0996,5.1289,5.0898,5.0195,5.1348,5.1973,5.2305,5.3183,5.4258,5.5371,5.5918,5.6875,5.7988,5.8515,5.9082,5.9629,5.9902,5.998,6.0098,6.0644,6.123,6.1699,6.1699,6.1269,6.0801,6.0801,6.0801,6.0547,5.9531,5.9311,5.9161,5.8607,5.8505,5.8476,5.8319,5.7475,5.6533,5.5816,5.378,5.2664,5.3818,5.4975,5.5264,5.4107,5.4991,5.5703,5.5703,5.5703,5.5703,5.5703,5.5703,5.5703,5.5703,5.5703,5.5703,5.5703,5.5703,5.5703,5.5703,5.6896,5.7162,5.6541,5.9435,6.0781,6.08,6.08,6.0804,6.0804,6.0804,6.0804,6.0804,6.0804,6.0804,6.08,6.08,6.08,6.08,6.08,6.08,6.08,5.0702,5.0702,5.0702,5.0702,5.0702,5.0702,5.0702,5.0702,5.0702,5.0702,5.0721,5.201,5.5338,5.5703,5.5703,5.5703,5.5703,5.5703,5.5742,5.5742,5.6005,5.66,5.6601,5.6601,5.6601,5.6601,5.6601,5.6601,5.6601,5.6601,5.6601,5.6601,5.5683,5.3984,5.3105,5.2715,5.2656,5.1777,5.1914,5.2715,5.2715,5.3242,5.4101,5.4961,5.5312,5.5547,5.7285,5.791,5.8164,5.9844,6.039,6.0566,6.1426,6.1699,6.1699,6.1699,6.1699,6.1699,6.1699,6.1699,6.1699,6.1699,6.1699,6.1445,6.0449,6.0215,5.9888,5.8759,5.851,5.8469,5.8357,5.8742,5.838,5.6107,5.5722,5.5705,5.5726,5.5707,5.5686,5.5703,5.5703,5.5703,5.5703,5.5703,5.5703,5.5703,5.5703,5.5703,5.5703,5.5703,5.5703,5.5703,5.5703,5.5703,5.5703,5.5701,5.6585,5.8338,6.0015,6.0804,6.08,6.08,6.08,6.08,6.08,6.08,6.08,6.08,6.08,6.08,6.08,6.08,6.08,6.08,6.08,6.08,5.0702,5.0702,5.0702,5.0702,5.0702,5.0702,5.0702,5.0702,5.0702,5.0702,5.2741,5.4587,5.5588,5.5703,5.5703,5.5703,5.5703,5.6722,5.9108,5.9281,5.9356,5.954,5.725,5.6173,5.6582,5.6601,5.6601,5.6601,5.6601,5.6601,5.6601,5.6601,5.6328,5.5762,5.4277,5.3613,5.3574,5.293,5.3027,5.3652,5.4062,5.4512,5.4941,5.5195,5.6055,5.7187,5.7715,5.8652,5.9726,6.0234,6.0801,6.1367,6.1621,6.1699,6.1699,6.1699,6.1699,6.1699,6.1699,6.1699,6.1699,6.1699,6.1699,6.1621,6.1328,6.125,6.1131,6.0698,6.0536,6.0396,6.0223,6.0246,6.0054,5.938,5.7258,5.6121,5.7362,5.6475,5.5703,5.5703,5.5703,5.5934,5.6549,5.6607,5.6607,5.6607,5.6049,5.5703,5.5703,5.5703,5.5703,5.5703,5.5703,5.5992,5.6607,5.6797,5.7973,6.0057,6.0554,6.0781,6.08,6.08,6.08,6.08,6.08,6.08,6.08,6.08,6.08,6.08,6.08,6.08,6.08,6.08,6.08,6.08,5.0702,5.0702,5.0702,5.0702,5.0702,5.1144,5.2472,5.2683,5.2683,5.2683,5.4434,5.5703,5.5703,5.5703,5.5703,5.5703,5.6934,5.8588,6.0666,6.08,6.08,6.08,5.8819,5.7889,5.8257,5.8499,5.8613,5.8613,5.8613,5.793,5.6601,5.6601,5.6601,5.6543,5.5137,5.4512,5.4473,5.3808,5.3906,5.4551,5.4902,5.5351,5.5859,5.6191,5.6973,5.7988,5.8652,5.9531,6.0449,6.0801,6.1269,6.1699,6.1699,6.1699,6.1699,6.1699,6.1699,6.1699,6.1699,6.1699,6.1699,6.1699,6.1699,6.1699,6.1699,6.1699,6.166,6.1523,6.1393,6.1254,6.1135,6.0939,6.0804,6.0804,5.8777,5.7547,5.8476,5.7319,5.6374,5.6354,5.597,5.6085,5.7069,5.7569,5.7723,5.753,5.6703,5.6203,5.6203,5.6203,5.6203,5.6203,5.6549,5.6665,5.6489,5.7335,5.8431,5.9823,6.0473,6.08,6.08,6.08,6.08,6.08,6.08,6.08,6.08,6.08,6.08,6.08,6.08,6.08,6.08,6.08,6.08,6.08,5.0702,5.0933,5.1144,5.1144,5.1144,5.2183,5.5222,5.5703,5.5703,5.5703,5.5703,5.5703,5.5703,5.5972,5.6165,5.6165,5.8992,6.08,6.08,6.08,6.08,6.08,6.08,6.08,6.08,6.1334,6.1656,6.1699,6.1699,6.0117,5.7051,5.6738,5.6601,5.6562,5.5762,5.543,5.5351,5.457,5.4687,5.543,5.5508,5.6015,5.6816,5.7676,5.8066,5.832,5.9844,6.0449,6.0644,6.1426,6.1699,6.1699,6.1699,6.1699,6.1699,6.1699,6.1699,6.1699,6.1699,6.1699,6.1699,6.1699,6.1699,6.1699,6.1699,6.1699,6.168,6.1543,6.1406,6.1324,6.1321,6.1058,6.085,6.0843,6.0146,5.9531,5.9303,5.8357,5.77,5.77,5.6794,5.6483,5.737,5.855,5.9015,5.8415,5.753,5.6992,5.6896,5.6876,5.6953,5.7107,5.7896,5.7547,5.5942,5.7347,5.8216,5.8546,6.0069,6.08,6.08,6.08,6.08,6.08,6.08,6.08,6.08,6.08,6.08,6.08,6.08,6.08,6.08,6.08,6.08,6.08,5.0702,5.2799,5.4607,5.4607,5.4607,5.4857,5.5588,5.5703,5.5703,5.5703,5.5703,5.5703,5.5703,5.8088,5.9685,5.9685,6.0358,6.08,6.08,6.08,6.08,6.08,6.08,6.08,6.08,6.0924,6.1226,6.1699,6.1699,6.1328,6.0547,5.7851,5.6601,5.6582,5.6406,5.6328,5.6308,5.6113,5.6152,5.6387,5.7051,5.7441,5.7715,5.8594,5.9316,5.9902,6.0273,6.084,6.1445,6.164,6.1699,6.1699,6.1699,6.1699,6.1699,6.1699,6.1699,6.1699,6.1699,6.1699,6.1699,6.1699,6.1699,6.1699,6.1699,6.1699,6.1699,6.166,6.1559,6.1465,6.1464,6.1311,6.1181,6.12,6.08,6.0492,6.0435,6.0227,6.0054,6.0057,5.9845,5.9284,5.8219,5.9511,6.0015,5.9011,5.7912,5.6909,5.6022,5.5983,5.6601,5.7973,5.8204,5.8123,5.7735,5.6748,5.7597,6.0265,6.0627,6.08,6.08,6.08,6.08,6.08,6.08,6.08,6.08,6.08,6.08,6.08,6.08,6.08,6.08,6.08,6.08,6.08,5.276,5.4491,5.5703,5.5703,5.5703,5.5703,5.5703,5.5703,5.5703,5.5703,5.7107,5.8127,5.8127,5.9723,6.08,6.08,6.08,6.08,6.08,6.08,6.08,6.08,6.08,6.08,6.08,6.08,6.1097,6.1699,6.1699,6.1699,6.166,5.9863,5.9023,5.8965,5.7324,5.7051,5.7812,5.7402,5.7226,5.7305,5.8164,5.8262,5.8047,5.9297,6.0039,6.0449,6.0879,6.1308,6.1699,6.1699,6.1699,6.1699,6.1699,6.1699,6.1699,6.1699,6.1699,6.1699,6.1699,6.1699,6.1699,6.1699,6.1699,6.1699,6.1699,6.1699,6.1699,6.1699,6.1582,6.1511,6.1587,6.1433,6.1316,6.1382,6.1132,6.0944,6.0943,6.0862,6.0804,6.0808,6.0808,6.0458,5.9565,6.0281,6.0554,5.9973,5.9358,5.8761,5.8162,5.737,5.737,5.8277,5.9088,5.9492,5.9488,5.86,5.9046,6.0804,6.08,6.08,6.08,6.08,6.08,6.08,6.08,6.08,6.08,6.08,6.08,6.08,6.08,6.08,6.08,6.08,6.08,6.08,5.5145,5.5703,5.5703,5.5703,5.5703,5.5703,5.5703,5.6203,5.6569,5.6569,5.9031,6.08,6.08,6.08,6.08,6.08,6.08,6.08,6.08,6.08,6.08,6.08,6.08,6.08,6.08,6.08,6.1097,6.1699,6.1699,6.1699,6.1699,6.1699,6.1699,6.1582,5.873,5.7949,5.8711,5.8183,5.8086,5.8281,5.8613,5.8574,5.8476,5.9863,6.0488,6.0723,6.1445,6.1699,6.1699,6.1699,6.1699,6.1699,6.1699,6.1699,6.1699,6.1699,6.1816,6.1914,6.1914,6.2031,6.2148,6.2148,6.2148,6.2109,6.1953,6.1816,6.1738,6.1894,6.1719,6.1562,6.168,6.1515,6.1405,6.1521,6.1314,6.1156,6.1194,6.1015,6.0856,6.0823,6.08,6.08,6.08,6.08,6.08,6.08,6.0804,6.0785,6.0785,5.9492,5.8739,5.8739,6.0089,6.08,6.08,6.08,6.08,6.08,6.08,6.08,6.08,6.08,6.08,6.08,6.08,6.08,6.08,6.08,6.08,6.08,6.08,6.08,6.08,6.08,6.08,6.08,5.5607,5.5703,5.5703,5.5703,5.5703,5.5703,5.5703,5.8204,6.0108,6.0108,6.0512,6.08,6.08,6.08,6.08,6.08,6.08,6.08,6.08,6.08,6.08,6.08,6.08,6.08,6.08,6.08,6.1097,6.1699,6.1699,6.1699,6.1699,6.1699,6.1699,6.168,6.1211,5.9492,5.7012,5.7871,5.8808,5.9551,5.7695,5.8203,6.0098,6.0312,6.0879,6.1543,6.166,6.1699,6.1699,6.1699,6.1699,6.1699,6.1699,6.1699,6.1699,6.1699,6.2226,6.2812,6.2812,6.3379,6.3945,6.3945,6.3945,6.375,6.3008,6.2246,6.1914,6.2676,6.2207,6.168,6.1699,6.1678,6.1658,6.1679,6.1502,6.1412,6.1576,6.1389,6.1116,6.0831,6.08,6.08,6.08,6.08,6.08,6.08,6.08,6.08,6.08,6.0589,6.0454,6.0454,6.0685,6.08,6.08,6.08,6.08,6.08,6.08,6.08,6.08,6.08,6.08,6.08,6.08,6.08,6.08,6.08,6.08,6.08,6.08,6.08,6.08,6.08,6.08,6.08,5.5703,5.5703,5.5703,5.5703,5.5703,5.5703,5.5703,5.8588,6.08,6.08,6.08,6.08,6.08,6.08,6.08,6.08,6.08,6.08,6.08,6.08,6.08,6.08,6.08,6.08,6.08,6.08,6.0944,6.1188,6.1529,6.1699,6.1699,6.1699,6.1699,6.166,6.0723,5.998,5.9414,5.8984,5.9277,5.9961,5.9609,5.9824,6.0449,6.0937,6.1367,6.1699,6.1699,6.1699,6.1699,6.1699,6.1699,6.1797,6.2265,6.2422,6.2519,6.3008,6.3418,6.373,6.373,6.4004,6.4219,6.3887,6.3808,6.3789,6.373,6.2676,6.1816,6.2187,6.1973,6.1699,6.1699,6.1699,6.1699,6.1699,6.1621,6.1599,6.1681,6.15,6.1216,6.0831,6.08,6.08,6.08,6.08,6.08,6.08,6.08,6.08,6.08,6.08,6.08,6.08,6.08,6.08,6.08,6.08,6.08,6.08,6.08,6.08,6.08,6.08,6.08,6.08,6.08,6.08,6.08,6.08,6.08,6.08,6.08,6.08,6.08,6.08,6.08,6.08]},{"header":{"parameterUnit":"m.s-1","parameterCategory":1,"la1":30.6,"la2":28.766,"lo1":-90.7593,"lo2":-88.6598,"dy":0.0162,"dx":0.0183,"nx":116,"ny":114,"refTime":"2024-04-11T06:00:00:Z","depth":0,"parameterNumber":3,"parameterNumberName":"V-component_of_WINDS"},"data":[0.0,0.0,0.0,0.0,0.0,0.0,0.0,0.0,0.0,0.0,0.0,0.0,0.0,0.0,0.0,0.0,0.0,0.0,0.0,0.0,0.0,0.0,0.0,0.0,0.0,0.0,0.0,0.0,0.0,0.0,0.0,0.0,0.0,0.0,0.0,0.0,0.0,0.0,0.0,0.0,0.0,0.0,0.0,0.0,0.0,0.0,0.0,0.0,0.0,0.0,0.0,0.0,0.0,0.0,0.0,0.0,0.0,0.0,0.0,0.0,0.0,0.0,0.0,0.0,0.0,0.0,0.0,0.0,0.0,0.0,0.0,0.0,0.0,0.0,0.0,0.0,0.0,0.0,0.0,0.0,0.0,0.0,0.0,0.0,0.0,0.0,0.0,0.0,0.0,0.0,0.0,0.0,0.0,0.0,0.0,0.0,0.0,0.0,0.0,0.0,0.0,0.0,0.0,0.0,0.0,0.0,0.0,0.0,0.0,0.0,0.0,0.0,0.0,0.0,0.0,0.0,0.0,0.0,0.0,0.0,0.0,0.0,0.0,0.0,0.0,0.0,0.0,0.0,0.0,0.0,0.0,0.0,0.0,0.0,0.0,0.0,0.0,0.0,0.0,0.0,0.0,0.0,0.0,0.0,0.0,0.0,0.0,0.0,0.0,0.0,0.0,0.0,0.0,0.0,0.0,0.0,0.0,0.0,0.0,0.0,0.0,0.0,0.0,0.0,0.0,0.0,0.0,0.0,0.0,0.0,0.0,0.0,0.0,0.0,0.0,0.0,0.0,0.0,0.0,0.0,0.0,0.0,0.0,0.0,0.0,0.0,0.0,0.0,0.0,0.0,0.0,0.0,0.0,0.0,0.0,0.0,0.0,0.0,0.0,0.0,0.0,0.0,0.0,0.0,0.0,0.0,0.0,0.0,0.0,0.0,0.0,0.0,0.0,0.0,0.0,0.0,0.0,0.0,0.0,0.0,0.0,0.0,0.0,0.0,0.0,0.0,0.0,0.0,0.0,0.0,0.0,0.0,0.0,0.0,0.0,0.0,0.0,0.0,0.0,0.0,0.0,0.0,0.0,0.0,0.0,0.0,0.0,0.0,0.0,0.0,0.0,0.0,0.0,0.0,0.0,0.0,0.0,0.0,0.0,0.0,0.0,0.0,0.0,0.0,0.0,0.0,0.0,0.0,0.0,0.0,0.0,0.0,0.0,0.0,0.0,0.0,0.0,0.0,0.0,0.0,0.0,0.0,0.0,0.0,0.0,0.0,0.0,0.0,0.0,0.0,0.0,0.0,0.0,0.0,0.0,0.0,0.0,0.0,0.0,0.0,0.0,0.0,0.0,0.0,0.0,0.0,0.0,0.0,0.0,0.0,0.0,0.0,0.0,0.0,0.0,0.0,0.0,0.0,0.0,0.0,0.0,0.0,0.0,0.0,0.0,0.0,0.0,0.0,0.0,0.0,0.0,0.0,0.0,0.0,0.0,0.0,0.0,0.0,0.0,0.0,0.0,0.0,0.0,0.0,0.0,0.0,0.0,0.0,0.0,0.0,0.0,0.0,0.0,0.0,0.0,0.0,0.0,0.0,0.0,0.0,0.0,0.0,0.0,0.0,0.0,0.0,0.0,0.0,0.0,0.0,0.0,0.0,0.0,0.0,0.0,0.0,0.0,0.0,0.0,0.0,0.0,0.0,0.0,0.0,0.0,0.0,0.0,0.0,0.0,0.0,0.0,0.0,0.0,0.0,0.0,0.0,0.0,0.0,0.0,0.0,0.0,0.0,0.0,0.0,0.0,0.0,0.0,0.0,0.0,0.0,0.0,0.0,0.0,0.0,0.0,0.0,0.0,0.0,0.0,0.0,0.0,0.0,0.0,0.0,0.0,0.0,0.0,0.0,0.0,0.0,0.0,0.0,0.0,0.0,0.0,0.0,0.0,0.0,0.0,0.0,0.0,0.0,0.0,0.0,0.0,0.0,0.0,0.0,0.0,0.0,0.0,0.0,0.0,0.0,0.0,0.0,0.0,0.0,0.0,0.0,0.0,0.0,0.0,0.0,0.0,0.0,0.0,0.0,0.0,0.0,0.0,0.0,0.0,0.0,0.0,0.0,0.0,0.0,0.0,0.0,0.0,0.0,0.0,0.0,0.0,0.0,0.0,0.0,0.0,0.0,0.0,0.0,0.0,0.0,0.0,0.0,0.0,0.0,0.0,0.0,0.0,0.0,0.0,0.0,0.0,0.0,0.0,0.0,0.0,0.0,0.0,0.0,0.0,0.0,0.0,0.0,0.0,0.0,0.0,0.0,0.0,0.0,0.0,0.0,0.0,0.0,0.0,0.0,0.0,0.0,0.0,0.0,0.0,0.0,0.0,0.0,0.0,0.0,0.0,0.0,0.0,0.0,0.0,0.0,0.0,0.0,0.0,0.0,0.0,0.0,0.0,0.0,0.0,0.0,0.0,0.0,0.0,0.0,0.0,0.0,0.0,0.0,0.0,0.0,0.0,0.0,0.0,0.0,0.0,0.0,0.0,0.0,0.0,0.0,0.0,0.0,0.0,0.0,0.0,0.0,0.0,0.0,0.0,0.0,0.0,0.0,0.0,0.0,0.0,0.0,0.0,0.0,0.0,0.0,0.0,0.0,0.0,0.0,0.0,0.0,0.0,0.0,0.0,0.0,0.0,0.0,0.0,0.0,0.0,0.0,0.0,0.0,0.0,0.0,0.0,0.0,0.0,0.0,0.0,0.0,0.0,0.0,0.0,0.0,0.0,0.0,0.0,0.0,0.0,0.0,0.0,0.0,0.0,0.0,0.0,0.0,0.0,0.0,0.0,0.0,0.0,0.0,0.0,0.0,0.0,0.0,0.0,0.0,0.0,0.0,0.0,0.0,0.0,0.0,0.0,0.0,0.0,0.0,0.0,0.0,0.0,0.0,0.0,0.0,0.0,0.0,0.0,0.0,0.0,0.0,0.0,0.0,0.0,0.0,0.0,0.0,0.0,0.0,0.0,0.0,0.0,0.0,0.0,0.0,0.0,0.0,0.0,0.0,0.0,0.0,0.0,0.0,0.0,0.0,0.0,0.0,0.0,0.0,0.0,0.0,0.0,0.0,0.0,0.0,0.0,0.0,0.0,0.0,0.0,0.0,0.0,0.0,0.0,0.0,0.0,0.0,0.0,0.0,0.0,0.0,0.0,0.0,0.0,0.0,0.0,0.0,0.0,0.0,0.0,0.0,0.0,0.0,0.0,0.0,0.0,0.0,0.0,0.0,0.0,0.0,0.0,0.0,0.0,0.0,0.0,0.0,0.0,0.0,0.0,0.0,0.0,0.0,0.0,0.0,0.0,0.0,0.0,0.0,0.0,0.0,0.0,0.0,0.0,0.0,0.0,0.0,0.0,0.0,0.0,0.0,0.0,0.0,0.0,0.0,0.0,0.0,0.0,0.0,0.0,0.0,0.0,0.0,0.0,0.0,0.0,0.0,0.0,0.0,0.0,0.0,0.0,0.0,0.0,0.0,0.0,0.0,0.0,0.0,0.0,0.0,0.0,0.0,0.0,0.0,0.0,0.0,0.0,0.0,0.0,0.0,0.0,0.0,0.0,0.0,0.0,0.0,0.0,0.0,0.0,0.0,0.0,0.0,0.0,0.0,0.0,0.0,0.0,0.0,0.0,0.0,0.0,0.0,0.0,0.0,0.0,0.0,0.0,0.0,0.0,0.0,0.0,0.0,0.0,0.0,0.0,0.0,0.0,0.0,0.0,0.0,0.0,0.0,0.0,0.0,0.0,0.0,0.0,0.0,0.0,0.0,0.0,0.0,0.0,0.0,0.0,0.0,0.0,0.0,0.0,0.0,0.0,0.0,0.0,0.0,0.0,0.0,0.0,0.0,0.0,0.0,0.0,0.0,0.0,0.0,0.0,0.0,0.0,0.0,0.0,0.0,0.0,0.0,0.0,0.0,0.0,0.0,0.0,0.0,0.0,0.0,0.0,0.0,0.0,0.0,0.0,0.0,0.0,0.0,0.0,0.0,0.0,0.0,0.0,0.0,0.0,0.0,0.0,0.0,0.0,0.0,0.0,0.0,0.0,0.0,0.0,0.0,0.0,0.0,0.0,0.0,0.0,0.0,0.0,0.0,0.0,0.0,0.0,0.0,0.0,0.0,0.0,0.0,0.0,0.0,0.0,0.0,0.0,0.0,0.0,0.0,0.0,0.0,0.0,0.0,0.0,0.0,0.0,0.0,0.0,0.0,0.0,0.0,0.0,0.0,0.0,0.0,0.0,0.0,0.0,0.0,0.0,0.0,0.0,0.0,0.0,0.0,0.0,0.0,0.0,0.0,0.0,0.0,0.0,0.0,0.0,0.0,0.0,0.0,0.0,0.0,0.0,0.0,0.0,0.0,0.0,0.0,0.0,0.0,0.0,0.0,0.0,0.0,0.0,0.0,0.0,0.0,0.0,0.0,0.0,0.0,0.0,0.0,0.0,0.0,0.0,0.0,0.0,0.0,0.0,0.0,0.0,0.0,0.0,0.0,0.0,0.0,0.0,0.0,0.0,0.0,0.0,0.0,0.0,0.0,0.0,0.0,0.0,0.0,0.0,0.0,0.0,0.0,0.0,0.0,0.0,0.0,0.0,0.0,0.0,0.0,0.0,0.0,0.0,0.0,0.0,0.0,0.0,0.0,0.0,0.0,0.0,0.0,0.0,0.0,0.0,0.0,0.0,0.0,0.0,0.0,0.0,0.0,0.0,0.0,0.0,0.0,0.0,0.0,0.0,0.0,0.0,0.0,0.0,0.0,0.0,0.0,0.0,0.0,0.0,0.0,0.0,0.0,0.0,0.0,0.0,0.0,0.0,0.0,0.0,0.0,0.0,0.0,0.0,0.0,0.0,0.0,0.0,0.0,0.0,0.0,0.0,0.0,0.0,0.0,0.0,0.0,0.0,0.0,0.0,0.0,0.0,0.0,0.0,0.0,0.0,0.0,0.0,0.0,0.0,0.0,0.0,0.0,0.0,0.0,0.0,0.0,0.0,0.0,0.0,0.0,0.0,0.0,0.0,0.0,0.0,0.0,0.0,0.0,0.0,0.0,0.0,0.0,0.0,0.0,0.0,0.0,0.0,0.0,0.0,0.0,0.0,0.0,0.0,0.0,0.0,0.0,0.0,0.0,0.0,0.0,0.0,0.0,0.0,0.0,0.0,0.0,0.0,0.0,0.0,0.0,0.0,0.0,0.0,0.0,0.0,0.0,0.0,0.0,0.0,0.0,0.0,0.0,0.0,0.0,0.0,0.0,0.0,0.0,0.0,0.0,0.0,0.0,0.0,0.0,0.0,0.0,0.0,0.0,0.0,0.0,0.0,0.0,0.0,0.0,0.0,0.0,0.0,0.0,0.0,0.0,0.0,0.0,0.0,0.0,0.0,0.0,0.0,0.0,0.0,0.0,0.0,0.0,0.0,0.0,0.0,0.0,0.0,0.0,0.0,0.0,0.0,0.0,0.0,0.0,0.0,0.0,0.0,0.0,0.0,0.0,0.0,0.0,0.0,0.0,0.0,0.0,0.0,0.0,0.0,0.0,0.0,0.0,0.0,0.0,0.0,0.0,0.0,0.0,0.0,0.0,0.0,0.0,0.0,0.0,0.0,0.0,0.0,0.0,0.0,0.0,0.0,0.0,0.0,0.0,0.0,0.0,0.0,0.0,0.0,0.0,0.0,0.0,0.0,0.0,0.0,0.0,0.0,0.0,0.0,0.0,0.0,0.0,0.0,0.0,0.0,0.0,0.0,0.0,0.0,0.0,0.0,0.0,0.0,0.0,0.0,0.0,0.0,0.0,0.0,0.0,0.0,0.0,0.0,0.0,0.0,0.0,0.0,0.0,0.0,0.0,0.0,0.0,0.0,0.0,0.0,0.0,0.0,0.0,0.0,0.0,0.0,0.0,0.0,0.0,0.0,0.0,0.0,0.0,0.0,0.0,0.0,0.0,0.0,0.0,0.0,0.0,0.0,0.0,0.0,0.0,0.0,0.0,0.0,0.0,0.0,0.0,0.0,0.0,0.0,0.0,0.0,0.0,0.0,0.0,0.0,0.0,0.0,0.0,0.0,0.0,-2.0156,0.0,0.0,0.0,0.0,0.0,0.0,0.0,0.0,0.0,0.0,0.0,0.0,0.0,0.0,0.0,0.0,0.0,0.0,0.0,0.0,0.0,0.0,0.0,0.0,-1.2881,-1.2881,-1.2881,-1.2881,-1.2881,-1.2881,0.0,0.0,0.0,0.0,0.0,-1.3174,-1.3184,-1.3594,-1.4453,-1.4238,-1.4473,-1.5117,-1.5312,-1.5282,-1.5115,0.0,0.0,0.0,0.0,0.0,0.0,0.0,0.0,0.0,0.0,0.0,0.0,0.0,0.0,0.0,0.0,0.0,0.0,0.0,0.0,0.0,0.0,0.0,0.0,0.0,0.0,0.0,0.0,0.0,0.0,0.0,0.0,0.0,0.0,0.0,0.0,0.0,0.0,0.0,0.0,0.0,0.0,0.0,0.0,0.0,0.0,0.0,0.0,0.0,0.0,0.0,0.0,0.0,0.0,0.0,0.0,0.0,0.0,0.0,0.0,0.0,0.0,0.0,0.0,0.0,0.0,0.0,0.0,0.0,0.0,0.0,-2.0781,0.0,0.0,0.0,0.0,0.0,0.0,0.0,0.0,0.0,0.0,0.0,0.0,0.0,0.0,0.0,0.0,0.0,0.0,0.0,0.0,0.0,-1.2881,-1.2881,-1.2881,-1.2881,-1.2881,-1.2774,-1.2774,-1.2881,-1.2774,0.0,0.0,0.0,0.0,-1.3613,-1.3613,-1.3965,-1.4678,-1.4531,-1.4697,-1.5137,-1.5703,-1.6162,-1.6514,-1.5587,0.0,0.0,0.0,0.0,0.0,0.0,0.0,0.0,0.0,0.0,0.0,0.0,0.0,0.0,0.0,0.0,0.0,0.0,0.0,0.0,0.0,0.0,0.0,0.0,0.0,0.0,0.0,0.0,0.0,0.0,0.0,0.0,0.0,0.0,0.0,0.0,0.0,0.0,0.0,0.0,0.0,0.0,0.0,0.0,0.0,0.0,0.0,0.0,0.0,0.0,0.0,0.0,0.0,0.0,0.0,0.0,0.0,0.0,0.0,0.0,0.0,0.0,0.0,-2.3222,-2.2803,-2.2744,-2.3105,-2.3037,-2.2588,-2.2031,-2.1289,-2.0547,-2.1416,0.0,0.0,0.0,0.0,0.0,0.0,0.0,0.0,0.0,0.0,0.0,0.0,0.0,0.0,0.0,0.0,0.0,0.0,0.0,-1.2881,-1.2881,-1.2881,-1.2881,-1.2881,-1.2295,-1.2236,-1.2881,-1.2295,-1.2395,0.0,0.0,-1.3623,-1.399,-1.4,-1.4058,-1.4165,-1.5283,-1.6035,-1.6441,-1.7666,-1.8242,-1.8163,-1.5808,-1.4357,-1.3585,0.0,0.0,0.0,0.0,0.0,0.0,0.0,0.0,0.0,0.0,0.0,0.0,0.0,0.0,0.0,0.0,0.0,0.0,0.0,0.0,0.0,0.0,0.0,0.0,0.0,0.0,0.0,0.0,0.0,0.0,0.0,0.0,0.0,0.0,0.0,0.0,0.0,0.0,0.0,0.0,0.0,-2.1758,-2.177,0.0,0.0,0.0,0.0,0.0,0.0,0.0,0.0,0.0,0.0,0.0,0.0,0.0,-2.3464,-2.2572,-2.3357,-2.3732,-2.3801,-2.4085,-2.3975,-2.3623,-2.3682,-2.3467,-2.3096,-2.3721,0.0,-2.2646,-2.1709,0.0,0.0,0.0,0.0,0.0,0.0,0.0,0.0,0.0,0.0,0.0,0.0,0.0,0.0,0.0,0.0,0.0,0.0,0.0,0.0,0.0,-1.3232,-1.333,-1.3564,-1.3194,-1.2995,-1.3231,-1.281,-1.2784,-1.3124,-1.3154,-1.3467,-1.4068,-1.3896,-1.4131,-1.4853,-1.6162,-1.7031,-1.7471,-1.8262,-1.86,-1.8489,-1.7332,-1.6202,-1.5141,-1.4073,0.0,0.0,0.0,0.0,0.0,0.0,0.0,0.0,0.0,0.0,0.0,0.0,0.0,0.0,0.0,0.0,0.0,0.0,0.0,0.0,0.0,0.0,0.0,0.0,0.0,0.0,0.0,0.0,0.0,0.0,0.0,0.0,0.0,0.0,0.0,0.0,0.0,0.0,0.0,-2.2684,-2.2514,-2.1192,-2.2149,-2.2456,0.0,0.0,0.0,0.0,0.0,0.0,0.0,0.0,0.0,-2.395,-2.4348,-2.4386,-2.3945,-2.457,-2.501,-2.5254,-2.5439,-2.543,-2.5254,-2.5498,-2.5371,-2.499,-2.5361,-2.5312,-2.4863,-2.3564,-2.2959,-2.2822,0.0,0.0,0.0,0.0,-2.2939,-2.3047,0.0,0.0,0.0,0.0,0.0,0.0,0.0,0.0,0.0,0.0,0.0,0.0,-1.3613,-1.3769,-1.4004,-1.4424,-1.3929,-1.3683,-1.3791,-1.3113,-1.2869,-1.3182,-1.3203,-1.3545,-1.4277,-1.4209,-1.4736,-1.5918,-1.7227,-1.8144,-1.8682,-1.9219,-1.942,-1.9381,-1.9058,-1.8056,-1.6448,-1.4862,-1.4347,-1.4542,0.0,0.0,0.0,0.0,0.0,0.0,0.0,0.0,0.0,0.0,0.0,0.0,0.0,0.0,0.0,0.0,0.0,0.0,0.0,0.0,0.0,0.0,0.0,0.0,0.0,0.0,0.0,0.0,0.0,0.0,0.0,0.0,0.0,0.0,0.0,0.0,0.0,-2.3197,-2.2891,-2.1029,-2.2259,-2.2563,0.0,0.0,0.0,0.0,0.0,0.0,-2.3172,-2.4307,-2.4824,-2.4705,-2.5415,-2.5732,-2.5732,-2.6172,-2.6611,-2.7041,-2.7041,-2.7041,-2.7041,-2.7353,-2.7275,-2.6875,-2.6875,-2.6816,-2.6602,-2.5176,-2.4277,-2.3789,-2.3672,-2.3633,-2.3633,-2.3633,-2.3564,-2.3467,0.0,0.0,0.0,0.0,0.0,0.0,0.0,0.0,0.0,0.0,0.0,-1.3193,-1.3961,-1.4473,-1.4893,-1.5312,-1.4067,-1.367,-1.469,-1.2662,-1.2201,-1.3946,-1.4019,-1.4287,-1.4746,-1.5586,-1.6439,-1.7285,-1.8564,-1.9619,-2.0459,-2.1318,-2.1748,-2.1695,-2.0634,-1.8571,-1.5963,-1.6158,-1.6145,-1.5804,0.0,0.0,0.0,0.0,0.0,0.0,0.0,0.0,0.0,0.0,0.0,0.0,0.0,0.0,0.0,0.0,0.0,0.0,0.0,0.0,0.0,0.0,0.0,0.0,0.0,0.0,0.0,0.0,0.0,0.0,0.0,0.0,0.0,0.0,0.0,0.0,0.0,0.0,0.0,-2.1956,-2.2595,0.0,0.0,0.0,0.0,-2.3088,-2.3919,-2.4625,-2.5165,-2.5465,-2.6068,-2.6991,-2.7341,-2.7539,-2.7539,-2.7959,-2.8379,-2.8789,-2.8789,-2.8789,-2.8789,-2.8818,-2.8594,-2.8193,-2.8193,-2.7969,-2.7471,-2.5742,-2.5264,-2.5566,-2.5137,-2.4971,-2.4971,-2.4971,-2.4707,-2.4355,0.0,0.0,0.0,0.0,0.0,0.0,0.0,-1.2881,-1.2881,-1.2881,-1.3115,-1.3711,-1.4834,-1.5342,-1.6006,-1.6992,-1.5935,-1.5147,-1.4879,-1.3936,-1.3336,-1.3332,-1.38,-1.4463,-1.5176,-1.6592,-1.7744,-1.8603,-1.9902,-2.0977,-2.1826,-2.2139,-2.2432,-2.2685,-2.2236,-2.0934,-1.9084,-1.8009,-1.6983,-1.5922,-1.4968,-1.561,0.0,0.0,0.0,0.0,0.0,0.0,0.0,0.0,0.0,0.0,0.0,0.0,0.0,0.0,0.0,0.0,0.0,0.0,0.0,0.0,0.0,0.0,0.0,0.0,0.0,0.0,0.0,0.0,0.0,0.0,0.0,0.0,0.0,0.0,0.0,0.0,0.0,-2.3101,-2.387,0.0,-2.3292,-2.3669,-2.3993,-2.4386,-2.4736,-2.5355,-2.6373,-2.7019,-2.7708,-2.8267,-2.8711,-2.8887,-2.8887,-2.9033,-2.9189,-2.9336,-2.9336,-2.9336,-2.9336,-2.9336,-2.9258,-2.9121,-2.9121,-2.9033,-2.8838,-2.8223,-2.7256,-2.6113,-2.5674,-2.5498,-2.5498,-2.5498,-2.54,-2.5225,0.0,0.0,0.0,0.0,0.0,0.0,-1.2881,-1.2881,-1.2881,-1.2881,-1.3369,-1.4209,-1.5488,-1.6279,-1.7187,-1.834,-1.7237,-1.6324,-1.5797,-1.4771,-1.4001,-1.3543,-1.4342,-1.5186,-1.6055,-1.7764,-1.9082,-1.9941,-2.1103,-2.2031,-2.2725,-2.2725,-2.2871,-2.3135,-2.3135,-2.2524,-2.1603,-2.0508,-1.9009,-1.7156,-1.6113,-1.6334,-1.7072,0.0,0.0,0.0,0.0,0.0,0.0,0.0,0.0,0.0,0.0,0.0,0.0,0.0,0.0,0.0,0.0,0.0,0.0,0.0,0.0,0.0,0.0,0.0,0.0,0.0,0.0,0.0,0.0,0.0,0.0,0.0,0.0,0.0,0.0,0.0,-2.3919,-2.4229,-2.5125,-2.5498,-2.4922,-2.4873,-2.5176,-2.5889,-2.6074,-2.6602,-2.7607,-2.8467,-2.9062,-2.9346,-2.9785,-3.0019,-3.0019,-3.0019,-3.0019,-3.0019,-3.0019,-3.0019,-3.0019,-3.0019,-3.0019,-3.001,-2.9853,-2.9785,-2.9766,-2.9629,-2.874,-2.7412,-2.6982,-2.6641,-2.6387,-2.6387,-2.6299,-2.6123,0.0,0.0,0.0,0.0,0.0,-1.2881,-1.2881,-1.2881,-1.2881,-1.2881,-1.3623,-1.4648,-1.5947,-1.7246,-1.8379,-1.9248,-1.7793,-1.6999,-1.7356,-1.5032,-1.4005,-1.4844,-1.5654,-1.6596,-1.7441,-1.9102,-2.0391,-2.1279,-2.2119,-2.2744,-2.3135,-2.3135,-2.3135,-2.3135,-2.3154,-2.3154,-2.3184,-2.3623,-2.2216,-1.9607,-1.8488,-1.829,-1.861,0.0,0.0,0.0,0.0,0.0,0.0,0.0,0.0,0.0,0.0,0.0,0.0,0.0,0.0,0.0,0.0,0.0,0.0,0.0,0.0,0.0,0.0,0.0,0.0,0.0,0.0,0.0,0.0,0.0,0.0,0.0,0.0,0.0,-2.3158,-2.4331,-2.5145,-2.5384,-2.6344,-2.6748,-2.5937,-2.6611,-2.7266,-2.7695,-2.8115,-2.8525,-2.8935,-2.9766,-3.0215,-3.0215,-3.0654,-3.0889,-3.0889,-3.0889,-3.0889,-3.0889,-3.0889,-3.0889,-3.0889,-3.0889,-3.0889,-3.0869,-3.042,-3.0215,-3.0185,-2.9785,-2.96,-2.9541,-2.9111,-2.8437,-2.7705,-2.7705,-2.7422,-2.7041,0.0,0.0,0.0,0.0,0.0,-1.2881,-1.2881,-1.2881,-1.2881,-1.2881,-1.3887,-1.5107,-1.6406,-1.7695,-1.8936,-2.0117,-1.8643,-1.7472,-1.7008,-1.5699,-1.5282,-1.6172,-1.6728,-1.7715,-1.918,-2.0303,-2.1299,-2.2158,-2.2705,-2.3027,-2.3135,-2.3135,-2.3135,-2.3154,-2.3467,-2.3613,-2.3643,-2.4062,-2.3783,-2.2926,-2.0754,-1.9916,-1.9877,0.0,0.0,0.0,0.0,0.0,0.0,0.0,0.0,0.0,0.0,0.0,0.0,0.0,0.0,0.0,0.0,0.0,0.0,0.0,0.0,0.0,0.0,0.0,0.0,0.0,0.0,0.0,0.0,0.0,0.0,0.0,-2.2436,-2.3659,-2.4021,-2.469,-2.5545,-2.6933,-2.7865,-2.8428,-2.8506,-2.873,-2.8916,-2.9043,-2.9434,-2.9726,-2.9834,-3.0391,-3.0703,-3.0703,-3.082,-3.0889,-3.0889,-3.0889,-3.0889,-3.0889,-3.0889,-3.0889,-3.0889,-3.0889,-3.0889,-3.0889,-3.0752,-3.0703,-3.0693,-3.0576,-3.0322,-2.998,-2.956,-2.9053,-2.8574,-2.8574,-2.8115,-2.7529,0.0,0.0,0.0,0.0,0.0,-1.2881,-1.2881,-1.2881,-1.2881,-1.2881,-1.415,-1.5478,-1.6548,-1.7871,-1.9014,-1.9951,-1.8633,-1.7465,-1.6806,-1.6437,-1.6543,-1.7236,-1.8203,-1.9268,-2.0439,-2.1328,-2.21,-2.2773,-2.3018,-2.3232,-2.3408,-2.3408,-2.3506,-2.3682,-2.3935,-2.4053,-2.4082,-2.4512,-2.4687,-2.4619,-2.3229,-2.2224,-2.1268,-2.0108,-1.9759,-1.9894,-1.9705,-1.9421,-1.8942,-1.814,0.0,0.0,0.0,0.0,0.0,0.0,0.0,0.0,0.0,0.0,0.0,0.0,0.0,0.0,0.0,0.0,0.0,0.0,0.0,0.0,0.0,0.0,0.0,0.0,-2.3192,-2.4675,-2.5621,-2.6051,-2.666,-2.8027,-2.8935,-2.9551,-2.9805,-3.001,-3.0117,-3.0117,-3.0351,-3.0566,-3.0742,-3.084,-3.1055,-3.1416,-3.1074,-3.0976,-3.1152,-3.0976,-3.0889,-3.0889,-3.0889,-3.0889,-3.0889,-3.0889,-3.0889,-3.0889,-3.0889,-3.0889,-3.0889,-3.0889,-3.0732,-3.0449,0.0,0.0,0.0,0.0,-2.8496,-2.7959,0.0,0.0,0.0,-1.2881,-1.2881,-1.2881,-1.2881,-1.2881,-1.2881,-1.2881,-1.4316,-1.5644,-1.6426,-1.7695,-1.8672,-1.9102,-1.8018,-1.7168,-1.6826,-1.7168,-1.7656,-1.8271,-1.9853,-2.0918,-2.1367,-2.2217,-2.2812,-2.3135,-2.3135,-2.3359,-2.3789,-2.3789,-2.4014,-2.4424,-2.4521,-2.457,-2.46,-2.5088,-2.5283,-2.5322,-2.5723,-2.4659,-2.2868,-2.2342,-2.175,-2.1099,-2.1259,-2.1325,-2.0962,-1.9461,0.0,0.0,0.0,0.0,0.0,0.0,0.0,0.0,0.0,0.0,0.0,0.0,0.0,0.0,0.0,0.0,0.0,0.0,0.0,0.0,0.0,0.0,0.0,0.0,-2.4189,-2.5508,-2.7588,-2.792,-2.8232,-2.8975,-2.9736,-3.0234,-3.0332,-3.0684,-3.0947,-3.1025,-3.1016,-3.1172,-3.1572,0.0,0.0,0.0,0.0,-3.1211,-3.1592,-3.1221,-3.1016,-3.0957,-3.0957,-3.0937,-3.0889,-3.0889,-3.0889,-3.0889,-3.0889,-3.0889,-3.0889,-3.0889,-3.0889,-3.084,-3.0322,-2.9902,-2.9512,-2.9023,-2.8613,-2.8291,0.0,0.0,0.0,-1.2881,-1.2881,-1.2881,-1.2881,-1.2881,-1.2881,-1.2881,-1.4062,-1.4971,-1.5146,-1.6631,-1.7793,-1.8223,-1.7402,-1.6973,-1.7246,-1.7334,-1.8184,-1.999,-2.1074,-2.1836,-2.2256,-2.3105,-2.3408,-2.3135,-2.3135,-2.3359,-2.3789,-2.3789,-2.4014,-2.4443,-2.5166,-2.5488,-2.5527,-2.6309,-2.6641,-2.665,-2.6728,-2.6051,-2.4977,-2.4224,-2.358,-2.3142,-2.2483,-2.1855,-2.108,-1.947,-1.9363,-1.9365,-1.655,0.0,0.0,0.0,0.0,0.0,0.0,0.0,0.0,0.0,0.0,0.0,0.0,0.0,0.0,0.0,0.0,0.0,0.0,0.0,0.0,-2.501,-2.625,-2.7539,-2.9004,-2.9492,-2.9766,-2.9932,-3.0098,-3.0478,-3.1191,-3.1348,-3.1496,-3.1875,-3.1988,-3.1997,-3.2031,-3.1963,-3.2002,-3.2158,-3.2012,-3.1963,-3.2041,-3.1963,-3.1748,-3.1396,-3.1396,0.0,-3.0889,-3.0889,-3.0889,-3.0889,-3.0889,-3.0889,-3.0889,-3.0889,-3.0889,-3.081,-3.001,-2.9648,-2.9473,-2.8701,-2.8359,-2.8291,0.0,0.0,0.0,-1.2881,-1.2881,-1.2881,-1.2881,-1.2881,-1.2881,-1.2881,-1.3799,-1.4541,-1.4756,-1.5752,-1.6484,-1.6689,-1.6318,-1.6533,-1.7627,-1.8301,-1.9424,-2.1152,-2.2051,-2.2715,-2.3144,-2.3359,-2.3564,-2.3779,-2.3564,-2.3799,-2.4434,-2.4434,-2.4775,-2.543,-2.5869,-2.6182,-2.6416,-2.707,-2.7344,-2.7363,-2.7568,-2.7402,-2.6924,-2.6045,-2.5449,-2.501,-2.4355,-2.3727,-2.3044,-2.1797,-2.1095,-2.0354,-1.8164,-1.7885,-1.8051,0.0,0.0,0.0,0.0,0.0,0.0,0.0,0.0,0.0,0.0,0.0,0.0,0.0,0.0,-2.207,-2.2705,0.0,-2.5449,-2.6533,-2.7598,-2.8662,-2.9736,-3.0068,-3.0283,-3.0518,-3.0547,-3.0848,-3.1466,-3.1544,-3.1699,-3.2129,-3.2158,-3.2338,-3.2515,-3.2256,-3.2363,-3.2783,-3.2383,-3.2275,-3.248,-3.2275,-3.206,-3.1846,-3.1846,-3.1621,-3.1201,-3.1201,-3.1094,-3.0889,-3.0889,-3.0889,-3.0889,-3.0889,-3.0889,-3.082,-3.0146,-2.9883,-2.9805,-2.917,-2.8799,-2.8574,0.0,0.0,0.0,-1.2666,-1.2822,-1.2881,-1.2881,-1.2881,-1.2881,-1.2881,-1.3545,-1.4121,-1.4385,-1.4863,-1.5166,-1.5166,-1.54,-1.6269,-1.8018,-1.9248,-2.0615,-2.2187,-2.2988,-2.3555,-2.3906,-2.3652,-2.3809,-2.4414,-2.416,-2.4434,-2.5205,-2.5283,-2.5752,-2.6514,-2.668,-2.6739,-2.6862,-2.7707,-2.7699,-2.7176,-2.8183,-2.8153,-2.745,-2.7103,-2.6807,-2.6445,-2.5928,-2.5342,-2.4727,-2.3837,-2.2875,-2.1789,-1.9845,-1.9273,-1.8856,-1.682,-1.7854,0.0,0.0,0.0,0.0,0.0,0.0,0.0,0.0,0.0,-2.0996,-2.2139,-2.2852,-2.3584,-2.4609,-2.5869,-2.7041,-2.79,-2.8672,-2.9443,-3.0215,-3.0332,-3.0469,-3.085,-3.1025,-3.1269,-3.1673,-3.1789,-3.19,-3.2383,-3.2445,-3.2562,-3.2897,-3.2672,-3.2725,-3.3398,-3.2764,-3.2578,-3.291,-3.2578,-3.2373,-3.2285,-3.2285,-3.2021,-3.1514,-3.1514,-3.1289,-3.0889,-3.0889,-3.0889,-3.0889,-3.0889,-3.0889,-3.0859,-3.0478,-3.0332,-3.0264,-2.9668,-2.9219,-2.8857,0.0,0.0,0.0,0.0,0.0,-1.2881,-1.2881,-1.2881,-1.2881,-1.2881,-1.3281,-1.3457,-1.3135,-1.3799,-1.4223,-1.4223,-1.5322,-1.6728,-1.8457,-1.9414,-2.1006,-2.3477,-2.4023,-2.4297,-2.4346,-2.4678,-2.4707,-2.4414,-2.4756,-2.5176,-2.5674,-2.6064,-2.6494,-2.6973,-2.7744,-2.7321,-2.6182,-2.8435,-2.7724,-2.5307,-2.8239,-2.7586,-2.4867,-2.6265,-2.677,-2.6836,-2.6025,-2.4961,-2.3783,-2.2833,-2.273,-2.2523,-1.9511,-2.012,-2.1243,-1.8172,0.0,-1.882,-1.9153,-1.9883,-2.0635,-2.0937,-2.1055,-2.1484,0.0,0.0,-2.3506,-2.4023,-2.5098,-2.6006,-2.6143,-2.7217,-2.8359,-2.9219,-2.9746,-3.0234,-3.0742,-3.081,-3.083,-3.0889,-3.12,-3.1752,-3.2598,-3.2674,-3.2794,-3.3184,-3.3301,-3.332,-3.333,-3.3301,-3.333,-3.3418,-3.333,-3.3301,-3.335,-3.331,-3.3096,-3.2725,-3.2725,-3.2305,-3.1514,-3.1514,-3.1289,-3.0889,-3.0889,-3.0889,-3.0889,-3.0889,-3.0889,-3.0889,-3.083,-3.081,-3.0664,-2.9443,-2.8965,-2.8857,0.0,0.0,0.0,0.0,0.0,-1.2881,-1.2881,-1.2881,-1.2881,-1.2881,-1.3037,-1.3076,-1.29,-1.3193,-1.3343,-1.3156,-1.4715,-1.6523,-1.8506,-1.9922,-2.1611,-2.3701,-2.4199,-2.4531,-2.4785,-2.4727,-2.498,-2.5566,-2.5498,-2.581,-2.6494,-2.5956,-2.5934,-2.6352,-2.6035,-2.5621,-2.5281,-2.6513,-2.6145,-2.4803,-2.642,-2.605,-2.4524,-2.4896,-2.4698,-2.415,-2.3707,-2.3281,0.0,-2.1446,-2.0946,-2.0598,-1.8884,-1.8894,-1.9007,-1.6943,-1.7325,0.0,-1.9312,-2.0433,0.0,0.0,-2.1485,-2.1891,-2.3745,-2.368,-2.372,-2.5538,-2.6572,-2.7285,-2.7773,-2.8701,-2.9521,0.0,-3.0312,-3.0674,-3.0859,-3.0889,-3.0889,-3.0889,-3.122,-3.1711,-3.2356,-3.2873,-3.327,-3.3764,-3.3827,-3.376,-3.3759,-3.3594,-3.3418,-3.3418,-3.3418,-3.3418,-3.3418,-3.3418,-3.334,-3.3164,-3.3164,-3.2842,-3.2266,-3.2266,-3.1894,-3.124,-3.0996,-3.0889,-3.0889,-3.0889,-3.0889,-3.0889,-3.0889,-3.0889,-3.0791,-2.9961,-2.9668,-2.96,0.0,0.0,0.0,0.0,0.0,-1.2666,-1.2881,-1.2881,-1.2881,-1.2881,-1.2881,-1.2881,-1.2881,-1.2881,-1.2801,-1.2633,-1.4112,-1.5977,-1.8154,-1.9805,-2.1621,-2.3701,-2.4199,-2.4736,-2.542,-2.5127,-2.5488,-2.6562,-2.6367,-2.6429,-2.6721,-2.5934,-2.5546,-2.5491,-2.4728,-2.4347,-2.426,-2.5074,-2.4843,-2.3808,-2.5003,-2.4714,-2.3426,-2.331,-2.2328,-2.1059,-2.1328,-2.1232,-2.0896,-1.9698,-1.9071,-1.8718,-1.808,-1.7986,-1.7795,-1.6023,-1.6667,-1.8099,-1.9019,0.0,0.0,-2.1339,-2.1798,-2.2546,-2.4117,-2.445,-2.4913,-2.7108,-2.7978,-2.8555,-2.916,-2.9883,-3.0391,-3.0391,-3.0674,-3.0889,-3.0889,-3.0889,-3.084,-3.0684,-3.1116,-3.1466,-3.1806,-3.2735,-3.3469,-3.4092,-3.3917,-3.4005,-3.4089,-3.3593,-3.3418,-3.3418,-3.3418,-3.3418,-3.3418,-3.3418,-3.3418,-3.3418,-3.3418,-3.3203,-3.2793,-3.2549,-3.2109,-3.1494,-3.1074,-3.0889,-3.0889,-3.0889,-3.0889,-3.0889,-3.0889,-3.0889,-3.085,-3.0518,-3.0303,-3.0137,0.0,0.0,0.0,0.0,0.0,-1.208,-1.2774,-1.2881,-1.2881,-1.2881,-1.2881,-1.2881,-1.2881,-1.2881,-1.2881,-1.29,-1.3682,-1.5098,-1.7275,-1.8633,-2.0674,-2.3662,-2.4199,-2.5029,-2.6318,-2.6338,-2.6543,-2.6992,-2.7402,-2.7055,-2.5909,-2.6322,-2.5796,-2.477,-2.5123,-2.4348,-2.3088,-2.5092,-2.414,-2.1447,-2.4747,-2.3741,-2.0402,-2.1494,-2.0127,-1.7991,-1.9685,-1.9201,-1.7677,-1.7733,-1.7644,-1.7442,-1.7031,-1.8216,0.0,-1.6546,-1.6204,-1.6851,0.0,0.0,-1.8921,-1.9963,-2.1859,-2.3636,-2.4621,-2.6492,-2.832,-2.8769,-2.9531,-3.0127,-3.0156,-3.0547,-3.0869,-3.0869,-3.0879,-3.0889,-3.0889,-3.0889,-3.0693,-3.027,-3.061,-3.0872,0.0,-3.2099,-3.3135,-3.4092,-3.371,-3.3662,-3.4089,-3.3593,-3.3418,-3.3418,-3.3418,-3.3418,-3.3418,-3.3418,-3.3418,-3.3418,-3.3418,-3.3203,-3.2764,-3.1934,-3.1543,-3.1494,-3.1074,-3.0889,-3.0889,-3.0889,-3.0889,-3.0889,-3.0889,-3.0889,-3.0889,-3.0869,-3.0586,-3.0137,0.0,0.0,0.0,0.0,0.0,0.0,-1.2187,-1.2608,-1.2881,-1.2881,-1.2881,0.0,0.0,0.0,0.0,0.0,-1.2939,-1.4176,-1.5986,-1.8096,-1.999,-2.1582,-2.3164,-2.4336,-2.5068,-2.5361,-2.6006,-2.7012,-2.7168,-2.6826,-2.6054,-2.5578,-2.4563,-2.3204,-2.3017,-2.2482,-2.2131,-2.2722,-2.2391,-2.1477,-2.1966,-2.1474,-2.0496,-1.9553,-1.8276,-1.6935,0.0,-1.6361,-1.6047,-1.505,-1.514,-1.5446,-1.4842,-1.5701,-1.6668,-1.5957,-1.6228,-1.6959,0.0,0.0,-2.1362,-2.1235,-2.2196,-2.3367,-2.4217,-2.5216,-2.6415,-2.7471,-2.8328,-2.8935,-2.8935,-2.9062,-2.9258,-2.9531,-3.0322,-3.0889,-3.0889,-3.1377,-3.124,-3.0015,-3.064,0.0,0.0,0.0,0.0,-3.4056,-3.3633,-3.3837,-3.4941,-3.4277,-3.3984,-3.4258,-3.4267,-3.4267,-3.4267,-3.4267,-3.4131,-3.3848,-3.3555,-3.335,-3.3193,-3.2627,-3.2363,-3.2324,-3.1611,-3.1309,-3.1289,-3.1006,-3.0889,-3.0889,-3.0889,-3.0889,-3.0889,-3.0889,-3.0791,-3.0635,0.0,0.0,0.0,0.0,0.0,0.0,0.0,0.0,0.0,0.0,0.0,0.0,0.0,0.0,0.0,0.0,0.0,-1.3267,-1.4706,-1.6555,-1.7986,-1.9023,-2.0448,-2.1561,-2.234,-2.2847,-2.3601,-2.4613,-2.4979,-2.4711,-2.3815,-2.3454,-2.2567,-2.1353,-2.1108,-2.0982,-2.1076,-2.0969,-2.0869,-2.0702,-1.992,-1.9533,-1.9259,-1.7802,-1.67,0.0,-1.4502,-1.4262,-1.4387,-1.3274,-1.3326,-1.3903,-1.3412,-1.4089,-1.5065,-1.5382,-1.6056,-1.6814,0.0,-1.9392,-2.1187,-2.1048,-2.2092,-2.317,-2.3613,-2.4468,-2.5378,-2.6047,-2.6958,-2.7416,-2.7227,-2.7497,-2.8027,-2.8603,-2.9414,-3.0185,-3.0801,-3.1221,-3.1113,-3.0156,-3.0169,-3.0068,0.0,0.0,0.0,-3.371,-3.3621,-3.3887,-3.5068,-3.4609,-3.4424,-3.4687,-3.4697,-3.4697,-3.4697,-3.4551,-3.4258,-3.3838,-3.3555,-3.3418,-3.3408,-3.2988,-3.2715,-3.2529,-3.1826,-3.1435,-3.1269,-3.1006,-3.0889,-3.0889,-3.0889,-3.0889,-3.0889,-3.0889,-3.0889,-3.0889,0.0,0.0,0.0,0.0,0.0,0.0,0.0,0.0,0.0,0.0,0.0,0.0,0.0,0.0,0.0,0.0,0.0,0.0,-1.3634,-1.4118,-1.4944,-1.6171,-1.639,-1.7212,-1.8646,-1.9234,-1.9743,-2.0219,-2.1354,-2.1077,-1.9721,-2.0279,-2.0068,-1.9219,-1.9539,-1.984,-2.008,-1.9806,-1.9526,-1.9219,-1.8604,-1.7856,-1.7007,-1.6106,-1.5237,-1.4389,-1.352,0.0,0.0,0.0,0.0,0.0,0.0,0.0,-1.4609,-1.495,-1.5678,-1.6553,-1.7435,-1.8225,-1.889,-1.9633,-2.1442,-2.3073,-2.2959,-2.4236,-2.5301,-2.4686,-2.5316,-2.5765,0.0,0.0,-2.7124,-2.798,-2.8116,-2.8784,-3.0471,-3.0374,-3.0267,0.0,0.0,0.0,0.0,0.0,0.0,-3.2806,0.0,-3.3661,-3.4717,-3.4746,-3.4746,-3.4766,-3.4766,-3.4766,-3.4766,-3.4355,-3.3906,-3.3457,-3.3457,-3.3447,-3.3408,-3.3008,-3.2607,-3.2207,-3.1748,-3.1338,-3.0986,-3.0918,-3.0898,-3.0918,-3.0898,-3.0889,-3.0889,-3.0889,-3.0889,-3.0889,0.0,0.0,0.0,0.0,0.0,0.0,0.0,0.0,0.0,0.0,0.0,0.0,0.0,0.0,0.0,0.0,0.0,0.0,-1.2256,-1.3332,-1.3888,-1.3706,-1.4921,-1.6095,-1.6983,-1.7512,-1.8232,-1.9143,-1.9695,-1.9287,-1.8186,-1.8768,-1.8389,-1.7094,-1.7822,-1.819,-1.8257,-1.8176,-1.8103,-1.7949,-1.6921,-1.65,-1.6373,-1.5271,-1.4583,-1.4108,0.0,0.0,0.0,0.0,0.0,0.0,0.0,0.0,-1.5037,-1.5985,-1.6894,-1.7789,-1.8671,-2.0134,-2.1289,-2.0578,-2.176,-2.2601,-2.1519,-2.2213,-2.2821,-2.2143,-2.3047,-2.3817,0.0,0.0,0.0,-2.5263,-2.6081,0.0,-2.7813,-2.8338,0.0,0.0,0.0,-2.7897,-2.7366,-2.7079,0.0,0.0,-3.0552,-3.2549,-3.5451,-3.5381,-3.5361,-3.5674,-3.5684,-3.5684,-3.5684,-3.5264,-3.4668,-3.3906,-3.3906,-3.374,-3.3418,-3.331,-3.3203,-3.3057,-3.2324,-3.2119,-3.2236,-3.1279,-3.1074,-3.1328,-3.1016,-3.0889,-3.0889,-3.0889,-3.0889,-3.0889,0.0,0.0,0.0,0.0,0.0,0.0,0.0,0.0,0.0,0.0,0.0,0.0,0.0,0.0,0.0,0.0,0.0,0.0,0.0,-1.2088,-1.2087,-1.1259,-1.2019,-1.2798,-1.3431,-1.4193,-1.4828,-1.5372,-1.6258,-1.628,-1.5485,-1.6045,-1.5986,-1.5337,-1.5959,-1.6386,-1.6613,-1.6486,-1.6433,0.0,0.0,-1.501,-1.4843,-1.4041,-1.3561,0.0,0.0,0.0,0.0,0.0,0.0,-1.4315,-1.4877,-1.5451,-1.6132,-1.7181,0.0,-1.8791,-1.9539,-2.0667,-2.1582,-2.1037,-2.1376,-2.1652,-2.0429,-2.0427,-2.0415,-1.9227,-2.014,0.0,0.0,0.0,0.0,0.0,0.0,0.0,-2.6649,-2.7309,-2.758,0.0,-2.723,0.0,-2.6542,-2.5867,-2.614,0.0,-2.8893,-3.069,-3.3111,-3.3997,-3.4501,-3.4727,-3.5587,-3.5928,-3.5752,-3.5312,-3.4746,-3.4072,-3.3877,-3.3652,-3.3418,-3.3418,-3.332,-3.3115,-3.2646,-3.2471,-3.2451,-3.1543,-3.1309,-3.1475,-3.1055,-3.0889,-3.0889,-3.0889,-3.0889,-3.0889,0.0,0.0,0.0,0.0,0.0,0.0,0.0,0.0,0.0,0.0,-1.1216,-1.1715,0.0,0.0,0.0,0.0,0.0,0.0,0.0,0.0,0.0,-0.9165,-0.8938,-0.9065,-0.9613,-1.0594,-1.1038,0.0,0.0,-1.2983,-1.26,-1.3086,-1.3487,-1.3748,-1.4035,-1.4476,-1.497,-1.4716,-1.4636,-1.4623,-1.4068,-1.3547,-1.306,0.0,0.0,0.0,0.0,0.0,0.0,0.0,-1.5157,-1.5404,-1.6246,-1.6907,-1.7562,-1.8457,-1.9112,-1.9666,-2.0247,-2.0628,-2.0902,-2.1116,-2.0922,-2.0434,-1.9519,-1.8985,-1.8217,-1.6553,0.0,-1.7933,-1.6921,0.0,-2.0378,-2.129,0.0,-2.3753,-2.604,-2.6328,-2.6581,-2.7645,-2.655,-2.5622,-2.5666,-2.4274,-2.4348,-2.6577,-2.7439,-2.8599,-2.9675,-3.1704,-3.2883,-3.2883,-3.4443,-3.5113,-3.4979,-3.4631,-3.4357,-3.415,-3.3838,-3.3515,-3.3193,-3.3135,-3.2786,-3.2306,-3.2449,-3.2237,-3.2041,-3.1677,-3.1631,-3.1641,-3.1162,-3.085,-3.0723,-3.0791,-3.0762,-3.0635,0.0,0.0,0.0,0.0,0.0,0.0,0.0,0.0,0.0,0.0,-1.021,-1.1174,0.0,0.0,0.0,0.0,0.0,0.0,0.0,0.0,0.0,0.0,-0.8831,-0.8965,-0.9256,0.0,0.0,0.0,0.0,0.0,-1.1303,-1.165,-1.1837,-1.1897,-1.2198,-1.2518,-1.2839,-1.2786,-1.2906,-1.3178,-1.2752,-1.2552,-1.2452,0.0,0.0,0.0,0.0,0.0,0.0,0.0,-1.6166,-1.6881,-1.7535,-1.8143,-1.8791,-1.9673,-2.018,-2.0581,-2.1162,-2.1537,-2.171,-2.1523,-2.1076,-2.0381,-1.9259,-1.8196,0.0,0.0,0.0,-1.6951,-1.6361,-1.7439,0.0,-1.9844,0.0,0.0,0.0,0.0,-2.3845,0.0,0.0,0.0,0.0,0.0,0.0,0.0,-2.4946,-2.6435,-3.0053,-3.056,-3.0734,-3.0734,-3.1166,-3.1835,-3.2993,-3.3249,-3.3844,-3.46,-3.4902,-3.4032,-3.218,-3.1842,-3.0847,-2.9415,-3.0227,-3.0864,-3.1038,-3.1731,-3.2256,-3.249,-3.1719,-3.0534,-2.9499,-3.0526,-3.002,-2.903,0.0,0.0,0.0,0.0,0.0,0.0,0.0,-0.8804,-0.8804,-0.8804,-0.9361,-1.002,-1.0685,-1.0771,-1.1074,0.0,0.0,0.0,0.0,0.0,0.0,0.0,0.0,0.0,0.0,0.0,0.0,0.0,0.0,0.0,0.0,0.0,0.0,0.0,0.0,0.0,0.0,-1.2011,-1.2245,-1.2505,-1.2358,0.0,0.0,0.0,0.0,0.0,0.0,0.0,0.0,0.0,-1.6266,-1.7562,-1.8624,-1.9359,-1.998,-2.0708,-2.1022,-2.1229,-2.1663,-2.1884,-2.1917,-2.1623,-2.0882,-1.9873,-1.8531,0.0,0.0,0.0,0.0,-1.5481,-1.517,0.0,0.0,0.0,0.0,0.0,0.0,0.0,0.0,0.0,0.0,0.0,0.0,0.0,0.0,0.0,0.0,-2.5513,-2.7193,-2.8334,-2.9497,-3.0718,-3.0508,-3.0743,-3.1623,-3.1417,-3.1677,-3.2133,-3.2133,-3.1475,-3.0326,-3.0083,-2.9503,-2.8675,-2.9057,-2.931,-2.9431,-2.9651,-2.9906,-3.0013,-2.9315,-2.8579,-2.7738,-2.8303,-2.7979,-2.7349,0.0,0.0,0.0,0.0,0.0,0.0,-0.8804,-0.8804,-0.8804,-0.8804,-0.8804,-0.9008,-0.951,-1.0167,-1.0669,0.0,0.0,0.0,0.0,0.0,0.0,0.0,0.0,0.0,0.0,0.0,0.0,0.0,0.0,0.0,0.0,0.0,0.0,0.0,0.0,0.0,0.0,0.0,0.0,0.0,0.0,0.0,0.0,0.0,0.0,0.0,0.0,0.0,0.0,0.0,-1.5865,-1.7361,-1.8784,-1.9853,-2.0661,-2.1062,-2.1443,-2.179,-2.2017,-2.2171,-2.2184,-2.183,-2.0762,-1.9412,-1.7923,-1.6807,0.0,0.0,0.0,-1.4355,-1.4128,0.0,0.0,0.0,0.0,0.0,0.0,0.0,0.0,0.0,0.0,0.0,0.0,0.0,0.0,0.0,-2.5137,-2.507,-2.4836,-2.627,-2.7909,-2.9797,-2.9431,-2.9537,-3.0026,-2.9478,-2.9477,-2.9889,-2.9461,-2.9053,-2.863,-2.8333,-2.8004,-2.7589,-2.7563,-2.7643,-2.7619,-2.7597,-2.7613,-2.758,-2.7218,-2.6596,-2.5996,-2.6289,-2.6093,-2.5651,0.0,0.0,0.0,0.0,0.0,0.0,-0.8804,-0.8804,-0.8804,-0.8804,-0.8804,-0.8804,-0.891,-0.951,-1.0167,0.0,0.0,0.0,0.0,0.0,0.0,0.0,0.0,0.0,0.0,0.0,0.0,0.0,0.0,0.0,0.0,0.0,0.0,0.0,0.0,0.0,0.0,0.0,0.0,0.0,0.0,0.0,0.0,0.0,0.0,0.0,0.0,0.0,0.0,0.0,0.0,-1.5812,-1.7014,-1.8718,-2.0234,-2.002,0.0,0.0,-2.2372,-2.2779,-2.3066,-2.2485,-2.1056,-1.9412,-1.7923,0.0,0.0,0.0,-1.4108,-1.4122,-1.4088,-1.4369,0.0,0.0,0.0,-1.7709,0.0,0.0,0.0,0.0,0.0,0.0,0.0,0.0,0.0,0.0,-2.5324,-2.5464,-2.5431,-2.5577,-2.5627,-2.5711,-2.565,-2.6228,-2.7833,-2.7772,-2.8582,-3.026,-3.0227,-2.9226,-2.7674,-2.7017,-2.5908,-2.4248,-2.5257,-2.5778,-2.5912,-2.7471,-2.8122,-2.8089,-2.7588,-2.6327,-2.4955,-2.6012,-2.5508,-2.4386,0.0,0.0,0.0,0.0,0.0,0.0,-0.8804,-0.8804,-0.8804,-0.8804,-0.8804,-0.8804,-0.8804,-0.9061,-0.9316,-0.9562,-1.0218,0.0,0.0,0.0,0.0,0.0,0.0,0.0,0.0,0.0,-1.006,-0.9947,0.0,0.0,0.0,0.0,0.0,0.0,0.0,0.0,0.0,0.0,0.0,0.0,0.0,0.0,0.0,0.0,0.0,0.0,0.0,0.0,0.0,0.0,0.0,0.0,-1.5157,-1.6473,0.0,0.0,-2.0668,-2.1784,-2.2492,-2.3133,-2.3407,-2.2612,-2.1096,-1.9412,-1.7923,0.0,-1.4937,-1.4235,-1.3941,-1.3874,-1.4055,-1.4035,-1.4322,-1.5324,-1.5431,-1.6192,0.0,0.0,0.0,0.0,0.0,0.0,0.0,0.0,0.0,0.0,-2.5879,-2.5965,-2.5792,-2.5444,-2.5277,-2.5337,-2.4997,-2.5127,-2.6066,-2.5877,-2.6064,-2.691,-2.691,-2.6387,-2.5506,-2.5247,-2.452,-2.3487,-2.3921,-2.4106,-2.3924,-2.4723,-2.4986,-2.4979,-2.4847,-2.4073,-2.3391,-2.3774,-2.3486,-2.2853,0.0,0.0,0.0,0.0,0.0,-0.8804,-0.8804,-0.8804,-0.8804,-0.8804,-0.8804,-0.8804,-0.8804,-0.8804,-0.8804,-0.8804,-0.9413,0.0,0.0,0.0,0.0,0.0,0.0,0.0,0.0,0.0,-1.0247,-1.0247,-1.0748,-1.0929,0.0,0.0,0.0,0.0,0.0,0.0,0.0,0.0,0.0,0.0,0.0,0.0,0.0,0.0,0.0,0.0,0.0,0.0,0.0,0.0,0.0,0.0,0.0,0.0,0.0,0.0,-1.982,-2.1069,-2.2071,-2.2913,-2.3327,-2.2599,-2.1036,-1.9305,0.0,0.0,-1.4796,-1.4208,-1.3921,-1.3841,-1.4048,-1.3915,-1.4008,-1.4716,-1.473,-1.5311,-1.7188,0.0,0.0,0.0,0.0,0.0,0.0,0.0,0.0,-2.5932,-2.6226,-2.6226,-2.5845,-2.5431,-2.5264,-2.5378,-2.4983,-2.4823,-2.495,-2.4743,-2.4636,-2.4636,-2.4636,-2.4529,-2.4329,-2.4242,-2.3928,-2.3454,-2.3367,-2.3153,-2.2859,-2.2859,-2.2859,-2.2859,-2.2859,-2.2679,-2.2418,-2.2418,-2.2291,-2.2144,0.0,0.0,0.0,0.0,0.0,-0.8804,-0.8804,-0.8804,-0.8804,-0.8804,-0.8804,-0.8804,-0.8804,-0.8804,-0.8804,-0.8804,-0.9413,0.0,0.0,0.0,0.0,0.0,0.0,0.0,0.0,0.0,-1.0618,-1.0618,-1.0848,-1.1136,-1.141,-1.1129,-1.0995,0.0,0.0,0.0,0.0,0.0,0.0,0.0,0.0,0.0,0.0,0.0,0.0,0.0,0.0,0.0,0.0,0.0,0.0,0.0,0.0,0.0,0.0,0.0,-1.8397,-2.0374,-2.0969,-2.1984,-2.2799,-2.2498,-2.0882,-1.9058,0.0,-1.6226,-1.4796,-1.4208,-1.4082,-1.4082,-1.4088,-1.4082,-1.4182,-1.4476,-1.477,-1.5471,-1.7049,0.0,0.0,0.0,0.0,0.0,0.0,0.0,0.0,-2.5932,-2.6226,0.0,-2.5551,-2.5511,-2.5378,-2.5097,-2.5077,-2.4937,-2.4643,-2.4636,-2.4636,-2.4636,-2.4636,-2.4636,-2.4623,-2.4335,-2.4042,-2.3748,-2.3454,-2.3153,-2.2859,-2.2859,-2.2859,-2.2859,-2.2859,-2.2679,-2.2418,-2.2418,-2.2412,-2.2412,0.0,0.0,0.0,0.0,0.0,0.0,-0.8804,-0.8804,-0.8804,-0.8804,-0.8804,-0.8804,-0.8804,-0.8804,-0.8804,-0.8804,-0.9008,0.0,0.0,0.0,0.0,0.0,0.0,0.0,0.0,-1.0314,-1.0719,-1.0855,-1.1349,-1.1536,-1.143,-1.1536,-1.1376,-1.0982,0.0,0.0,0.0,0.0,0.0,0.0,0.0,0.0,0.0,0.0,0.0,0.0,0.0,0.0,0.0,0.0,0.0,0.0,0.0,0.0,0.0,-1.4329,-1.642,0.0,-1.9158,-2.0174,-2.0895,-2.0201,-1.9239,-1.815,-1.6961,-1.5792,-1.4796,-1.4208,-1.4088,-1.4088,-1.4088,-1.4088,-1.4315,-1.5003,-1.5197,-1.5631,-1.67,0.0,0.0,0.0,0.0,0.0,0.0,0.0,-2.5939,-2.6233,-2.6339,-2.6132,-2.5545,-2.5511,-2.5378,-2.509,-2.4883,-2.483,-2.4937,-2.4736,-2.4636,-2.4636,-2.4636,-2.4529,-2.4342,-2.4449,-2.4122,-2.3474,-2.3581,-2.334,-2.2859,-2.2859,-2.2859,-2.2859,-2.2859,-2.2806,-2.2719,-2.2719,-2.2719,-2.2719,0.0,0.0,0.0,0.0,0.0,0.0,-0.8804,-0.8804,-0.8804,-0.8804,-0.8804,-0.8804,-0.8804,-0.8804,-0.8804,-0.8804,-0.8804,0.0,0.0,0.0,0.0,0.0,0.0,0.0,-0.9947,-1.0241,-1.0701,-1.1323,-1.169,-1.1944,-1.2098,-1.2164,-1.1891,-1.1309,-1.1015,-1.0768,0.0,0.0,0.0,0.0,0.0,0.0,-1.2151,0.0,0.0,0.0,0.0,0.0,0.0,0.0,0.0,0.0,0.0,0.0,0.0,0.0,-1.471,-1.6466,0.0,-1.8597,-1.9446,-1.8898,-1.823,0.0,-1.6493,-1.5511,-1.4663,-1.4188,-1.4088,-1.4088,-1.4088,-1.4088,-1.4269,-1.4816,-1.509,-1.5538,-1.642,0.0,0.0,0.0,0.0,0.0,0.0,0.0,-2.6032,-2.6213,-2.6226,-2.6019,-2.5538,-2.5411,-2.5317,-2.5244,-2.485,-2.4723,-2.491,-2.473,-2.4636,-2.4636,-2.4636,-2.4543,-2.4376,-2.4556,-2.4215,-2.3507,-2.3688,-2.3427,0.0,-2.2859,-2.2859,-2.2859,-2.2859,-2.2859,-2.2859,-2.2859,-2.2859,-2.2859,0.0,0.0,0.0,0.0,0.0,0.0,0.0,-0.8804,-0.8804,-0.8804,-0.8804,-0.8804,-0.8804,-0.8804,-0.8804,-0.8804,-0.8804,0.0,0.0,0.0,0.0,0.0,0.0,0.0,-0.9679,-0.9987,-1.0701,-1.1837,-1.1904,-1.2358,-1.3173,-1.2906,-1.2526,-1.1857,-1.1557,-1.1102,0.0,0.0,0.0,0.0,-1.175,-1.187,0.0,0.0,0.0,0.0,0.0,0.0,0.0,0.0,0.0,0.0,0.0,0.0,0.0,0.0,0.0,0.0,0.0,-1.7121,-1.8237,-1.8217,-1.7595,-1.6739,-1.6279,-1.5206,0.0,0.0,0.0,-1.4095,-1.4115,-1.4102,-1.4115,-1.4195,-1.4656,-1.5317,-1.6239,0.0,0.0,0.0,0.0,0.0,0.0,-2.5438,-2.5952,-2.5925,-2.5925,-2.5805,-2.5525,-2.5237,-2.5204,-2.5471,-2.493,-2.4649,-2.4669,-2.4649,-2.4636,-2.4636,-2.4636,-2.4636,-2.4636,-2.4616,-2.4302,-2.3774,-2.3748,-2.3407,-2.2859,-2.2859,-2.2859,-2.2859,-2.2859,-2.2859,-2.2859,-2.2859,-2.2859,-2.2859,0.0,0.0,0.0,0.0,0.0,0.0,0.0,0.0,0.0,0.0,-0.8804,-0.8804,-0.8804,-0.8804,-0.8804,0.0,0.0,0.0,0.0,0.0,0.0,0.0,0.0,0.0,-0.9679,-1.0187,-1.0808,-1.153,-1.2211,-1.2721,-1.2936,-1.3026,-1.2659,-1.1857,-1.1557,-1.1102,0.0,0.0,0.0,0.0,-1.175,-1.187,0.0,0.0,0.0,0.0,-1.1971,-1.2118,0.0,0.0,0.0,0.0,0.0,0.0,0.0,0.0,-1.2719,-1.3265,-1.3774,0.0,-1.5738,-1.5511,-1.4801,-1.4248,0.0,0.0,0.0,0.0,0.0,0.0,-1.4376,-1.4235,-1.4382,-1.5271,-1.5351,-1.5758,-1.7088,0.0,0.0,0.0,0.0,0.0,0.0,-2.5438,-2.5859,-2.5638,-2.5618,-2.5585,-2.5518,-2.5237,-2.511,-2.5184,-2.483,-2.475,-2.497,-2.475,-2.4636,-2.4636,-2.4636,-2.4636,-2.4629,-2.4409,-2.4108,-2.3761,-2.3534,-2.3213,-2.2859,-2.2859,-2.2859,-2.2859,-2.2859,-2.2859,-2.2859,-2.2859,-2.2859,-2.2859,0.0,0.0,0.0,0.0,0.0,0.0,0.0,0.0,0.0,0.0,-0.8804,-0.8804,-0.8804,-0.8804,-0.8804,0.0,0.0,0.0,0.0,0.0,0.0,0.0,0.0,-0.9178,-0.9472,-1.006,-1.0775,-1.163,-1.2452,-1.303,-1.336,-1.3394,-1.2933,-1.2037,-1.1336,-1.0855,-1.0631,-1.0728,-1.0962,-1.1249,-1.155,0.0,0.0,0.0,0.0,0.0,-1.2064,-1.2171,0.0,-1.2278,-1.2378,-1.2505,0.0,0.0,0.0,0.0,-1.2612,-1.2999,-1.3166,-1.3968,-1.475,-1.473,-1.4384,-1.4186,-1.4579,0.0,0.0,0.0,0.0,0.0,0.0,0.0,0.0,-1.5124,-1.5551,-1.65,0.0,0.0,0.0,0.0,0.0,0.0,0.0,-2.5598,-2.5778,-2.5344,-2.5317,-2.5317,-2.5317,-2.5037,-2.4937,-2.5077,-2.479,-2.4716,-2.4877,-2.4716,-2.4636,-2.4636,-2.4636,-2.4569,-2.4429,-2.4275,-2.3968,-2.3561,-2.34,-2.3153,-2.2859,-2.2859,-2.2859,-2.2859,-2.2859,-2.2859,-2.2859,-2.2859,-2.2859,-2.2859,0.0,0.0,0.0,0.0,0.0,0.0,0.0,0.0,0.0,0.0,0.0,0.0,0.0,0.0,0.0,0.0,0.0,0.0,0.0,0.0,0.0,0.0,-0.8804,-0.8985,-0.9309,-0.986,-1.0695,-1.187,-1.258,-1.3206,-1.3955,-1.3834,-1.3247,-1.2251,-1.1176,-1.0668,-1.0692,-1.0645,-1.0782,-1.1142,-1.1349,0.0,0.0,0.0,0.0,0.0,0.0,0.0,0.0,-1.2545,-1.2721,-1.2755,-1.2755,0.0,0.0,0.0,0.0,0.0,-1.3267,-1.3921,-1.4629,-1.479,-1.4767,-1.4698,0.0,0.0,0.0,0.0,0.0,0.0,0.0,0.0,0.0,0.0,0.0,0.0,0.0,0.0,0.0,0.0,0.0,0.0,-2.5244,-2.5598,-2.5598,-2.5057,-2.501,-2.503,-2.5077,-2.4796,-2.477,-2.507,-2.479,-2.4636,-2.4636,-2.4636,-2.4616,-2.4569,-2.4569,-2.4422,-2.4135,-2.4088,-2.3794,-2.3327,-2.328,-2.3106,-2.2859,-2.2859,-2.2859,-2.2859,-2.2859,-2.2859,-2.2859,-2.2859,-2.2859,-2.2859,0.0,0.0,0.0,0.0,0.0,0.0,0.0,0.0,0.0,0.0,0.0,0.0,0.0,0.0,0.0,0.0,0.0,0.0,0.0,0.0,0.0,-0.8804,-0.8804,-0.9172,-0.996,-1.0067,-1.0695,-1.187,-1.2719,-1.3213,-1.336,-1.4055,-1.3641,-1.2271,-1.1597,-1.1156,-1.0909,-1.0732,-1.1081,-1.1717,-1.151,0.0,0.0,0.0,0.0,0.0,0.0,0.0,0.0,-1.2071,-1.2164,-1.2371,-1.2371,0.0,0.0,0.0,0.0,0.0,-1.3507,-1.4222,-1.479,-1.4335,-1.3684,-1.3342,0.0,0.0,0.0,0.0,0.0,0.0,0.0,0.0,0.0,0.0,0.0,0.0,0.0,0.0,0.0,0.0,0.0,-2.5077,-2.4128,-2.475,-2.507,-2.473,-2.4703,-2.4816,-2.5064,-2.4796,-2.477,-2.507,-2.479,-2.4636,-2.4636,-2.4636,-2.4516,-2.4269,-2.4269,-2.4115,-2.3828,-2.3574,-2.3414,-2.3313,-2.3046,-2.2906,-2.2859,-2.2859,-2.2859,-2.2859,-2.2859,-2.2859,-2.2859,-2.2859,-2.2859,-2.2859,0.0,0.0,0.0,0.0,0.0,0.0,0.0,0.0,0.0,0.0,0.0,0.0,0.0,0.0,0.0,0.0,0.0,0.0,0.0,0.0,-0.8878,-0.9031,-0.9038,-0.9305,-0.9873,-1.0501,-1.1323,-1.2419,-1.3247,-1.3768,-1.3908,-1.3507,-1.2786,-1.1804,-1.1216,-1.0969,-1.0975,-1.0681,-1.0975,-1.1617,0.0,0.0,0.0,0.0,0.0,0.0,0.0,0.0,0.0,0.0,-1.2298,-1.2512,-1.2351,0.0,0.0,0.0,0.0,0.0,-1.3567,-1.4168,-1.4656,-1.4389,-1.4408,0.0,0.0,0.0,0.0,0.0,0.0,0.0,0.0,0.0,0.0,0.0,0.0,0.0,0.0,0.0,0.0,0.0,0.0,-2.4656,-2.4275,-2.475,-2.4957,-2.4656,-2.4636,-2.4696,-2.483,-2.471,-2.4629,-2.4609,-2.4469,-2.4329,-2.4168,-2.4168,-2.4182,-2.4202,-2.4042,-2.3814,-2.3527,-2.3387,-2.3233,-2.3073,-2.2926,-2.2859,-2.2859,-2.2859,-2.2859,-2.2859,-2.2859,-2.2859,-2.2859,-2.2859,-2.2859,-2.2859,0.0,0.0,0.0,0.0,0.0,0.0,0.0,0.0,0.0,0.0,0.0,0.0,0.0,0.0,0.0,0.0,0.0,0.0,0.0,-0.8804,-0.8938,-0.917,-0.925,-0.9579,-1.008,-1.0969,-1.1924,-1.2959,-1.3714,-1.4235,-1.4489,-1.3213,-1.2265,-1.161,-1.1096,-1.0915,-1.0975,-1.0681,-1.0895,-1.1423,0.0,0.0,0.0,0.0,0.0,0.0,0.0,0.0,0.0,0.0,0.0,0.0,0.0,0.0,0.0,-1.2852,-1.312,-1.3467,-1.3687,-1.4175,-1.4609,-1.4536,0.0,0.0,0.0,0.0,0.0,0.0,0.0,0.0,0.0,0.0,0.0,0.0,0.0,0.0,0.0,0.0,0.0,-2.3661,-2.4088,-2.4389,-2.4616,-2.4843,-2.4883,-2.4656,-2.4636,-2.4609,-2.4536,-2.4603,-2.4502,-2.4215,-2.4202,-2.4095,-2.3875,-2.3734,-2.3781,-2.3995,-2.3774,-2.3507,-2.322,-2.322,-2.3086,-2.2859,-2.2859,-2.2859,-2.2859,-2.2786,-2.2799,-2.2853,-2.2786,-2.2799,-2.2859,-2.2859,-2.2859,-2.2859,0.0,0.0,0.0,0.0,0.0,0.0,0.0,0.0,0.0,0.0,0.0,0.0,0.0,0.0,0.0,0.0,0.0,0.0,0.0,-0.8804,-0.8938,-0.917,-0.9506,-1.0167,-1.1276,-1.1383,-1.2131,-1.3581,-1.3921,-1.4235,-1.4502,-1.3854,-1.308,-1.2225,-1.1917,-1.1483,-1.0975,-1.0681,-1.0895,-1.1423,-1.1423,0.0,0.0,0.0,0.0,0.0,0.0,0.0,0.0,0.0,0.0,0.0,0.0,0.0,-1.318,-1.318,-1.3581,-1.4028,-1.4048,-1.4482,-1.4863,-1.4589,0.0,0.0,0.0,0.0,0.0,0.0,0.0,0.0,0.0,0.0,0.0,0.0,0.0,0.0,0.0,0.0,-2.3674,-2.3761,-2.4262,-2.4616,-2.4636,-2.4656,-2.4656,-2.4636,-2.4636,-2.4516,-2.4249,-2.4489,-2.4502,-2.4215,-2.4202,-2.4195,-2.4168,-2.3634,-2.3374,-2.3387,-2.3367,-2.3193,-2.2893,-2.2893,-2.2886,-2.2859,-2.2859,-2.2859,-2.2839,-2.2565,-2.2612,-2.2839,-2.2559,-2.2619,-2.2859,-2.2859,-2.2859,-2.2859,0.0,0.0,0.0,0.0,0.0,0.0,0.0,0.0,0.0,0.0,0.0,-0.8804,-0.8804,0.0,0.0,0.0,0.0,0.0,0.0,-0.8804,-0.8938,-0.917,-0.9526,-1.0147,-1.1136,-1.169,-1.2612,-1.3921,-1.4208,-1.4322,-1.4229,-1.326,-1.2532,-1.2004,-1.1349,-1.1136,-1.1229,-1.0755,-1.0895,-1.1423,-1.1423,-1.149,0.0,0.0,0.0,0.0,0.0,0.0,0.0,0.0,-1.2305,-1.2351,-1.2652,-1.2903,-1.2999,-1.3367,-1.3641,-1.3848,-1.4035,-1.4382,-1.4703,-1.4776,0.0,0.0,0.0,0.0,0.0,0.0,0.0,0.0,0.0,0.0,0.0,0.0,0.0,0.0,0.0,-2.328,-2.3567,-2.3748,-2.3968,-2.4102,-2.4102,-2.4102,-2.4102,-2.4102,-2.4102,-2.4048,-2.3941,-2.4035,-2.3961,-2.3667,-2.3661,-2.3567,-2.3367,-2.3153,-2.304,-2.304,-2.304,-2.2979,-2.2859,-2.2859,-2.2766,-2.2599,-2.2779,-2.2759,-2.2592,-2.2665,-2.2766,-2.2853,-2.2739,-2.2766,-2.2859,-2.2859,-2.2859,-2.2859,0.0,0.0,0.0,0.0,0.0,0.0,0.0,0.0,-0.8804,0.0,0.0,0.0,0.0,-0.8804,0.0,0.0,0.0,0.0,-0.8804,-0.8804,-0.8938,-0.917,-0.9439,-0.9953,-1.0835,-1.1623,-1.2659,-1.3948,-1.4242,-1.4188,-1.3794,-1.2973,-1.2432,-1.2111,-1.1423,-1.1283,-1.1536,-1.1042,-1.1062,-1.143,-1.153,-1.1563,0.0,0.0,0.0,0.0,0.0,0.0,0.0,0.0,-1.2305,-1.2371,-1.2766,-1.2893,-1.2993,-1.3494,-1.3559,-1.3667,-1.3781,-1.4021,-1.4315,-1.4609,0.0,0.0,0.0,0.0,0.0,0.0,0.0,0.0,0.0,0.0,0.0,0.0,0.0,0.0,-2.2966,-2.3207,-2.34,-2.3607,-2.3714,-2.3774,-2.3774,-2.3774,-2.3774,-2.3774,-2.3774,-2.3728,-2.3634,-2.3721,-2.3634,-2.334,-2.3233,-2.308,-2.2866,-2.2679,-2.2585,-2.2585,-2.2585,-2.2686,-2.2853,-2.2665,-2.2525,-2.2425,-2.2539,-2.2472,-2.2298,-2.2505,-2.2639,-2.2732,-2.2826,-2.2859,-2.2859,-2.2859,-2.2859,-2.2859,0.0,0.0,0.0,0.0,0.0,0.0,0.0,0.0,-0.8804,-0.8804,-0.8804,0.0,0.0,0.0,0.0,0.0,0.0,0.0,-0.8804,-0.8804,-0.8938,-0.9163,-0.9183,-0.9653,-1.0591,-1.1122,-1.2151,-1.3552,-1.3935,-1.3781,-1.3206,-1.32,-1.3039,-1.2802,-1.2432,-1.2138,-1.185,-1.155,-1.1423,-1.1456,-1.175,-1.187,-1.1904,0.0,0.0,0.0,0.0,0.0,0.0,0.0,-1.2305,-1.2405,-1.3019,-1.3213,-1.3267,-1.3561,-1.3566,-1.3587,-1.33,-1.3427,-1.3728,0.0,0.0,0.0,0.0,0.0,0.0,0.0,0.0,0.0,0.0,0.0,0.0,0.0,0.0,-2.2084,-2.2378,-2.2933,-2.3313,-2.332,-2.3574,-2.3754,-2.3754,-2.3754,-2.3754,-2.3754,-2.3761,-2.3634,-2.334,-2.3601,-2.3621,-2.3333,-2.302,-2.2853,-2.2859,-2.2278,-2.1984,-2.1984,-2.1984,-2.2291,-2.2832,-2.2251,-2.2138,-2.2392,-2.2111,-2.1984,-2.1984,-2.1991,-2.2164,-2.2452,-2.2746,-2.2859,-2.2859,-2.2859,-2.2859,-2.2859,0.0,0.0,0.0,0.0,0.0,0.0,0.0,0.0,-0.8804,-0.8804,-0.8804,0.0,0.0,0.0,0.0,0.0,0.0,0.0,-0.8804,-0.8804,-0.8844,-0.8931,-0.9077,-0.9309,-0.9626,-1.0608,-1.1744,-1.3013,-1.332,-1.3267,-1.2879,-1.2672,-1.2518,-1.2418,-1.2124,-1.1951,-1.185,-1.155,-1.155,-1.1744,-1.183,-1.187,-1.1904,0.0,0.0,0.0,0.0,0.0,0.0,0.0,0.0,0.0,-1.3019,-1.3213,-1.3307,-1.3808,-1.3955,-1.3935,-1.3848,0.0,0.0,0.0,0.0,0.0,0.0,0.0,0.0,0.0,0.0,0.0,0.0,0.0,0.0,0.0,-2.1182,-2.185,-2.2352,-2.2398,-2.2458,-2.2659,-2.2585,-2.2512,-2.2512,-2.2699,-2.2819,-2.2819,-2.3013,-2.3093,-2.3006,-2.2886,-2.2879,-2.2999,-2.2512,-2.2345,-2.2545,-2.2171,-2.1984,-2.1984,-2.1777,-2.1877,-2.2238,-2.2064,-2.1924,-2.1817,-2.1937,-2.1871,-2.171,-2.2124,-2.2465,-2.2719,-2.2599,-2.2679,-2.2839,-2.2625,-2.2679,-2.2859,0.0,0.0,0.0,0.0,0.0,0.0,-0.7777,-0.8321,-0.8804,-0.8804,-0.8804,-0.8804,0.0,0.0,0.0,-0.8804,-0.8804,0.0,-0.8804,-0.8804,-0.8804,-0.8804,-0.8971,-0.9232,-0.9522,-1.0514,-1.1343,-1.2051,-1.2472,-1.2579,-1.2472,-1.2452,-1.2545,-1.2652,-1.2478,-1.2405,-1.2371,-1.1951,-1.1877,-1.2044,-1.2044,-1.2044,-1.2058,0.0,0.0,0.0,0.0,0.0,0.0,0.0,0.0,0.0,-1.2872,-1.3113,-1.3253,-1.3487,-1.3641,-1.3714,-1.3587,0.0,0.0,0.0,0.0,0.0,0.0,0.0,0.0,0.0,0.0,0.0,0.0,0.0,0.0,-2.0628,-2.1169,-2.1677,-2.2024,-2.2024,-2.2051,-2.2225,-2.2091,-2.1984,-2.1984,-2.2144,-2.2245,-2.2245,-2.2412,-2.2512,-2.2512,-2.2345,-2.2331,-2.2505,-2.2058,-2.1897,-2.2071,-2.1784,-2.1637,-2.1637,-2.1463,-2.147,-2.1637,-2.1637,-2.161,-2.1557,-2.161,-2.1603,-2.1583,-2.1931,-2.2245,-2.2498,-2.2318,-2.2425,-2.2665,-2.2485,-2.2605,-2.2859,0.0,0.0,-0.5487,-0.5433,0.0,0.0,-0.7503,-0.8209,-0.8699,-0.8699,-0.8752,-0.8804,0.0,0.0,0.0,-0.8804,-0.8804,-0.8804,-0.8804,-0.8804,-0.8804,-0.8804,-0.8831,-0.9245,-1.01,-1.0641,-1.0929,-1.0955,-1.1543,-1.183,-1.1844,-1.2506,-1.2852,-1.3133,-1.3186,-1.318,-1.3093,-1.2538,-1.2305,-1.2305,-1.2305,-1.2305,-1.2305,-1.2305,0.0,0.0,0.0,0.0,0.0,0.0,0.0,0.0,-1.2685,-1.2979,-1.3166,-1.2939,-1.3066,-1.3233,0.0,0.0,0.0,0.0,0.0,0.0,0.0,0.0,0.0,0.0,0.0,0.0,0.0,0.0,0.0,-2.0675,-2.1162,-2.1523,-2.155,-2.1757,-2.1917,-2.1944,-2.1924,-2.1904,-2.1904,-2.1931,-2.1944,-2.1944,-2.1971,-2.1984,-2.1984,-2.1964,-2.1957,-2.1984,-2.1677,-2.153,-2.155,-2.1256,-2.1109,-2.1109,-2.1109,-2.1109,-2.1109,-2.1109,-2.1256,-2.1496,-2.1229,-2.1276,-2.155,-2.155,-2.1724,-2.1984,-2.1957,-2.2124,-2.2372,-2.2352,-2.2545,-2.2819,0.0,0.0,-0.5324,-0.4787,0.0,0.0,-0.6086,-0.7063,-0.7943,-0.7943,-0.8427,-0.8804,-0.8804,-0.8804,0.0,-0.8804,-0.8804,-0.8804,-0.8804,-0.8804,-0.8804,-0.8804,-0.9025,-0.9396,-1.01,-1.0241,-1.0421,-1.0719,-1.1236,-1.1523,-1.153,-1.2124,-1.2432,-1.2518,-1.2999,-1.2946,-1.2485,-1.2358,-1.2305,-1.2305,-1.2305,-1.2305,-1.2305,-1.2305,-1.2305,0.0,0.0,0.0,0.0,0.0,0.0,0.0,-1.2939,-1.316,-1.3287,-1.3681,-1.3848,0.0,0.0,0.0,0.0,0.0,0.0,0.0,0.0,0.0,0.0,0.0,0.0,0.0,0.0,0.0,-2.0942,-2.1002,-2.1122,-2.1289,-2.1516,-2.141,-2.1383,-2.1617,-2.1436,-2.1296,-2.1296,-2.151,-2.165,-2.165,-2.1857,-2.1984,-2.1984,-2.177,-2.175,-2.1977,-2.1476,-2.1316,-2.155,-2.1256,-2.1109,-2.1109,-2.1109,-2.1109,-2.1109,-2.1109,-2.1142,-2.1203,-2.1136,-2.1276,-2.155,-2.155,-2.1724,-2.1964,-2.1737,-2.1824,-2.2051,-2.1824,-2.2071,-2.2512,0.0,0.0,0.0,0.0,0.0,0.0,0.0,0.0,-0.8209,-0.8209,-0.854,-0.8804,-0.8804,-0.8804,0.0,0.0,-0.8804,-0.8804,-0.8804,-0.8804,-0.8871,-0.9011,-0.9299,-0.9659,-1.0107,-1.0254,-1.0408,-1.0624,-1.0862,-1.1156,-1.1436,-1.1884,-1.2245,-1.2525,-1.2846,-1.2812,-1.2505,-1.2365,-1.2305,-1.2305,-1.2305,-1.2305,-1.2305,-1.2305,-1.2305,-1.2305,-1.2305,0.0,0.0,0.0,0.0,0.0,0.0,0.0,-1.3046,-1.3353,-1.3547,0.0,0.0,0.0,0.0,0.0,0.0,0.0,0.0,0.0,0.0,0.0,0.0,0.0,0.0,-2.1109,-2.1109,-2.1109,-2.1109,-2.1162,-2.1323,-2.1203,-2.1169,-2.1323,-2.1203,-2.1109,-2.1109,-2.1249,-2.1343,-2.1343,-2.1476,-2.1563,-2.1563,-2.1423,-2.141,-2.1563,-2.1269,-2.1182,-2.1336,-2.1189,-2.1109,-2.1109,-2.1109,-2.1109,-2.1109,-2.1109,-2.1109,-2.1109,-2.1109,-2.1196,-2.1343,-2.1343,-2.143,-2.155,-2.1403,-2.1523,-2.1757,-2.161,-2.183,-2.2211,0.0,0.0,0.0,0.0,0.0,0.0,0.0,0.0,0.0,-0.8599,-0.8738,-0.8864,-0.8811,-0.8804,-0.8804,0.0,0.0,0.0,-0.8804,-0.8851,-0.9031,-0.9316,-0.9626,-0.9893,-1.0187,-1.0434,-1.0624,-1.0624,-1.0624,-1.0855,-1.143,-1.173,-1.2078,-1.2437,-1.249,-1.2407,-1.219,-1.1877,-1.1774,-1.1774,-1.1996,-1.207,-1.207,-1.2224,-1.2305,-1.2305,-1.2305,-1.2305,-1.2305,-1.2305,0.0,0.0,0.0,0.0,-1.2835,-1.2889,-1.3013,-1.334,0.0,0.0,0.0,0.0,0.0,0.0,0.0,0.0,0.0,0.0,0.0,0.0,-2.0969,-2.1002,-2.1036,-2.1036,-2.1036,-2.1049,-2.1102,-2.1109,-2.1109,-2.1109,-2.1109,-2.1109,-2.1109,-2.1062,-2.1056,-2.1109,-2.1062,-2.1036,-2.1036,-2.1082,-2.1089,-2.1036,-2.1082,-2.1109,-2.1109,-2.1056,-2.1056,-2.1109,-2.1109,-2.1109,-2.1109,-2.1109,-2.1109,-2.1109,-2.1109,-2.1109,-2.1109,-2.1109,-2.1109,-2.1109,-2.1109,-2.1263,-2.1476,-2.1476,-2.1663,-2.1911,0.0,0.0,0.0,0.0,0.0,0.0,0.0,0.0,0.0,0.0,-0.8584,-0.9085,-0.8838,-0.8804,-0.8804,-0.8804,-0.8804,-0.8804,-0.8804,0.0,0.0,-0.9973,-1.0033,-1.02,-1.0557,-1.0604,-1.0624,-1.0624,-1.0624,-1.0855,0.0,-1.173,-1.1597,-1.1073,-1.1318,-1.0835,-0.9792,-0.969,-0.9674,-0.9744,-1.064,-1.1013,-1.1087,-1.1996,-1.2305,-1.2305,-1.2305,-1.2305,-1.2305,-1.2305,-1.2305,0.0,0.0,0.0,-1.2876,-1.3066,-1.318,0.0,0.0,0.0,0.0,0.0,0.0,0.0,0.0,0.0,0.0,0.0,0.0,0.0,-2.0394,-2.0561,-2.0735,-2.0735,-2.0735,-2.0822,-2.1076,-2.1109,-2.1109,-2.1109,-2.1109,-2.1109,-2.1109,-2.0882,-2.0842,-2.1089,-2.0875,-2.0735,-2.0735,-2.0969,-2.0995,-2.0742,-2.0982,-2.1109,-2.1109,-2.0862,-2.0862,-2.1109,-2.1109,-2.1109,-2.1109,-2.1109,-2.1109,-2.1109,-2.1109,-2.1109,-2.1109,-2.1109,-2.1109,-2.1109,-2.1109,-2.1136,-2.1169,-2.1169,-2.1356,-2.161,0.0,0.0,0.0,0.0,0.0,0.0,0.0,0.0,0.0,0.0,0.0,-0.9312,-0.8858,-0.8951,-0.8985,-0.8824,-0.8804,-0.8878,-0.9038,-0.911,-0.9449,-1.0087,-1.0114,-1.0254,-1.0618,-1.0624,-1.0624,-1.0624,-1.0722,0.0,0.0,-1.1897,-1.1952,-1.1632,-1.1306,-1.0812,-1.0115,-0.9523,-0.9296,-0.9372,-0.982,-0.9889,-0.9928,-1.0444,-1.0558,-1.0528,-1.0599,-1.0944,-1.1465,-1.1465,-1.1842,-1.2325,-1.2458,0.0,0.0,0.0,-1.2953,0.0,0.0,0.0,0.0,0.0,0.0,0.0,0.0,0.0,0.0,0.0,0.0,-2.0194,-2.0227,-2.0341,-2.0481,-2.0648,-2.0675,-2.0775,-2.1069,-2.0969,-2.0869,-2.0869,-2.0722,-2.0621,-2.0621,-2.0501,-2.0481,-2.0608,-2.0501,-2.0428,-2.0428,-2.0548,-2.0561,-2.0434,-2.0548,-2.0621,-2.0621,-2.0488,-2.0575,-2.0869,-2.1029,-2.1109,-2.1109,-2.1109,-2.1109,-2.1109,-2.1109,-2.1109,-2.1109,-2.1109,-2.1109,-2.1109,-2.1109,-2.1109,-2.1109,-2.1109,-2.1189,-2.1303,0.0,0.0,0.0,0.0,0.0,0.0,0.0,0.0,0.0,0.0,0.0,-0.9566,-0.8978,0.0,0.0,0.0,-0.8985,-0.9152,-0.9389,-0.9225,-0.933,-0.9894,-0.992,-1.0017,-1.0231,-1.0491,-1.0624,-1.0624,0.0,0.0,-1.1436,-1.1951,-1.2271,0.0,-1.1325,-1.0556,-0.9965,0.0,0.0,-0.8542,-0.8846,-0.882,-0.8842,-0.916,-0.927,-0.9143,-0.9236,-0.982,-1.0484,-1.0708,-1.1316,-1.1996,-1.2224,-1.2305,0.0,0.0,0.0,0.0,0.0,0.0,0.0,0.0,0.0,0.0,0.0,0.0,0.0,0.0,-1.9372,-1.9639,-1.986,-2.002,-2.0194,-2.0414,-2.0454,-2.0555,-2.0848,-2.0702,-2.0568,-2.0568,-2.0368,-2.0234,-2.0234,-2.0167,-2.0154,-2.0227,-2.0167,-2.0127,-2.0127,-2.0194,-2.0201,-2.0127,-2.0194,-2.0234,-2.0234,-2.0234,-2.0307,-2.0454,-2.0748,-2.0929,-2.1002,-2.1002,-2.1042,-2.1109,-2.1109,-2.1109,-2.1109,-2.1109,-2.1109,-2.1109,-2.1109,-2.1109,-2.1109,-2.1109,-2.1109,-2.1109,0.0,0.0,0.0,0.0,0.0,0.0,0.0,0.0,0.0,0.0,0.0,-0.9866,-0.9223,-0.9486,-0.9539,-0.919,-0.9472,-0.976,-1.0053,-0.9254,-0.8951,-0.9302,-0.932,0.0,-0.9338,-1.0174,-1.0624,-1.0624,0.0,0.0,-1.143,-1.175,-1.2264,-1.2656,-1.0784,-0.9216,-0.7868,0.0,0.0,0.0,-0.748,-0.7851,-0.7995,-0.8917,-0.9291,-0.9281,-0.9291,-0.9296,-0.9523,-1.049,-1.0858,-1.1013,-1.1996,-1.2305,-1.2305,0.0,0.0,0.0,0.0,0.0,0.0,0.0,0.0,0.0,0.0,0.0,0.0,0.0,-1.8764,-1.8971,-1.8991,-1.9446,-1.9826,-1.9846,-1.9846,-1.9947,-2.0234,-2.0267,-2.0254,-2.0254,-2.0241,-2.0234,-2.0234,-1.9987,-1.994,-2.0214,-1.9973,-1.982,-1.982,-2.0087,-2.0107,-1.9833,-2.0087,-2.0234,-2.0234,-2.0234,-2.01,-1.9846,-2.014,-2.0421,-2.0702,-2.0702,-2.0848,-2.1109,-2.1109,-2.1109,-2.1109,-2.1109,-2.1109,-2.1109,-2.1109,-2.1109,-2.1109,-2.1109,-2.1109,-2.1109,0.0,0.0,0.0,0.0,0.0,0.0,0.0,0.0,0.0,0.0,0.0,0.0,0.0,-0.9786,-0.9597,-0.8774,-0.8311,-0.8115,-0.8421,-0.8124,-0.8106,-0.8474,-0.9011,-0.9274,-0.9274,-1.0174,-1.0624,0.0,0.0,-1.1223,-1.1443,-1.2118,-1.252,-1.2397,-1.0573,-0.9493,-0.8883,-0.7129,0.0,0.0,-0.6758,-0.6872,-0.6872,-0.7249,-0.7331,-0.7167,0.0,0.0,0.0,-0.9565,-0.991,-1.016,-1.1067,-1.1316,-1.1465,-1.2077,-1.1689,-1.1258,0.0,0.0,0.0,0.0,0.0,0.0,0.0,0.0,0.0,-1.8183,-1.8444,-1.8644,-1.8644,-1.9125,-1.9586,-1.9773,-1.98,-1.99,-2.0194,-2.0074,-1.9953,-1.9953,-1.9786,-1.9679,-1.9679,-1.9586,-1.9566,-1.9673,-1.9579,-1.9519,-1.9519,-1.9619,-1.9633,-1.9526,-1.9626,-1.9679,-1.9679,-1.986,-1.9907,-1.9806,-2.0094,-2.0287,-2.0401,-2.0588,-2.0735,-2.0842,-2.1029,-2.1109,-2.1109,-2.1109,-2.1109,-2.1109,-2.1109,-2.1109,-2.1109,-2.1109,-2.1109,-2.1109,0.0,0.0,0.0,-0.5393,0.0,-0.5947,-0.5817,-0.7305,-0.8233,-0.7759,0.0,0.0,0.0,0.0,-0.9118,-0.8321,-0.7761,-0.7459,-0.7666,-0.7424,-0.7354,-0.7562,-0.8091,-0.8587,-0.9,-0.9765,-1.0392,-1.0855,-1.1142,-1.1383,0.0,-1.2178,-1.2452,-1.2377,-1.0401,-0.9591,0.0,0.0,0.0,-0.6464,-0.6369,-0.6363,-0.641,-0.641,0.0,0.0,0.0,0.0,0.0,-0.8549,-0.8956,-0.9184,-1.0035,-1.0265,-1.0415,-1.1099,-1.0565,-1.0111,-1.154,0.0,0.0,0.0,0.0,0.0,0.0,0.0,0.0,-1.7408,-1.7842,-1.8183,-1.8183,-1.8671,-1.9172,-1.9459,-1.9506,-1.9613,-1.99,-1.9606,-1.9399,-1.9492,-1.9332,-1.9219,-1.9219,-1.9305,-1.9366,-1.9366,-1.9366,-1.9366,-1.9366,-1.9366,-1.9366,-1.9366,-1.9366,-1.9366,-1.9366,-1.9559,-1.9659,-1.9659,-1.9853,-1.9993,-2.0094,-2.0294,-2.0434,-2.0541,-2.0728,-2.0929,-2.1109,-2.1109,-2.1109,-2.1109,-2.1109,-2.1109,-2.1109,-2.1109,-2.1109,-2.1109,-0.4667,-0.4701,-0.4752,-0.4901,-0.5043,-0.5138,-0.5138,-0.6028,-0.6981,-0.7827,0.0,0.0,0.0,0.0,0.0,-0.7977,-0.7982,-0.7912,-0.7912,-0.7129,-0.6671,-0.6671,-0.6671,-0.722,-0.8363,-0.9017,-0.9999,-1.1423,-1.1149,-1.1309,-1.187,-1.1877,-1.2184,-1.2643,-1.0307,-0.9296,-0.9175,0.0,-0.6607,-0.6478,0.0,-0.6566,-0.6709,0.0,0.0,0.0,-0.6868,-0.6827,0.0,-0.7721,-0.7978,-0.8107,-0.9,-0.9241,-0.9241,-0.9316,-0.8632,-0.803,0.0,0.0,0.0,0.0,0.0,0.0,0.0,0.0,-1.5551,-1.6139,-1.6947,-1.7549,-1.7555,-1.8056,-1.8557,-1.8838,-1.8898,-1.9011,-1.9299,-1.8844,-1.8591,-1.8878,-1.8791,-1.8798,-1.8925,-1.9178,-1.9345,-1.9352,-1.9345,-1.9345,-1.9352,-1.9366,-1.9366,-1.9366,-1.9366,-1.9366,-1.9366,-1.9366,-1.9366,-1.9366,-1.9366,-1.9512,-1.9786,-1.98,-1.9953,-2.0221,-2.0227,-2.0555,-2.1082,-2.1089,-2.1102,-2.1109,-2.1109,-2.1109,-2.1109,-2.1109,-2.1109,-2.1109,-0.4826,-0.4938,-0.502,-0.5064,-0.5196,-0.5298,-0.5298,-0.6106,-0.6785,0.0,0.0,0.0,-0.8255,-0.7602,-0.7251,-0.7328,-0.6786,-0.6437,-0.6437,-0.6161,-0.6021,-0.6021,-0.6646,-0.7503,-0.8533,-0.9297,-1.0294,-1.1423,-1.1563,-1.171,-1.187,-1.2084,-1.189,-1.1271,-0.9927,-0.8922,-0.8169,-0.6887,0.0,0.0,-0.6515,-0.663,0.0,0.0,0.0,0.0,0.0,-0.6807,-0.701,0.0,-0.769,-0.7351,-0.8235,-0.8497,-0.8653,-0.9373,-0.8894,-0.8336,-0.9293,0.0,0.0,0.0,0.0,0.0,-1.4295,-1.4836,-1.5251,-1.5832,-1.6319,-1.67,-1.6907,-1.7428,-1.7856,-1.7943,-1.8323,-1.8637,-1.8724,-1.7665,-1.7359,-1.8486,-1.7677,-1.7522,-1.8785,-1.8804,-1.8824,-1.9032,-1.8851,-1.8824,-1.9038,-1.9252,-1.9366,-1.9366,-1.9366,-1.9366,-1.9366,-1.9366,-1.9366,-1.9366,-1.9366,-1.9412,-1.9492,-1.97,-1.9846,-1.9927,-2.014,-2.0321,-2.0494,-2.0708,-2.0915,-2.1109,-2.1109,-2.1109,-2.1109,-2.1109,-2.1109,-2.1109,-0.4965,-0.5074,-0.5148,-0.5216,-0.5301,-0.5428,-0.5428,-0.5815,-0.6268,0.0,0.0,0.0,-0.7038,-0.6672,-0.6472,-0.6576,-0.6086,-0.58,-0.58,-0.58,-0.58,-0.58,-0.6297,-0.704,-0.8121,-0.8528,-0.9558,-1.1139,-1.1255,-1.1559,-1.2051,-1.2225,-1.1768,-1.0783,-0.9744,-0.877,0.0,0.0,0.0,0.0,-0.6603,0.0,0.0,-0.699,-0.6939,0.0,0.0,0.0,-0.7166,-0.7535,-0.7312,0.0,0.0,0.0,-0.7679,-0.8246,-0.8004,-0.7679,-0.8328,0.0,0.0,0.0,0.0,0.0,-1.3153,-1.3991,-1.4689,-1.503,-1.5531,-1.5959,-1.6126,-1.664,-1.7034,-1.7034,-1.7435,-1.7916,-1.8424,-1.7023,-1.6356,-1.7268,-1.6704,-1.6543,-1.7502,-1.8171,-1.8557,-1.8731,-1.8584,-1.8564,-1.8731,-1.8991,-1.9125,-1.8997,-1.9279,-1.901,-1.8175,-1.9004,-1.9004,-1.8402,-1.9127,-1.9366,-1.9372,-1.9546,-1.9253,-1.8657,-1.8816,-1.8582,-1.8094,-1.9111,-2.0152,-2.0942,-2.1062,-2.1109,-2.1109,-2.1109,-2.1109,-2.1109,0.0,-0.5155,-0.5199,-0.5338,-0.5428,-0.5428,-0.5428,-0.5428,-0.5693,0.0,-0.5922,-0.5535,-0.5759,-0.582,-0.5833,-0.585,-0.5854,-0.5854,-0.5854,-0.5854,-0.5854,-0.5854,-0.5854,-0.635,-0.752,-0.7292,-0.8311,-1.064,-1.0414,-1.0864,-1.2003,-1.2077,-1.1545,-1.0409,-0.9669,-0.8694,-0.7553,0.0,0.0,-0.6675,-0.6695,-0.6875,0.0,0.0,-0.7258,-0.7177,-0.7451,-0.7461,-0.7305,-0.7041,-0.6861,0.0,0.0,0.0,-0.6749,-0.6749,-0.6749,-0.6749,-0.6749,-0.7405,0.0,0.0,-1.0213,0.0,-1.1934,-1.3008,-1.3919,-1.3952,-1.4477,-1.493,-1.5153,-1.5534,-1.5817,-1.5784,-1.6163,-1.6863,-1.8143,-1.6421,-1.5244,-1.5802,-1.5746,-1.5666,-1.5914,-1.7457,-1.8404,-1.8437,-1.8444,-1.8444,-1.8457,-1.8671,-1.8791,-1.8466,-1.8856,-1.8313,-1.6686,-1.8119,-1.8241,-1.6921,-1.8389,-1.9004,-1.8887,-1.9243,-1.8409,-1.6727,-1.6968,-1.6261,-1.5034,-1.6847,-1.8723,-2.0407,-2.0856,-2.1089,-2.1069,-2.1096,-2.1109,-2.1109,-0.5274,-0.5318,-0.5325,-0.5422,-0.5428,-0.5428,-0.5428,-0.5428,-0.547,-0.5798,-0.5783,-0.6054,-0.6856,-0.6401,-0.6037,-0.6159,-0.6169,-0.6169,-0.6169,-0.6169,-0.6169,-0.6169,-0.6169,-0.6714,-0.7728,-0.769,-0.8307,-0.9593,-0.9552,-0.9627,-0.99,-1.0714,-1.011,-0.8385,-0.8993,-0.8313,-0.6567,0.0,0.0,-0.6525,-0.6651,0.0,-0.7143,-0.7173,-0.7166,-0.7146,-0.721,-0.721,-0.7177,-0.7119,-0.7078,-0.7054,0.0,0.0,0.0,-0.7054,-0.7054,-0.7054,0.0,0.0,0.0,0.0,0.0,0.0,-1.0621,-1.1674,-1.2741,-1.3039,-1.2497,-1.2305,-1.3435,-1.3231,-1.292,-1.2813,-1.4103,-1.5644,-1.6912,-1.4937,-1.3752,-1.5077,-1.4404,-1.438,-1.5787,-1.7092,-1.7862,-1.8116,-1.813,-1.8054,-1.8121,-1.8453,-1.8545,-1.8461,-1.7453,-1.7341,-1.8058,-1.6276,-1.5842,-1.6656,-1.7223,-1.6733,-1.5671,-1.8175,-1.7812,-1.5192,-1.6492,-1.6166,-1.4685,-1.5266,-1.6719,-1.8606,-2.0387,-2.0962,-2.0788,-2.1022,-2.1109,-2.1109,-0.5387,-0.5428,-0.5428,-0.5428,-0.5428,-0.5456,-0.5464,-0.5477,-0.5528,-0.5677,-0.5823,-0.6086,-0.6604,-0.6321,-0.6176,-0.6254,-0.6338,-0.6338,-0.6338,-0.6338,-0.6338,-0.6338,-0.6338,-0.6567,-0.7022,-0.7022,-0.7557,-0.8542,-0.8542,-0.8841,-0.9296,-0.982,-0.9216,-0.7863,-0.8413,-0.7836,-0.6373,0.0,-0.6566,-0.6702,-0.6702,0.0,-0.7051,-0.72,-0.7207,-0.7149,-0.7227,-0.7207,-0.7163,-0.7316,-0.7319,0.0,0.0,-0.7255,-0.7241,0.0,-0.7492,-0.7841,0.0,0.0,0.0,-0.8711,0.0,0.0,0.0,-1.1384,-1.2157,-1.1643,-1.1651,-1.1778,-1.1905,-1.2224,-1.2276,-1.1719,-1.2486,-1.3526,-1.4248,-1.3373,-1.2972,-1.3697,-1.3278,-1.3288,-1.4144,-1.6062,-1.7275,-1.7575,-1.7019,-1.675,-1.6681,-1.6984,-1.6795,-1.5882,-1.6113,-1.5899,-1.491,-1.4562,-1.4376,-1.426,-1.5312,-1.5429,-1.4604,-1.6267,-1.5671,-1.3412,-1.4237,-1.3641,-1.235,-1.3382,-1.4314,-1.5344,-1.844,-2.0158,-2.0715,-2.1002,-2.1109,-2.1109,-0.5394,-0.5428,-0.5428,-0.5428,-0.5428,-0.5413,-0.5566,-0.5589,-0.565,-0.5823,-0.5979,-0.6074,-0.6074,-0.6186,-0.6271,-0.6298,-0.6278,-0.6285,-0.6342,-0.6291,-0.6352,-0.6298,-0.6352,-0.6338,-0.6338,-0.6338,-0.6718,-0.748,-0.748,-0.7953,-0.8746,-0.8975,-0.8539,-0.7586,-0.7841,-0.7433,0.0,0.0,0.0,-0.6875,0.0,-0.6834,-0.6997,-0.7234,-0.7248,-0.7156,-0.7282,-0.7248,-0.7183,-0.7461,-0.7472,-0.7377,-0.7407,-0.7397,0.0,0.0,0.0,0.0,0.0,0.0,0.0,0.0,0.0,-1.0338,0.0,0.0,0.0,-1.0234,0.0,0.0,0.0,0.0,0.0,-1.095,-1.1096,-1.1308,-1.1355,-1.1796,-1.2082,-1.2108,-1.2123,-1.2142,-1.2177,-1.4749,-1.6599,-1.7041,-1.6031,-1.5299,-1.53,-1.537,-1.4701,-1.3295,-1.4934,-1.4407,-1.1669,-1.3141,-1.3156,-1.1879,-1.3409,-1.4009,-1.3651,-1.4366,-1.3526,-1.1736,-1.2097,-1.1257,-0.995,-1.1405,-1.2109,-1.2625,-1.664,-1.9057,-2.0244,-2.079,-2.1062,-2.1109,-0.5422,-0.5428,-0.5428,-0.5428,-0.5428,-0.5413,-0.5566,-0.5589,-0.5691,-0.5969,-0.6139,-0.6234,-0.6234,-0.6251,0.0,0.0,0.0,0.0,-0.6634,-0.6407,-0.6318,-0.6441,-0.6329,-0.6338,-0.6338,-0.6338,-0.6338,-0.649,-0.649,-0.6556,-0.6842,-0.7703,-0.7709,-0.6887,-0.7637,0.0,0.0,0.0,-0.6586,0.0,-0.6854,-0.699,0.0,-0.7153,-0.7156,-0.7143,-0.716,-0.7153,-0.7166,0.0,-0.7387,-0.7394,0.0,-0.7482,-0.7394,-0.7512,0.0,0.0,0.0,0.0,0.0,0.0,-0.8867,0.0,0.0,0.0,-0.9626,-0.9187,0.0,0.0,0.0,0.0,0.0,-0.9239,-0.9509,-0.9688,-0.9639,-0.9705,-1.0023,-1.0431,-1.0602,-1.0769,-1.0936,-1.341,-1.5481,-1.6647,-1.5694,-1.5018,-1.5064,-1.4082,-1.3464,-1.3267,-1.3469,-1.3423,-1.3049,-1.2307,-1.1684,-1.1574,-1.2162,-1.1736,-1.0418,-1.3292,-1.2928,-1.0179,-1.1615,-1.1257,-0.9822,-1.0079,-1.0914,-1.2612,-1.6458,-1.803,-1.8435,-2.0107,-2.0889,-2.1109,-0.5428,-0.5428,-0.5428,-0.5428,-0.5437,-0.5545,-0.5691,-0.5864,-0.6064,-0.6305,-0.6291,-0.6383,0.0,0.0,0.0,0.0,0.0,-0.6434,0.0,0.0,-0.6451,-0.66,-0.6549,-0.6515,-0.6515,-0.6515,-0.6515,-0.6515,-0.6515,-0.6546,-0.6603,-0.7089,-0.7044,-0.6702,-0.7134,0.0,-0.6834,0.0,-0.6898,0.0,0.0,0.0,0.0,-0.7139,-0.7139,-0.7139,-0.7139,-0.72,-0.7299,0.0,-0.7556,0.0,0.0,0.0,0.0,0.0,0.0,0.0,0.0,0.0,0.0,0.0,0.0,0.0,-0.8937,0.0,-0.9116,0.0,0.0,0.0,0.0,0.0,0.0,0.0,-0.8635,-0.8287,-0.8321,-0.8298,-0.8664,-0.9644,-0.9976,-1.0413,-1.1302,-1.2635,-1.3624,-1.413,-1.3111,-1.2587,-1.2597,-1.2192,-1.1542,-1.0773,-1.1625,-1.1603,-1.0708,-1.0478,-1.0293,-1.0297,-1.0625,-1.0422,-0.9822,-1.1257,-1.114,-0.9819,-1.0539,-1.0418,-0.9822,-0.9822,-1.0179,-1.1031,-1.3588,-1.5798,-1.7804,-1.8852,-1.9975,-2.0882,-0.5467,-0.5416,-0.5446,-0.55,-0.5535,-0.5664,-0.582,-0.6081,-0.6315,-0.6461,-0.642,0.0,-0.6583,-0.66,0.0,0.0,0.0,-0.6542,0.0,0.0,-0.6647,-0.6759,-0.6763,0.0,-0.6702,-0.6702,-0.6702,-0.6702,-0.6702,-0.6722,-0.6763,-0.6763,-0.6783,-0.6824,-0.6898,-0.6949,-0.699,0.0,0.0,-0.7139,-0.7139,-0.7166,-0.72,-0.7156,-0.7166,-0.7204,-0.7204,-0.7302,-0.7458,-0.7607,-0.7726,-0.7818,-0.7862,-0.7845,0.0,0.0,0.0,0.0,-0.783,0.0,0.0,0.0,0.0,0.0,0.0,0.0,0.0,0.0,0.0,0.0,0.0,0.0,-1.0916,-0.9853,0.0,-0.7847,-0.7465,-0.7377,-0.7738,-0.8854,-0.9131,-0.979,-1.1244,-1.1545,-1.1826,-1.2183,-1.1151,-1.0549,-1.0703,-1.0409,-0.9827,-0.8859,-1.0284,-1.0429,-0.894,-0.9567,-0.9838,-0.9384,-0.968,-0.9822,-0.9822,-0.9822,-0.9822,-0.9822,-0.9822,-0.9822,-0.9822,-0.9822,-0.9822,-0.994,-1.114,-1.337,-1.609,-1.7696,-1.9206,-2.0722,-0.5732,-0.5555,-0.549,-0.5686,-0.5727,-0.5796,-0.5998,-0.6132,-0.6342,-0.6349,0.0,0.0,0.0,0.0,0.0,0.0,0.0,-0.6715,-0.7095,0.0,-0.6915,0.0,0.0,-0.6851,0.0,-0.6702,-0.6702,-0.6702,-0.6702,-0.6776,-0.6922,-0.6922,-0.6993,-0.7122,-0.699,-0.7004,-0.7126,-0.6993,-0.7014,-0.7139,-0.7139,-0.7231,-0.735,0.0,-0.7234,-0.7363,-0.7363,-0.7461,-0.7614,-0.7756,-0.7807,-0.7838,-0.7984,-0.7929,0.0,0.0,0.0,0.0,0.0,-0.7804,0.0,-0.7994,0.0,0.0,0.0,0.0,-0.7763,0.0,0.0,0.0,-1.1273,-1.2274,-1.2654,-1.1242,-1.0055,0.0,0.0,-0.7149,-0.7258,-0.7657,-0.7818,-0.8448,-0.9882,-0.9934,-1.0477,-1.1843,-1.076,-1.007,-1.0186,-0.9341,-0.8736,-0.8659,-1.0307,-1.0429,-0.894,-1.0576,-1.0743,-0.9384,-0.968,-0.9822,-0.9822,-0.9822,-0.9822,-0.9822,-0.9822,-0.9822,-0.9822,-0.9822,-0.9822,-0.9822,-0.9822,-1.0902,-1.2866,-1.6575,-1.9044,-2.0722,-0.5752,-0.5897,-0.5967,-0.5768,0.0,-0.5962,-0.6135,-0.6294,-0.6332,0.0,0.0,0.0,0.0,0.0,-0.7387,0.0,0.0,-0.7109,-0.7139,-0.7193,0.0,0.0,0.0,-0.7302,0.0,-0.7143,-0.7143,-0.7143,-0.7041,-0.7017,-0.7068,-0.7068,-0.7095,-0.7139,-0.7092,-0.7095,0.0,0.0,0.0,0.0,0.0,-0.7475,-0.7506,0.0,-0.7387,-0.7522,-0.7522,-0.7614,-0.7746,-0.7794,-0.7879,-0.797,-0.8024,-0.8004,-0.7963,-0.7963,-0.7929,-0.7899,-0.795,-0.8038,-0.8102,-0.8052,-0.8116,-0.815,-0.7997,0.0,0.0,0.0,0.0,0.0,-1.0094,-1.0361,-1.0471,-0.9903,-0.8804,-0.7854,0.0,-0.7227,-0.737,-0.7573,-0.7641,0.0,-0.8448,-0.8512,-0.8679,-0.918,-0.8826,-0.8612,-0.892,-0.8727,-0.8638,-0.8749,-0.929,-0.9396,-0.894,-0.9681,-0.9838,-0.9384,-0.968,-0.9822,-0.9822,-0.9822,-0.9822,-0.9822,-0.9822,-0.9822,-0.9822,-0.9822,-0.9822,-0.9822,-0.9822,-1.0778,-1.25,-1.534,-1.742,-1.9063,-0.5665,-0.6139,-0.6183,0.0,0.0,0.0,-0.6342,0.0,0.0,0.0,-0.6878,0.0,-0.7417,0.0,-0.7831,0.0,-0.7777,-0.7522,-0.7316,-0.7363,0.0,-0.7356,-0.756,0.0,0.0,0.0,-0.7451,-0.7451,-0.7299,-0.7221,-0.7221,-0.7166,-0.7139,-0.7139,-0.7139,-0.7139,-0.7139,0.0,-0.7227,0.0,0.0,-0.7631,0.0,0.0,-0.759,-0.7675,-0.7675,-0.777,-0.7892,-0.7892,-0.796,-0.8038,-0.8038,-0.8038,-0.8028,-0.7974,-0.7997,-0.8028,-0.7974,-0.8113,-0.8235,-0.8079,-0.8194,-0.8292,-0.8085,-0.8082,-0.8106,0.0,0.0,0.0,0.0,-1.0005,-1.0014,-0.9383,-0.8623,-0.7916,0.0,-0.7275,-0.7428,-0.7584,0.0,0.0,0.0,-0.7767,-0.7723,-0.7695,-0.7711,-0.7808,-0.8058,-0.8364,-0.8584,-0.8581,-0.8815,-0.894,-0.894,-0.9232,-0.9381,-0.9384,-0.968,-0.9822,-0.9822,-0.9822,-0.9822,-0.9822,-0.9822,-0.9822,-0.9822,-0.9822,-0.9822,-0.9822,-0.9822,-1.0418,-1.1659,-1.3747,-1.6106,-1.8434,-0.5481,-0.6285,-0.6271,0.0,-0.6217,0.0,0.0,0.0,-0.6488,0.0,-0.7665,-0.8038,-0.8038,-0.8038,-0.8038,-0.8038,-0.8038,0.0,-0.7641,-0.7526,0.0,0.0,-0.7794,-0.7756,-0.7614,0.0,0.0,-0.7611,-0.7451,-0.737,-0.7366,-0.7214,-0.7139,-0.7139,-0.7149,0.0,-0.7139,-0.7149,-0.7241,-0.7397,-0.7556,-0.7702,-0.7821,-0.7821,-0.7821,-0.7821,-0.7821,-0.7916,-0.8038,-0.8038,-0.8038,-0.8038,-0.8038,-0.8038,-0.8011,-0.7865,-0.7926,-0.8007,-0.7862,-0.8041,-0.8235,-0.8089,-0.8269,-0.8408,-0.8126,-0.8174,-0.8238,-0.8092,-0.9038,-0.9916,-0.9916,-1.0881,-1.1226,-0.9686,-0.9435,-0.885,-0.7378,-0.7295,-0.7448,-0.7594,0.0,0.0,0.0,0.0,-0.7611,-0.7611,-0.7611,0.0,-0.7814,-0.8261,-0.8495,-0.8479,-0.8777,-0.8944,-0.895,-0.9235,-0.9384,-0.9395,-0.9683,-0.9822,-0.9822,-0.9822,-0.9822,-0.9822,-0.9822,-0.9822,-0.9822,-0.9822,-0.9822,-0.9822,-0.9822,-0.9829,-1.0121,-1.215,-1.5281,-1.875,-0.5504,-0.6336,-0.5764,0.0,-0.536,-0.6575,0.0,0.0,0.0,0.0,-0.7665,-0.8038,-0.8038,-0.8038,-0.8038,-0.8038,-0.8038,0.0,0.0,0.0,0.0,-0.7743,-0.7896,-0.7913,-0.776,-0.7756,0.0,-0.7756,-0.7499,-0.737,-0.7366,-0.7214,-0.7139,-0.7146,-0.7261,-0.7248,-0.7146,-0.7261,-0.74,-0.7563,-0.7824,-0.7946,-0.798,-0.798,-0.798,-0.798,-0.798,-0.8007,-0.8038,-0.8038,-0.8038,-0.8038,-0.8038,-0.8038,-0.8031,-0.7991,-0.8007,-0.8031,-0.7991,-0.8123,-0.8262,-0.8221,-0.8347,-0.8462,-0.8387,-0.8397,-0.8418,-0.8377,-0.8589,-0.8711,-0.8711,-0.8911,-0.8849,-0.8353,-0.8131,-0.7937,-0.7492,-0.7607,0.0,-0.7753,0.0,0.0,0.0,0.0,-0.7756,-0.7756,-0.7756,-0.7821,-0.7974,-0.8279,-0.8459,-0.8482,-0.8777,-0.8991,-0.9096,-0.9286,-0.9439,-0.9554,-0.9734,-0.9822,-0.9822,-0.9822,-0.9822,-0.9822,-0.9822,-0.9822,-0.9822,-0.9822,-0.9822,-0.9822,-0.9822,-0.9961,-1.0419,-1.2243,-1.5182,-1.8374,-0.3045,-0.3569,0.0,-0.1965,0.0,0.0,-0.6329,0.0,0.0,-0.7085,-0.7665,0.0,-0.8404,-0.8197,-0.8147,-0.8411,-0.8191,0.0,-0.8038,0.0,0.0,-0.7801,-0.7898,-0.7918,-0.7936,-0.7872,0.0,-0.7933,0.0,-0.7513,-0.7379,-0.7155,-0.7139,-0.7146,-0.7302,-0.7322,-0.7251,-0.7407,-0.7556,-0.7706,-0.7872,-0.798,0.0,-0.8038,-0.8038,-0.8038,-0.8038,-0.8038,-0.8038,-0.8038,-0.8038,-0.8038,-0.8038,-0.8038,-0.8038,-0.8038,-0.8038,-0.8038,-0.8038,-0.8153,-0.8272,-0.8272,-0.8428,-0.8564,-0.8499,-0.8533,-0.8564,-0.8496,-0.837,-0.8272,-0.8272,-0.8143,-0.7987,-0.7834,-0.7692,-0.76,-0.76,0.0,0.0,0.0,-0.7946,-0.8007,-0.7919,-0.7848,-0.7784,-0.7723,-0.7777,-0.7848,-0.7936,-0.8225,-0.8418,-0.8479,-0.8838,-0.9069,-0.9154,-0.9432,-0.9585,-0.9612,-0.9754,-0.9822,-0.9822,-0.9822,-0.9822,-0.9822,-0.9822,-0.9822,-0.9822,-0.9822,-0.9822,-0.9829,-0.9893,-0.9988,-1.0218,-1.1351,-1.3571,-1.6381,0.0,0.0,0.0,0.0,0.0,0.0,0.0,-0.6593,0.0,-0.7075,0.0,-0.8238,-0.8764,-0.8353,-0.7939,-0.7783,0.0,-0.693,-0.693,-0.693,-0.6942,-0.6968,-0.6962,-0.7163,-0.7475,-0.7464,0.0,0.0,-0.7259,-0.7316,-0.7399,-0.7195,-0.7156,-0.718,-0.7333,0.0,0.0,-0.7563,-0.7689,-0.7787,-0.7824,-0.7919,-0.8038,-0.8038,-0.8038,-0.8038,-0.8038,-0.8038,-0.8038,-0.8038,-0.8038,-0.8038,-0.8038,-0.8038,-0.8038,-0.8038,-0.8038,-0.8038,-0.8038,-0.8136,-0.8248,-0.8289,-0.8489,-0.8655,-0.8564,-0.8645,-0.8703,-0.857,-0.8428,-0.8323,-0.8303,-0.8157,-0.7994,-0.7862,-0.7736,-0.7658,0.0,0.0,0.0,0.0,0.0,0.0,-0.8038,-0.7919,-0.779,-0.7665,-0.7753,-0.7821,-0.7838,-0.8096,-0.8316,-0.8476,-0.8899,-0.9154,-0.9211,-0.9598,-0.9751,-0.9666,-0.9771,-0.9822,-0.9822,-0.9822,-0.9822,-0.9822,-0.9822,-0.9822,-0.9822,-0.9822,-0.9822,-0.9836,-0.9968,-0.9951,-0.9883,-1.0151,-1.1452,-1.3417,0.0,0.0,0.0,0.0,0.0,-0.1798,-0.6948,-0.7339,-0.7021,-0.7126,-0.7665,-0.8079,-0.8187,-0.8102,-0.6261,-0.1948,-0.1421,0.0,0.0,0.0,0.0,-0.1412,-0.1412,-0.2416,-0.4622,-0.4708,-0.4738,0.0,-0.4618,-0.5628,-0.7591,-0.7272,-0.7148,-0.7366,-0.7499,0.0,-0.757,-0.7712,0.0,-0.7658,-0.7902,-0.8014,-0.8038,-0.8038,-0.8038,-0.8038,-0.8038,-0.8038,-0.8038,-0.8038,-0.8038,-0.8038,-0.8038,-0.8038,-0.8038,-0.8038,-0.8038,-0.8038,-0.8038,-0.8058,-0.814,-0.8384,-0.8482,-0.8581,-0.8808,-0.8879,-0.8893,-0.8866,-0.8737,-0.8594,-0.8469,-0.8225,-0.8031,-0.8004,-0.7977,-0.7963,0.0,0.0,0.0,0.0,0.0,-0.8038,-0.8038,-0.8014,-0.7987,-0.7963,-0.7868,-0.7865,-0.7991,-0.8052,-0.8204,-0.8472,-0.8804,-0.9154,-0.9523,-0.9608,-0.9754,-0.9971,-0.9869,-0.9822,-0.9822,-0.9822,-0.9822,-0.9822,-0.9822,-0.9822,-0.9822,-0.9822,-0.9822,-0.9825,-0.9849,-0.992,-1.0015,-1.007,-1.0404,-1.1301,0.0,0.0,0.0,0.0,0.0,0.0,0.0,-0.5375,-0.3425,-0.3425,-0.3636,-0.3819,-0.3819,-0.3819,-0.2816,-0.0202,0.0,0.0,0.0,0.0,0.0,0.0,0.0,0.0,-0.1913,-0.1888,-0.1951,-0.1902,-0.193,-0.3379,-0.6309,-0.616,-0.6498,-0.7423,-0.7573,-0.7641,0.0,-0.7702,-0.7702,-0.7723,-0.7865,-0.797,-0.8038,-0.8038,-0.8038,-0.8038,-0.8038,-0.8038,-0.8038,-0.8038,-0.8038,-0.8038,-0.8038,-0.8038,-0.8038,-0.8038,-0.8038,-0.8038,-0.8038,-0.8038,-0.8109,-0.8408,-0.8482,-0.8564,-0.8869,-0.894,-0.894,-0.894,-0.8818,-0.8642,-0.8414,-0.8255,-0.8133,-0.8052,-0.8038,0.0,0.0,0.0,-0.8038,0.0,0.0,0.0,0.0,-0.8038,-0.8038,-0.8038,-0.797,-0.7963,-0.8035,-0.8038,-0.8177,-0.8472,-0.8852,-0.9191,-0.949,-0.9724,-0.9869,-0.993,-0.9856,-0.9822,-0.9822,-0.9822,-0.9822,-0.9822,-0.9822,-0.9822,-0.9822,-0.9822,-0.9822,-0.9829,-0.991,-0.9934,-0.9941,-1.0019,-1.0192,-1.0645,0.0,0.0,0.0,0.0,0.0,0.0,-0.5634,-0.2731,0.0,0.0,0.0,0.0,0.0,0.0,0.0,0.0,0.0,0.0,0.0,0.0,0.0,0.0,0.0,0.0,0.0,0.0,0.0,0.0,0.0,-0.137,-0.3999,-0.5172,-0.6272,-0.7426,-0.7573,-0.7723,-0.7763,-0.7712,-0.774,-0.7814,-0.7845,-0.7933,-0.8038,-0.8038,-0.8038,-0.8038,-0.8038,-0.8038,-0.8038,-0.8038,-0.8038,-0.8038,-0.8038,-0.8038,-0.8045,-0.8079,-0.8065,-0.8055,-0.8116,-0.8113,-0.815,-0.8418,-0.8482,-0.8554,-0.8828,-0.8889,-0.8899,-0.893,-0.8818,-0.8638,-0.8408,-0.8336,-0.8265,-0.8113,-0.8089,-0.8075,-0.8045,0.0,0.0,0.0,0.0,0.0,-0.8038,-0.8038,-0.8038,-0.8038,-0.8011,-0.8004,-0.8038,-0.8007,-0.813,-0.8428,-0.8842,-0.9164,-0.9381,-0.9751,-0.9914,-0.9869,-0.9836,-0.9822,-0.9822,-0.9822,-0.9822,-0.9822,-0.9822,-0.9822,-0.9822,-0.9822,-0.9822,-0.9832,-0.9954,-0.9927,-0.9836,-0.9958,-1.012,-1.0548,0.0,0.0,0.0,0.0,0.0,-0.02,-0.0706,-0.0303,0.0,0.0,0.0,0.0,0.0,0.0,0.0,0.0,0.0,0.0,0.0,0.0,0.0,0.0,0.0,0.0,0.0,0.0,0.0,0.0,0.0,-0.0199,-0.0584,-0.5485,-0.7658,-0.7432,-0.7784,-0.7855,-0.7638,-0.7889,-0.7926,-0.7824,-0.7963,-0.8028,-0.8038,-0.8038,-0.8038,-0.8038,-0.8038,-0.8038,-0.8038,-0.8038,-0.8038,-0.8038,-0.8038,-0.8038,-0.8069,-0.8208,-0.815,-0.8099,-0.8367,-0.8347,-0.8286,-0.8442,-0.8482,-0.8526,-0.8693,-0.873,-0.8771,-0.891,-0.8818,-0.8703,-0.8672,-0.8557,-0.8414,-0.8272,-0.8248,-0.8201,-0.8058,0.0,-0.8038,-0.8038,0.0,0.0,-0.8038,-0.8038,-0.8038,-0.8038,-0.7913,-0.7892,-0.8031,-0.7909,-0.7974,-0.8282,-0.8591,-0.8954,-0.9378,-0.951,-0.9727,-1.0025,-0.9886,-0.9822,-0.9822,-0.9822,-0.9822,-0.9822,-0.9822,-0.9822,-0.9822,-0.9822,-0.9822,-0.9822,-0.9836,-0.9832,-0.9822,-0.9836,-1.0029,-1.028,0.0,0.0,0.0,0.0,0.0,0.0,0.0,0.0,0.0,0.0,0.0,0.0,0.0,0.0,0.0,0.0,0.0,0.0,0.0,0.0,0.0,0.0,0.0,0.0,0.0,0.0,0.0,0.0,0.0,0.0,-0.0099,-0.3861,-0.6421,-0.7791,-0.7801,-0.7838,-0.7733,-0.7851,-0.7868,-0.7824,-0.7977,-0.8038,-0.8038,-0.8038,-0.8038,-0.8038,-0.8038,-0.8038,-0.8038,-0.8038,-0.8038,-0.8055,-0.815,-0.8177,-0.8208,-0.8353,-0.8353,-0.833,-0.8448,-0.8442,-0.8431,-0.8581,-0.8618,-0.8659,-0.8811,-0.8849,-0.8866,-0.8927,-0.8889,-0.8818,-0.8726,-0.8662,-0.8543,-0.8309,-0.8272,-0.8218,-0.8062,-0.8038,0.0,-0.8038,0.0,-0.8038,-0.8038,-0.8038,-0.8038,-0.8038,-0.7984,-0.7974,-0.8035,-0.798,-0.8048,-0.8265,-0.8557,-0.8882,-0.9242,-0.9545,-0.9656,-0.9914,-0.9849,-0.9822,-0.9822,-0.9822,-0.9822,-0.9822,-0.9822,-0.9822,-0.9822,-0.9822,-0.9822,-0.9822,-0.9822,-0.9822,-0.9832,-0.9924,-1.0056,-1.0335,0.0,0.0,0.0,0.0,0.0,0.0,0.0,0.0,0.0,0.0,0.0,0.0,0.0,0.0,0.0,0.0,0.0,0.0,0.0,0.0,0.0,0.0,0.0,0.0,0.0,0.0,0.0,0.0,0.0,0.0,-0.0101,-0.272,-0.5425,-0.8014,-0.7919,-0.7851,-0.7814,-0.7858,-0.7879,-0.7889,-0.7994,-0.8038,-0.8038,-0.8038,-0.8038,-0.8038,-0.8038,-0.8069,-0.8109,-0.8012,-0.8042,-0.8086,-0.8252,-0.8299,-0.836,-0.8506,-0.8516,-0.8503,-0.8591,-0.8584,-0.8574,-0.8682,-0.871,-0.8737,-0.8849,-0.8872,-0.8882,-0.893,-0.894,-0.8906,-0.8798,-0.8777,-0.8679,-0.8381,-0.8333,-0.8265,-0.8069,-0.8038,-0.8038,-0.8038,-0.8038,-0.8038,-0.8038,-0.8038,-0.8038,-0.8038,-0.8038,-0.8038,-0.8038,-0.8038,-0.8109,-0.8265,-0.8513,-0.8808,-0.915,-0.9371,-0.9598,-0.9822,-0.9822,-0.9822,-0.9822,-0.9822,-0.9822,-0.9822,-0.9822,-0.9822,-0.9822,-0.9822,-0.9822,-0.9822,-0.9822,-0.9822,-0.9832,-0.9941,-1.0063,-1.0325,0.0,0.0,0.0,0.0,0.0,0.0,0.0,0.0,0.0,0.0,0.0,0.0,0.0,0.0,0.0,0.0,0.0,0.0,0.0,0.0,0.0,0.0,0.0,0.0,0.0,0.0,0.0,0.0,0.0,0.0,-0.0101,-0.2715,-0.5383,-0.799,-0.7991,-0.7953,-0.7821,-0.7974,-0.8035,-0.8038,-0.8038,-0.8038,-0.8038,-0.8038,-0.8038,-0.8038,-0.8038,-0.8136,-0.8269,-0.8084,-0.818,-0.8269,-0.8319,-0.8367,-0.8509,-0.8662,-0.8601,-0.855,-0.8852,-0.8821,-0.871,-0.871,-0.871,-0.871,-0.8713,-0.8713,-0.8757,-0.8906,-0.894,-0.894,-0.8937,-0.8937,-0.8835,-0.853,-0.8479,-0.8377,-0.8079,-0.8038,-0.8038,-0.8038,-0.8038,-0.8038,-0.8038,-0.8038,-0.8038,-0.8038,-0.8038,-0.8038,-0.8038,-0.8038,-0.8109,-0.8265,-0.8411,-0.8699,-0.915,-0.9306,-0.953,-0.9822,-0.9822,-0.9822,-0.9822,-0.9822,-0.9822,-0.9822,-0.9822,-0.9822,-0.9822,-0.9822,-0.9822,-0.9822,-0.9822,-0.9822,-0.9822,-0.9822,-1.0015,-1.028,0.0,0.0,0.0,0.0,0.0,0.0,0.0,0.0,0.0,0.0,0.0,0.0,0.0,0.0,0.0,0.0,0.0,0.0,0.0,0.0,0.0,0.0,0.0,0.0,0.0,0.0,0.0,0.0,0.0,0.0,-0.0,-0.0907,-0.3717,-0.8024,-0.7952,-0.7928,-0.797,-0.8018,-0.8038,-0.8038,-0.8038,-0.8038,-0.8038,-0.8038,-0.8038,-0.7955,-0.7971,-0.8041,-0.81,-0.8324,-0.7048,-0.5397,-0.5363,-0.6885,-0.8582,-0.8736,-0.8842,-0.8815,-0.8913,-0.8903,-0.8866,-0.8866,-0.8866,-0.8866,-0.8866,-0.8866,-0.8879,-0.8927,-0.894,-0.894,-0.894,-0.894,-0.8838,-0.853,-0.8482,-0.8377,-0.8082,-0.8038,-0.8038,-0.8038,-0.8038,-0.8038,-0.8038,-0.8038,-0.8038,-0.8038,-0.8038,-0.8038,-0.8038,-0.8038,-0.8109,-0.8265,-0.8408,-0.8696,-0.915,-0.9367,-0.9591,-0.9822,-0.9822,-0.9822,-0.9822,-0.9822,-0.9822,-0.9822,-0.9822,-0.9822,-0.9822,-0.9822,-0.9822,-0.9822,-0.9822,-0.9822,-0.9822,-1.0072,-1.026,-1.0284,0.0,0.0,0.0,0.0,0.0,0.0,0.0,0.0,0.0,0.0,0.0,0.0,0.0,0.0,0.0,0.0,0.0,0.0,0.0,0.0,0.0,0.0,0.0,0.0,0.0,0.0,0.0,0.0,0.0,0.0,0.0,0.0,-0.1813,-0.5035,-0.7059,-0.7965,-0.7952,-0.8041,-0.8038,-0.8038,-0.8038,-0.8038,-0.8038,-0.8038,-0.8045,-0.7972,-0.8034,-0.7389,-0.6714,-0.7937,-0.7197,-0.563,-0.4441,-0.5452,-0.7354,-0.852,-0.886,-0.8954,-0.8954,-0.8984,-0.9008,-0.8954,-0.8981,-0.9005,-0.895,-0.894,-0.894,-0.894,-0.894,-0.894,-0.894,-0.894,-0.8838,-0.853,-0.8482,-0.8377,-0.8082,-0.8038,-0.8038,-0.8038,-0.8038,-0.8038,-0.8038,-0.8038,-0.8038,-0.8038,-0.8092,-0.8102,-0.8041,-0.8096,-0.8221,-0.8428,-0.8577,-0.8869,-0.932,-0.9456,-0.9622,-0.9822,-0.9822,-0.9822,-0.9822,-0.9822,-0.9822,-0.9822,-0.9822,-0.9822,-0.9822,-0.9822,-0.9822,-0.9822,-0.9822,-0.9822,-0.9947,-1.0072,-1.0221,-1.0345,0.0,0.0,0.0,0.0,0.0,0.0,0.0,0.0,0.0,0.0,0.0,0.0,0.0,0.0,0.0,0.0,0.0,0.0,0.0,0.0,0.0,0.0,0.0,0.0,0.0,0.0,0.0,0.0,0.0,0.0,0.0,0.0,0.0,-0.0201,-0.5229,-0.7666,-0.7972,-0.7952,-0.8041,-0.8041,-0.8038,-0.8041,-0.8041,-0.7952,-0.7969,-0.8012,-0.7965,-0.6412,-0.4596,-0.6782,-0.8146,-0.8283,-0.4823,-0.3917,-0.4702,-0.7474,-0.845,-0.8664,-0.8893,-0.9086,-0.9137,-0.9005,-0.9062,-0.9117,-0.8984,-0.8954,-0.8954,-0.8954,-0.8954,-0.895,-0.894,-0.893,-0.8825,-0.853,-0.8472,-0.8367,-0.8079,-0.8038,-0.8038,-0.8038,-0.8048,-0.8052,-0.8041,-0.8048,-0.8055,-0.8055,-0.8187,-0.8208,-0.8062,-0.8221,-0.8438,-0.8703,-0.8859,-0.9154,-0.9605,-0.9557,-0.9629,-0.9822,-0.9822,-0.9822,-0.9822,-0.9822,-0.9822,-0.9822,-0.9822,-0.9822,-0.9822,-0.9822,-0.9822,-0.9822,-0.9822,-0.9947,-1.0075,-0.9995,-1.0239,-1.0449,0.0,0.0,0.0,0.0,0.0,0.0,0.0,0.0,0.0,0.0,0.0,0.0,0.0,0.0,0.0,0.0,0.0,0.0,0.0,0.0,0.0,0.0,0.0,0.0,0.0,0.0,0.0,0.0,0.0,0.0,0.0,0.0,0.0,-0.0101,-0.1307,-0.4123,-0.7985,-0.7972,-0.7965,-0.7962,-0.8045,-0.8048,-0.7979,-0.7988,-0.8041,-0.7984,-0.8043,-0.7566,-0.6571,-0.3052,-0.5067,-0.7976,-0.2576,-0.1054,-0.1169,-0.186,-0.3711,-0.6034,-0.8271,-0.899,-0.9225,-0.9313,-0.9228,-0.9144,-0.911,-0.9103,-0.9103,-0.9103,-0.9103,-0.9069,-0.8957,-0.8845,-0.8703,-0.8513,-0.8391,-0.8255,-0.8065,-0.8038,-0.8038,-0.8038,-0.8143,-0.817,-0.8052,-0.8147,-0.8214,-0.8214,-0.8248,-0.8255,-0.8218,-0.8574,-0.876,-0.8713,-0.8859,-0.9154,-0.9605,-0.9595,-0.9669,-0.9822,-0.9822,-0.9822,-0.9822,-0.9822,-0.9822,-0.9822,-0.9822,-0.9822,-0.9822,-0.9822,-0.9822,-0.9947,-0.9947,-1.0072,-1.0257,-1.0337,-1.0461,-1.0449,0.0505,0.0,0.0,0.0,0.0,0.0,0.0,0.0,0.0,0.0,0.0,0.0,0.0,0.0,0.0,0.0,0.0,0.0,0.0,0.0,0.0,0.0,0.0,0.0,0.0,0.0,0.0,0.0,0.0,0.0,0.0,0.0,0.0,0.0,0.0,-0.1609,-0.4429,-0.5634,-0.6851,-0.7972,-0.7959,-0.7962,-0.7992,-0.8034,-0.8001,-0.7962,-0.7998,-0.6478,-0.3944,-0.1038,-0.2106,-0.4255,-0.1069,0.0,0.0,0.0,-0.1187,-0.3048,-0.6116,-0.6975,-0.7479,-0.916,-0.9395,-0.9269,-0.9259,-0.9256,-0.9256,-0.9256,-0.9201,-0.913,-0.9052,-0.8859,-0.8659,-0.8506,-0.8364,-0.8218,-0.8062,-0.8038,-0.8065,-0.8136,-0.8218,-0.8262,-0.8241,-0.8316,-0.834,-0.8275,-0.8394,-0.8414,-0.8279,-0.8757,-0.8967,-0.8818,-0.9093,-0.9395,-0.9703,-0.9707,-0.9744,-0.9822,-0.9822,-0.9822,-0.9822,-0.9822,-0.9822,-0.9825,-0.9893,-0.9886,-0.9822,-0.9822,-0.9947,-0.9974,-0.9995,-1.0102,-1.0404,-1.0464,-1.0581,-1.0585,0.2115,0.121,0.121,0.121,0.121,0.0908,0.0101,0.0,0.0,0.0,0.0,0.0,0.0,0.0,0.0,0.0,0.0,0.0,0.0,0.0,0.0,0.0,0.0,0.0,0.0,0.0,0.0,0.0,0.0,0.0,0.0,0.0,0.0,0.0,0.0,0.0,-0.0101,-0.241,-0.4722,-0.6851,-0.7669,-0.7992,-0.8032,-0.7975,-0.7528,-0.6768,-0.6777,-0.3837,0.0,0.0,0.0,0.0,0.0,0.0,0.0,0.0,0.0,-0.0591,-0.3079,-0.3822,-0.4696,-0.819,-0.9186,-0.9325,-0.9425,-0.9418,-0.9415,-0.9415,-0.9313,-0.9208,-0.9161,-0.891,-0.8659,-0.8506,-0.8343,-0.8191,-0.8058,-0.8058,-0.8133,-0.8286,-0.8323,-0.8394,-0.8537,-0.855,-0.8503,-0.8381,-0.8604,-0.8625,-0.835,-0.8876,-0.912,-0.8977,-0.9384,-0.968,-0.9819,-0.9822,-0.9822,-0.9822,-0.9947,-0.9995,-0.9828,-0.9988,-0.9947,-0.9829,-0.9981,-0.9988,-0.9886,-0.9967,-1.0072,-1.0131,-1.0084,-1.0309,-1.0581,-1.0581,-1.0585,-1.0721,0.693,0.6731,0.6731,0.6731,0.6731,0.5222,0.0706,0.0,0.0,0.0,0.0,0.0,0.0,0.0,0.0,0.0,0.0,0.0,0.0,0.0,0.0,0.0,0.0,0.0,0.0,0.0,0.0,0.0,0.0,0.0,0.0,0.0,0.0,0.0,0.0,0.0,-0.0,-0.0403,-0.0905,-0.1608,-0.615,-0.7971,-0.8014,-0.8052,-0.5151,-0.12,-0.1244,-0.0693,0.0,0.0,0.0,0.0,0.0,0.0,0.0,0.0,0.0,-0.0123,-0.0613,-0.0735,-0.1465,-0.4819,-0.7684,-0.9608,-0.9483,-0.9588,-0.9574,-0.9574,-0.9554,-0.9459,-0.9201,-0.891,-0.8659,-0.8506,-0.8255,-0.8065,-0.8041,-0.815,-0.8289,-0.8431,-0.8564,-0.8703,-0.8852,-0.8869,-0.8859,-0.8835,-0.8876,-0.8825,-0.8652,-0.9089,-0.9276,-0.9123,-0.9439,-0.968,-0.9819,-0.9822,-0.9822,-0.9947,-0.9947,-1.0086,-1.0163,-1.0056,-0.9947,-0.9957,-0.9985,-0.9982,-0.9929,-1.0183,-1.0322,-1.0386,-1.0483,-1.0581,-1.0721,-1.0721,-1.0721,-1.0721,0.8038,0.8038,0.8038,0.8038,0.8038,0.6226,0.0807,0.0,0.0,0.0,0.0,0.0,0.0,0.0,0.0,0.0,0.0,0.0,0.0,0.0,0.0,0.0,0.0,0.0,0.0,0.0,0.0,0.0,0.0,0.0,0.0,0.0,0.0,0.0,0.0,0.0,0.0,0.0,0.0,-0.0201,-0.2672,-0.5401,-0.7959,-0.7962,-0.4704,0.0,0.0,0.0,0.0,0.0,0.0,0.0,0.0,0.0,0.0,0.0,0.0,0.0,0.0,0.0,-0.0374,-0.1851,-0.3447,-0.5406,-0.8911,-0.9627,-0.9737,-0.9727,-0.9663,-0.9564,-0.9425,-0.8974,-0.8699,-0.8852,-0.8343,-0.8041,-0.8247,-0.8392,-0.8503,-0.8594,-0.8808,-0.9008,-0.9161,-0.9178,-0.9144,-0.9059,-0.913,-0.911,-0.8957,-0.9303,-0.9473,-0.9401,-0.9608,-0.9754,-0.9822,-0.9822,-0.9947,-0.995,-1.0151,-1.0317,-1.0303,-1.03,-1.0215,-1.0063,-1.0095,-1.0095,-1.0046,-1.0229,-1.0434,-1.0465,-1.0478,-1.0585,-1.0721,-1.0721,-1.0721,-1.0721,0.8221,0.8136,0.8082,0.8225,0.8248,0.6802,0.2684,0.2055,0.1567,0.0224,0.0,0.0,0.0,0.0,0.0,0.0,0.0,0.0,0.0,0.0,0.0,0.0,0.0,0.0,0.0,0.0,0.0,0.0,0.0,0.0,0.0,0.0,0.0,0.0,0.0,0.0,0.0,0.0,0.0,0.0,0.0,-0.2434,-0.6135,-0.6108,-0.356,0.0,0.0,0.0,0.0,0.0,0.0,0.0,0.0,0.0,0.0,0.0,0.0,0.0,0.0,0.0,0.0,0.0,0.0,-0.151,-0.7316,-0.9281,-0.9767,-0.9832,-0.9734,-0.9649,-0.9615,-0.9161,-0.888,-0.9061,-0.8554,-0.8204,-0.8475,-0.8598,-0.8686,-0.8818,-0.9052,-0.9279,-0.9466,-0.9452,-0.9384,-0.9266,-0.9367,-0.9367,-0.9215,-0.9462,-0.9625,-0.9656,-0.9764,-0.9822,-0.9822,-0.9947,-1.0019,-1.0039,-1.0364,-1.0445,-1.0445,-1.0449,-1.033,-1.0098,-1.0242,-1.02,-1.0121,-1.0337,-1.0449,-1.0581,-1.0581,-1.0585,-1.0721,-1.0721,-1.0721,-1.0721,0.8764,0.8421,0.8214,0.8774,0.8872,0.8653,0.8317,0.8238,0.6251,0.0672,0.0,0.0,0.0,0.0,0.0,0.0,0.0,0.0,0.0,0.0,0.0,0.0,0.0,0.0,0.0,0.0,0.0,0.0,0.0,0.0,0.0,0.0,0.0,0.0,0.0,0.0,0.0,0.0,0.0,0.0,0.0,-0.0215,-0.0546,-0.0556,-0.0339,0.0,0.0,0.0,0.0,0.0,0.0,0.0,0.0,0.0,0.0,0.0,0.0,0.0,0.0,0.0,0.0,0.0,0.0,-0.0894,-0.4401,-0.7656,-0.9767,-0.9852,-0.9812,-0.9764,-0.9635,-0.9514,-0.9274,-0.8971,-0.8789,-0.8679,-0.8639,-0.8813,-0.9001,-0.9274,-0.9415,-0.9476,-0.9761,-0.9669,-0.9588,-0.9578,-0.9588,-0.9527,-0.9371,-0.952,-0.9669,-0.9802,-0.9815,-0.9822,-0.9822,-0.9822,-0.9972,-1.0247,-1.029,-1.0449,-1.0721,-1.0581,-1.0435,-1.0518,-1.0461,-1.0451,-1.0497,-1.0606,-1.0721,-1.0721,-1.0721,-1.0721,-1.0721,-1.0721,-1.0721,-1.0721,0.8821,0.8754,0.8669,0.8899,0.894,0.894,0.894,0.894,0.8042,0.5804,0.547,0.547,0.547,0.2205,0.0,0.0,0.0,0.0,0.0,0.0,0.0,0.0,0.0,0.0,0.0,0.0,0.0,0.0,0.0,0.0,0.0,0.0,0.0,0.0,0.0,0.0,0.0,0.0,0.0,0.0,0.0,0.0,0.0,0.0,0.0,0.0,0.0,0.0,0.0,0.0,0.0,0.0,0.0,0.0,0.0,0.0,0.0,0.0,0.0,0.0,0.0,0.0,0.0,-0.039,-0.1533,-0.5998,-0.9852,-1.0015,-0.9999,-0.9978,-1.0039,-0.9791,-0.9574,-0.9617,-0.9178,-0.8923,-0.9106,-0.9161,-0.9242,-0.9334,-0.952,-0.9696,-0.9812,-0.9771,-0.9741,-0.9741,-0.9741,-0.9717,-0.9656,-0.9707,-0.9764,-0.9819,-0.9822,-0.9822,-0.9822,-1.0008,-1.0127,-1.0297,-1.0411,-1.0585,-1.0721,-1.0585,-1.0585,-1.0439,-1.048,-1.051,-1.0527,-1.0491,-1.0585,-1.0721,-1.0721,-1.0721,-1.0721,-1.0721,-1.0721,-1.0721,0.8859,0.894,0.894,0.894,0.894,0.894,0.894,0.894,0.894,0.894,0.894,0.9008,0.9195,0.5506,0.3075,0.3075,0.3075,0.3075,0.3075,0.3075,0.2216,0.0123,0.0,0.0,0.0,0.0,0.0,0.0,0.0,0.0,0.0,0.0,0.0,0.0,0.0,0.0,0.0,0.0,0.0,0.0,0.0,0.0,0.0,0.0,0.0,0.0,0.0,0.0,0.0,0.0,0.0,0.0,0.0,0.0,0.0,0.0,0.0,0.0,0.0,0.0,0.0,0.0,0.0,0.0,0.0,-0.3498,-0.7133,-0.8759,-0.9659,-1.0179,-1.0283,-1.0005,-0.9841,-0.9967,-0.9483,-0.9286,-0.949,-0.9447,-0.9496,-0.954,-0.9696,-0.9822,-0.9822,-0.9822,-0.9822,-0.9822,-0.9822,-0.9822,-0.9822,-0.9822,-0.9822,-0.9822,-0.9822,-0.9822,-0.9822,-1.0032,-1.0208,-1.0352,-1.048,-1.0717,-1.0721,-1.0721,-1.0585,-1.0585,-1.0585,-1.0585,-1.0585,-1.0585,-1.0585,-1.0721,-1.0721,-1.0721,-1.0721,-1.0721,-1.0721,-1.0721,0.894,0.894,0.894,0.894,0.894,0.894,0.894,0.894,0.894,0.894,0.8944,0.9171,0.9758,0.9822,0.9822,0.9822,0.9822,0.9822,0.9829,0.9829,0.6877,0.037,0.0123,0.0,0.0,0.0,0.0,0.0,0.0,0.0,0.0,0.0,0.0,0.0,0.0,0.0,0.0,0.0,0.0,0.0,0.0,0.0,0.0,0.0,0.0,0.0,0.0,0.0,0.0,0.0,0.0,0.0,0.0,0.0,0.0,0.0,0.0,0.0,0.0,0.0,0.0,0.0,0.0,0.0,0.0,0.0,-0.1307,-0.5787,-0.8744,-1.0441,-1.029,-1.0358,-1.0163,-0.9893,-0.9825,-0.9697,-0.9576,-0.9572,-0.9694,-0.9822,-0.9822,-0.9822,-0.9822,-0.9822,-0.9822,-0.9822,-0.9822,-0.9822,-0.9822,-0.9822,-0.9822,-0.9822,-0.9822,-0.9822,-0.9822,-0.9947,-1.0105,-1.0287,-1.0447,-1.0585,-1.0721,-1.0721,-1.0721,-1.0721,-1.0721,-1.0721,-1.0721,-1.0721,-1.0721,-1.0721,-1.0721,-1.0721,-1.0721,-1.0721,-1.0721,-1.0721,0.894,0.894,0.894,0.894,0.894,0.894,0.894,0.894,0.894,0.894,0.93,0.9625,0.9802,0.9822,0.9822,0.9822,0.9822,1.0002,1.0422,1.0453,0.9534,0.7574,0.7156,0.4668,0.0123,0.0,0.0,0.0,0.0,0.0,0.0,0.0,0.0,0.0,0.0,0.0,0.0,0.0,0.0,0.0,0.0,0.0,0.0,0.0,0.0,0.0,0.0,0.0,0.0,0.0,0.0,0.0,0.0,0.0,0.0,0.0,0.0,0.0,0.0,0.0,0.0,0.0,0.0,0.0,0.0,0.0,-0.04,-0.1722,-0.663,-1.0649,-1.0619,-1.0488,-1.0454,-1.0337,-1.0225,-1.0148,-0.9857,-0.9831,-0.9822,-0.9822,-0.9822,-0.9863,-0.9971,-0.9981,-0.9981,-0.9981,-0.9883,-0.9822,-0.9822,-0.9822,-0.9822,-0.9822,-0.9822,-0.9873,-0.9981,-1.0143,-1.0222,-1.032,-1.0541,-1.0717,-1.0721,-1.0721,-1.0721,-1.0721,-1.0721,-1.0721,-1.0721,-1.0721,-1.0721,-1.0721,-1.0721,-1.0721,-1.0721,-1.0721,-1.0721,-1.0721,0.894,0.894,0.894,0.894,0.894,0.9018,0.9252,0.9289,0.9289,0.9289,0.9598,0.9822,0.9822,0.9822,0.9822,0.9822,1.0039,1.0331,1.0697,1.0721,1.0721,1.0721,1.0371,0.8265,0.4329,0.1404,0.0,0.0,0.0,0.0,0.0,0.0,0.0,0.0,0.0,0.0,0.0,0.0,0.0,0.0,0.0,0.0,0.0,0.0,0.0,0.0,0.0,0.0,0.0,0.0,0.0,0.0,0.0,0.0,0.0,0.0,0.0,0.0,0.0,0.0,0.0,0.0,0.0,0.0,0.0,0.0,0.0,0.0,-0.4562,-0.9018,-1.0505,-1.0608,-1.0585,-1.0585,-1.0496,-1.0277,-1.0179,-1.0107,-1.0067,-1.0064,-0.9995,-1.0016,-1.0063,-1.0151,-1.0178,-1.0144,-0.9998,-0.991,-0.991,-0.991,-0.991,-0.991,-0.9971,-0.9992,-1.0088,-1.0239,-1.0434,-1.0414,-1.0663,-1.0721,-1.0721,-1.0721,-1.0721,-1.0721,-1.0721,-1.0721,-1.0721,-1.0721,-1.0721,-1.0721,-1.0721,-1.0721,-1.0721,-1.0721,-1.0721,-1.0721,0.894,0.8981,0.9018,0.9018,0.9018,0.9201,0.9737,0.9822,0.9822,0.9822,0.9822,0.9822,0.9822,0.9869,0.9903,0.9903,1.0402,1.0721,1.0721,1.0721,1.0721,1.0721,1.0721,1.0721,1.0721,0.4289,0.0673,0.0,0.0,0.0,0.0,0.0,0.0,0.0,0.0,0.0,0.0,0.0,0.0,0.0,0.0,0.0,0.0,0.0,0.0,0.0,0.0,0.0,0.0,0.0,0.0,0.0,0.0,0.0,0.0,0.0,0.0,0.0,0.0,0.0,0.0,0.0,0.0,0.0,0.0,0.0,0.0,0.0,-0.2681,-0.604,-0.9987,-1.0492,-1.0319,-1.0591,-1.0605,-1.0497,-1.0323,-1.029,-1.0304,-1.0304,-1.027,-1.0341,-1.0374,-1.0324,-1.0273,-1.03,-1.0144,-1.0049,-1.0032,-1.0029,-1.0042,-1.007,-1.0209,-1.0277,-1.0368,-1.0499,-1.0527,-1.0455,-1.0592,-1.0721,-1.0721,-1.0721,-1.0721,-1.0721,-1.0721,-1.0721,-1.0721,-1.0721,-1.0721,-1.0721,-1.0721,-1.0721,-1.0721,-1.0721,-1.0721,-1.0721,0.894,0.931,0.9629,0.9629,0.9629,0.9673,0.9802,0.9822,0.9822,0.9822,0.9822,0.9822,0.9822,1.0243,1.0524,1.0524,1.0643,1.0721,1.0721,1.0721,1.0721,1.0721,1.0721,1.0721,1.0721,0.9241,0.5626,0.0,0.0,0.0,0.0,0.0,0.0,0.0,0.0,0.0,0.0,0.0,0.0,0.0,0.0,0.0,0.0,0.0,0.0,0.0,0.0,0.0,0.0,0.0,0.0,0.0,0.0,0.0,0.0,0.0,0.0,0.0,0.0,0.0,0.0,0.0,0.0,0.0,0.0,0.0,0.0,0.0,-0.0672,-0.3087,-0.946,-0.848,-0.7512,-1.0241,-1.0721,-1.0666,-1.0656,-1.0484,-1.0454,-1.032,-1.0283,-1.032,-1.0397,-1.0493,-1.0447,-1.0405,-1.0342,-1.0291,-1.0257,-1.025,-1.0235,-1.0222,-1.0263,-1.038,-1.044,-1.0518,-1.0545,-1.0491,-1.069,-1.0721,-1.0721,-1.0721,-1.0721,-1.0721,-1.0721,-1.0721,-1.0721,-1.0721,-1.0721,-1.0721,-1.0721,-1.0721,-1.0721,-1.0721,-1.0721,-1.0721,0.9303,0.9608,0.9822,0.9822,0.9822,0.9822,0.9822,0.9822,0.9822,0.9822,1.007,1.0249,1.0249,1.0531,1.0721,1.0721,1.0721,1.0721,1.0721,1.0721,1.0721,1.0721,1.0721,1.0721,1.0721,1.0721,0.7231,0.0,0.0,0.0,0.0,0.0,0.0,0.0,0.0,0.0,0.0,0.0,0.0,0.0,0.0,0.0,0.0,0.0,0.0,0.0,0.0,0.0,0.0,0.0,0.0,0.0,0.0,0.0,0.0,0.0,0.0,0.0,0.0,0.0,0.0,0.0,0.0,0.0,0.0,0.0,0.0,0.0,0.0,-0.1208,-0.4847,-0.551,-0.5499,-0.564,-0.71,-0.8701,-1.0472,-1.0595,-1.0585,-1.0449,-1.0449,-1.0524,-1.0637,-1.0629,-1.0541,-1.0575,-1.0466,-1.0361,-1.0386,-1.0374,-1.0374,-1.0407,-1.0419,-1.049,-1.0623,-1.0597,-1.0544,-1.0585,-1.0721,-1.0721,-1.0721,-1.0721,-1.0721,-1.0721,-1.0721,-1.0721,-1.0721,-1.0721,-1.0721,-1.0721,-1.0721,-1.0721,-1.0721,-1.0721,-1.0721,-1.0721,0.9724,0.9822,0.9822,0.9822,0.9822,0.9822,0.9822,0.991,0.9975,0.9975,1.0409,1.0721,1.0721,1.0721,1.0721,1.0721,1.0721,1.0721,1.0721,1.0721,1.0721,1.0721,1.0721,1.0721,1.0721,1.0721,0.7231,0.0,0.0,0.0,0.0,0.0,0.0,0.0,0.0,0.0,0.0,0.0,0.0,0.0,0.0,0.0,0.0,0.0,0.0,0.0,0.0,0.0,0.0,0.0,0.0,0.0,0.0,0.0,0.0,0.0,0.0,0.0,0.0,0.0,0.0,0.0,0.0,0.0,0.0,0.0,0.0,0.0,0.0,0.0,0.0,-0.2417,-0.3487,-0.0537,-0.2543,-0.5754,-0.9282,-0.98,-1.0047,-1.0588,-1.0721,-1.0721,-1.0721,-1.0721,-1.0721,-1.0721,-1.0585,-1.0581,-1.0581,-1.049,-1.0489,-1.0489,-1.0595,-1.0721,-1.0721,-1.0721,-1.0721,-1.0721,-1.0721,-1.0721,-1.0721,-1.0721,-1.0721,-1.0721,-1.0721,-1.0721,-1.0721,-1.0721,-1.0721,-1.0721,-1.0721,-1.0721,-1.0721,-1.0721,-1.0721,-1.0721,0.9805,0.9822,0.9822,0.9822,0.9822,0.9822,0.9822,1.0263,1.0599,1.0599,1.067,1.0721,1.0721,1.0721,1.0721,1.0721,1.0721,1.0721,1.0721,1.0721,1.0721,1.0721,1.0721,1.0721,1.0721,1.0721,0.7231,0.0,0.0,0.0,0.0,0.0,0.0,0.0,0.0,0.0,0.0,0.0,0.0,0.0,0.0,0.0,0.0,0.0,0.0,0.0,0.0,0.0,0.0,0.0,0.0,0.0,0.0,0.0,0.0,0.0,0.0,0.0,0.0,0.0,0.0,0.0,0.0,0.0,0.0,0.0,0.0,0.0,0.0,0.0,0.0,-0.0404,-0.0538,-0.0135,-0.0403,-0.201,-0.5658,-0.6182,-0.7234,-1.0316,-1.0721,-1.0721,-1.0721,-1.0721,-1.0721,-1.0721,-1.0721,-1.0721,-1.0721,-1.0683,-1.066,-1.066,-1.07,-1.0721,-1.0721,-1.0721,-1.0721,-1.0721,-1.0721,-1.0721,-1.0721,-1.0721,-1.0721,-1.0721,-1.0721,-1.0721,-1.0721,-1.0721,-1.0721,-1.0721,-1.0721,-1.0721,-1.0721,-1.0721,-1.0721,-1.0721,0.9822,0.9822,0.9822,0.9822,0.9822,0.9822,0.9822,1.0331,1.0721,1.0721,1.0721,1.0721,1.0721,1.0721,1.0721,1.0721,1.0721,1.0721,1.0721,1.0721,1.0721,1.0721,1.0721,1.0721,1.0721,1.0721,0.9108,0.6027,0.2014,0.0,0.0,0.0,0.0,0.0,0.0,0.0,0.0,0.0,0.0,0.0,0.0,0.0,0.0,0.0,0.0,0.0,0.0,0.0,0.0,0.0,0.0,0.0,0.0,0.0,0.0,0.0,0.0,0.0,0.0,0.0,0.0,0.0,0.0,0.0,0.0,0.0,0.0,0.0,0.0,0.0,0.0,0.0,0.0,0.0,0.0,-0.0538,-0.2154,-0.4166,-0.6704,-1.0316,-1.0721,-1.0721,-1.0721,-1.0721,-1.0721,-1.0721,-1.0721,-1.0721,-1.0721,-1.0721,-1.0721,-1.0721,-1.0721,-1.0721,-1.0721,-1.0721,-1.0721,-1.0721,-1.0721,-1.0721,-1.0721,-1.0721,-1.0721,-1.0721,-1.0721,-1.0721,-1.0721,-1.0721,-1.0721,-1.0721,-1.0721,-1.0721,-1.0721,-1.0721,-1.0721,-1.0721]}]]